[[{"header":{"parameterUnit":"m.s-1","parameterCategory":1,"la1":31.0,"la2":29.5877,"lo1":-88.7671,"lo2":-86.6584,"dy":0.0162,"dx":0.0185,"nx":115,"ny":88,"refTime":"2023-08-08T00:00:00:Z","depth":0,"parameterNumber":2,"parameterNumberName":"U-component_of_WINDS"},"data":[0.0,0.0,0.0,0.0,0.0,0.0,0.0,0.0,0.0,0.0,0.0,0.0,0.0,0.0,0.0,0.0,0.0,0.0,0.0,0.0,0.0,0.0,0.0,0.0,0.0,0.0,0.0,0.0,0.0,0.0,0.0,0.0,0.0,0.0,0.0,0.0,0.0,0.0,0.0,0.0,0.0,0.0,0.0,0.0,0.0,0.0,0.0,0.0,0.0,0.0,0.0,0.0,0.0,0.0,0.0,0.0,0.0,0.0,0.0,0.0,0.0,0.0,0.0,0.0,0.0,0.0,0.0,0.0,0.0,0.0,0.0,0.0,0.0,0.0,0.0,0.0,0.0,0.0,0.0,0.0,0.0,0.0,0.0,0.0,0.0,0.0,0.0,0.0,0.0,0.0,0.0,0.0,0.0,0.0,0.0,0.0,0.0,0.0,0.0,0.0,0.0,0.0,0.0,0.0,0.0,0.0,0.0,0.0,0.0,0.0,0.0,0.0,0.0,0.0,0.0,0.0,0.0,0.0,0.0,0.0,0.0,0.0,0.0,0.0,0.0,0.0,0.0,0.0,0.0,0.0,0.0,0.0,0.0,0.0,0.0,0.0,0.0,0.0,0.0,0.0,0.0,0.0,0.0,0.0,0.0,0.0,0.0,0.0,0.0,0.0,0.0,0.0,0.0,0.0,0.0,0.0,0.0,0.0,0.0,0.0,0.0,0.0,0.0,0.0,0.0,0.0,0.0,0.0,0.0,0.0,0.0,0.0,0.0,0.0,0.0,0.0,0.0,0.0,0.0,0.0,0.0,0.0,0.0,0.0,0.0,0.0,0.0,0.0,0.0,0.0,0.0,0.0,0.0,0.0,0.0,0.0,0.0,0.0,0.0,0.0,0.0,0.0,0.0,0.0,0.0,0.0,0.0,0.0,0.0,0.0,0.0,0.0,0.0,0.0,0.0,0.0,0.0,0.0,0.0,0.0,0.0,0.0,0.0,0.0,0.0,0.0,0.0,0.0,0.0,0.0,0.0,0.0,0.0,0.0,0.0,0.0,0.0,0.0,0.0,0.0,0.0,0.0,0.0,0.0,0.0,0.0,0.0,0.0,0.0,0.0,0.0,0.0,0.0,0.0,0.0,0.0,0.0,0.0,0.0,0.0,0.0,0.0,0.0,0.0,0.0,0.0,0.0,0.0,0.0,0.0,0.0,0.0,0.0,0.0,0.0,0.0,0.0,0.0,0.0,0.0,0.0,0.0,0.0,0.0,0.0,0.0,0.0,0.0,0.0,0.0,0.0,0.0,0.0,0.0,0.0,0.0,0.0,0.0,0.0,0.0,0.0,0.0,0.0,0.0,0.0,0.0,0.0,0.0,0.0,0.0,0.0,0.0,0.0,0.0,0.0,0.0,0.0,0.0,0.0,0.0,0.0,0.0,0.0,0.0,0.0,0.0,0.0,0.0,0.0,0.0,0.0,0.0,0.0,0.0,0.0,0.0,0.0,0.0,0.0,0.0,0.0,0.0,0.0,0.0,0.0,0.0,0.0,0.0,0.0,0.0,0.0,0.0,0.0,0.0,0.0,0.0,0.0,0.0,0.0,0.0,0.0,0.0,0.0,0.0,0.0,0.0,0.0,0.0,0.0,0.0,0.0,0.0,0.0,0.0,0.0,0.0,0.0,0.0,0.0,0.0,0.0,0.0,0.0,0.0,0.0,0.0,0.0,0.0,0.0,0.0,0.0,0.0,0.0,0.0,0.0,0.0,0.0,0.0,0.0,0.0,0.0,0.0,0.0,0.0,0.0,0.0,0.0,0.0,0.0,0.0,0.0,0.0,0.0,0.0,0.0,0.0,0.0,0.0,0.0,0.0,0.0,0.0,0.0,0.0,0.0,0.0,0.0,0.0,0.0,0.0,0.0,0.0,0.0,0.0,0.0,0.0,0.0,0.0,0.0,0.0,0.0,0.0,0.0,0.0,0.0,0.0,0.0,0.0,0.0,0.0,0.0,0.0,0.0,0.0,0.0,0.0,0.0,0.0,0.0,0.0,0.0,0.0,0.0,0.0,0.0,0.0,0.0,0.0,0.0,0.0,0.0,0.0,0.0,0.0,0.0,0.0,0.0,0.0,0.0,0.0,0.0,0.0,0.0,0.0,0.0,0.0,0.0,0.0,0.0,0.0,0.0,0.0,0.0,0.0,0.0,0.0,0.0,0.0,0.0,0.0,0.0,0.0,0.0,0.0,0.0,0.0,0.0,0.0,0.0,0.0,0.0,0.0,0.0,0.0,0.0,0.0,0.0,0.0,0.0,0.0,0.0,0.0,0.0,0.0,0.0,0.0,0.0,0.0,0.0,0.0,0.0,0.0,0.0,0.0,0.0,0.0,0.0,0.0,0.0,0.0,0.0,0.0,0.0,0.0,0.0,0.0,0.0,0.0,0.0,0.0,0.0,0.0,0.0,0.0,0.0,0.0,0.0,0.0,0.0,0.0,0.0,0.0,0.0,0.0,0.0,0.0,0.0,0.0,0.0,0.0,0.0,0.0,0.0,0.0,0.0,0.0,0.0,0.0,0.0,0.0,0.0,0.0,0.0,0.0,0.0,0.0,0.0,0.0,0.0,0.0,0.0,0.0,0.0,0.0,0.0,0.0,0.0,0.0,0.0,0.0,0.0,0.0,0.0,0.0,0.0,0.0,0.0,0.0,0.0,0.0,0.0,0.0,0.0,0.0,0.0,0.0,0.0,0.0,0.0,0.0,0.0,0.0,0.0,0.0,0.0,0.0,0.0,0.0,0.0,0.0,0.0,0.0,0.0,0.0,0.0,0.0,0.0,0.0,0.0,0.0,0.0,0.0,0.0,0.0,0.0,0.0,0.0,0.0,0.0,0.0,0.0,0.0,0.0,0.0,0.0,0.0,0.0,0.0,0.0,0.0,0.0,0.0,0.0,0.0,0.0,0.0,0.0,0.0,0.0,0.0,0.0,0.0,0.0,0.0,0.0,0.0,0.0,0.0,0.0,0.0,0.0,0.0,0.0,0.0,0.0,0.0,0.0,0.0,0.0,0.0,0.0,0.0,0.0,0.0,0.0,0.0,0.0,0.0,0.0,0.0,0.0,0.0,0.0,0.0,0.0,0.0,0.0,0.0,0.0,0.0,0.0,0.0,0.0,0.0,0.0,0.0,0.0,0.0,0.0,0.0,0.0,0.0,0.0,0.0,0.0,0.0,0.0,0.0,0.0,0.0,0.0,0.0,0.0,0.0,0.0,0.0,0.0,0.0,0.0,0.0,0.0,0.0,0.0,0.0,0.0,0.0,0.0,0.0,0.0,0.0,0.0,0.0,0.0,0.0,0.0,0.0,0.0,0.0,0.0,0.0,0.0,0.0,0.0,0.0,0.0,0.0,0.0,0.0,0.0,0.0,0.0,0.0,0.0,0.0,0.0,0.0,0.0,0.0,0.0,0.0,0.0,0.0,0.0,0.0,0.0,0.0,0.0,0.0,0.0,0.0,0.0,0.0,0.0,0.0,0.0,0.0,0.0,0.0,0.0,0.0,0.0,0.0,0.0,0.0,0.0,0.0,0.0,0.0,0.0,0.0,0.0,0.0,0.0,0.0,0.0,0.0,0.0,0.0,0.0,0.0,0.0,0.0,0.0,0.0,0.0,0.0,0.0,0.0,0.0,0.0,0.0,0.0,0.0,0.0,0.0,0.0,0.0,0.0,0.0,0.0,0.0,0.0,0.0,0.0,0.0,0.0,0.0,0.0,0.0,0.0,0.0,0.0,0.0,0.0,0.0,0.0,0.0,0.0,0.0,0.0,0.0,0.0,0.0,0.0,0.0,0.0,0.0,0.0,0.0,0.0,0.0,0.0,0.0,0.0,0.0,0.0,0.0,0.0,0.0,0.0,0.0,0.0,0.0,0.0,0.0,0.0,0.0,0.0,0.0,0.0,0.0,0.0,0.0,0.0,0.0,0.0,0.0,0.0,0.0,0.0,0.0,0.0,0.0,0.0,0.0,0.0,0.0,0.0,0.0,0.0,0.0,0.0,0.0,0.0,0.0,0.0,0.0,0.0,0.0,0.0,0.0,0.0,0.0,0.0,0.0,0.0,0.0,0.0,0.0,0.0,0.0,0.0,0.0,0.0,0.0,0.0,0.0,0.0,0.0,0.0,0.0,0.0,0.0,0.0,0.0,0.0,0.0,0.0,0.0,0.0,0.0,0.0,0.0,0.0,0.0,0.0,0.0,0.0,0.0,0.0,0.0,0.0,0.0,0.0,0.0,0.0,-1.0636,0.0,0.0,0.0,0.0,0.0,0.0,0.0,0.0,0.0,0.0,0.0,0.0,0.0,0.0,0.0,0.0,0.0,0.0,0.0,0.0,0.0,0.0,0.0,0.0,0.0,0.0,0.0,0.0,0.0,0.0,0.0,0.0,0.0,0.0,0.0,0.0,0.0,0.0,0.0,0.0,0.0,0.0,0.0,0.0,0.0,0.0,0.0,0.0,0.0,0.0,0.0,0.0,0.0,0.0,0.0,0.0,0.0,0.0,0.0,0.0,0.0,0.0,0.0,0.0,0.0,0.0,0.0,0.0,0.0,0.0,0.0,0.0,0.0,0.0,0.0,0.0,0.0,0.0,0.0,0.0,0.0,0.0,0.0,0.0,0.0,0.0,0.0,0.0,0.0,0.0,0.0,0.0,0.0,0.0,0.0,0.0,0.0,0.0,0.0,0.0,0.0,0.0,0.0,0.0,0.0,0.0,0.0,0.0,0.0,0.0,-1.0212,-1.0472,-1.0381,-1.0467,-1.0819,0.0,0.0,0.0,0.0,0.0,0.0,0.0,0.0,0.0,0.0,0.0,0.0,0.0,0.0,0.0,0.0,0.0,0.0,0.0,0.0,0.0,0.0,0.0,0.0,0.0,0.0,0.0,0.0,0.0,0.0,0.0,0.0,0.0,0.0,0.0,0.0,0.0,0.0,0.0,0.0,0.0,0.0,0.0,0.0,0.0,0.0,0.0,0.0,0.0,0.0,0.0,0.0,0.0,0.0,0.0,0.0,0.0,0.0,0.0,0.0,0.0,0.0,0.0,0.0,0.0,0.0,0.0,0.0,0.0,0.0,0.0,0.0,0.0,0.0,0.0,0.0,0.0,0.0,0.0,0.0,0.0,0.0,0.0,0.0,0.0,0.0,0.0,0.0,0.0,0.0,0.0,0.0,0.0,0.0,0.0,0.0,0.0,0.0,0.0,0.0,0.0,0.0,0.0,0.0,0.0,0.0,0.0,0.0,0.0,0.0,0.0,0.0,-1.0559,-1.0626,-1.1005,0.0,0.0,0.0,0.0,0.0,0.0,0.0,0.0,0.0,0.0,0.0,0.0,0.0,0.0,0.0,0.0,0.0,0.0,0.0,0.0,0.0,0.0,0.0,0.0,0.0,0.0,0.0,0.0,0.0,0.0,0.0,0.0,0.0,0.0,0.0,0.0,0.0,0.0,0.0,0.0,0.0,0.0,0.0,0.0,0.0,0.0,0.0,0.0,0.0,0.0,0.0,0.0,0.0,0.0,0.0,0.0,0.0,0.0,0.0,0.0,0.0,0.0,0.0,0.0,0.0,0.0,0.0,0.0,0.0,0.0,0.0,0.0,0.0,0.0,0.0,0.0,0.0,0.0,0.0,0.0,0.0,0.0,0.0,0.0,0.0,0.0,0.0,0.0,0.0,0.0,0.0,0.0,0.0,0.0,0.0,0.0,0.0,0.0,0.0,0.0,0.0,0.0,0.0,0.0,0.0,0.0,0.0,0.0,0.0,0.0,-1.0381,-1.0727,-1.0824,0.0,-1.0942,0.0,0.0,0.0,0.0,0.0,0.0,0.0,0.0,0.0,0.0,0.0,0.0,0.0,0.0,0.0,0.0,0.0,0.0,0.0,0.0,0.0,0.0,0.0,0.0,0.0,0.0,0.0,0.0,0.0,0.0,0.0,0.0,0.0,0.0,0.0,0.0,0.0,0.0,0.0,0.0,0.0,0.0,0.0,0.0,0.0,0.0,0.0,0.0,0.0,0.0,0.0,0.0,0.0,0.0,0.0,0.0,0.0,0.0,0.0,0.0,0.0,0.0,0.0,0.0,0.0,0.0,0.0,0.0,0.0,0.0,0.0,0.0,0.0,0.0,0.0,0.0,0.0,0.0,0.0,0.0,0.0,0.0,0.0,0.0,0.0,0.0,0.0,0.0,0.0,0.0,0.0,0.0,0.0,0.0,0.0,0.0,0.0,0.0,0.0,0.0,0.0,0.0,0.0,0.0,0.0,0.0,0.0,0.0,0.0,0.0,-1.0549,-1.1068,-1.1283,-1.1271,0.0,0.0,0.0,0.0,0.0,0.0,0.0,0.0,0.0,0.0,0.0,0.0,0.0,0.0,0.0,0.0,0.0,0.0,0.0,0.0,0.0,0.0,0.0,0.0,0.0,0.0,0.0,0.0,0.0,0.0,0.0,0.0,0.0,0.0,0.0,0.0,0.0,0.0,0.0,0.0,0.0,0.0,0.0,0.0,0.0,0.0,0.0,0.0,0.0,0.0,0.0,0.0,0.0,0.0,0.0,0.0,0.0,0.0,0.0,0.0,0.0,0.0,0.0,0.0,0.0,0.0,0.0,0.0,0.0,0.0,0.0,0.0,0.0,0.0,0.0,0.0,0.0,0.0,0.0,0.0,0.0,0.0,0.0,0.0,0.0,0.0,0.0,0.0,0.0,0.0,0.0,0.0,0.0,0.0,0.0,0.0,0.0,0.0,0.0,0.0,0.0,0.0,0.0,0.0,0.0,0.0,0.0,0.0,0.0,0.0,-1.0467,-1.0895,-1.1574,-1.1691,-1.1529,-1.1134,0.0,0.0,0.0,0.0,0.0,0.0,0.0,0.0,0.0,0.0,0.0,0.0,0.0,0.0,0.0,0.0,0.0,0.0,0.0,0.0,0.0,0.0,0.0,0.0,0.0,0.0,0.0,0.0,0.0,0.0,0.0,0.0,0.0,0.0,0.0,0.0,0.0,0.0,0.0,0.0,0.0,0.0,0.0,0.0,0.0,0.0,0.0,0.0,0.0,0.0,0.0,0.0,0.0,0.0,0.0,0.0,0.0,0.0,0.0,0.0,0.0,0.0,0.0,0.0,0.0,0.0,0.0,0.0,0.0,0.0,0.0,0.0,0.0,0.0,0.0,0.0,0.0,0.0,0.0,0.0,0.0,0.0,0.0,0.0,0.0,0.0,0.0,0.0,0.0,0.0,0.0,0.0,0.0,0.0,0.0,0.0,0.0,0.0,0.0,0.0,0.0,0.0,0.0,0.0,0.0,0.0,0.0,0.0,-1.0284,-1.089,-1.1585,-1.2272,-1.2116,-1.1858,0.0,0.0,0.0,0.0,0.0,0.0,0.0,0.0,0.0,0.0,0.0,0.0,0.0,0.0,0.0,0.0,0.0,0.0,0.0,0.0,0.0,0.0,0.0,0.0,0.0,0.0,0.0,0.0,0.0,0.0,0.0,0.0,0.0,0.0,0.0,0.0,0.0,0.0,0.0,0.0,0.0,0.0,0.0,0.0,0.0,0.0,0.0,0.0,0.0,0.0,0.0,0.0,0.0,0.0,0.0,0.0,0.0,0.0,0.0,0.0,0.0,0.0,0.0,0.0,0.0,0.0,0.0,0.0,0.0,0.0,0.0,0.0,0.0,0.0,0.0,0.0,0.0,0.0,0.0,0.0,0.0,0.0,0.0,0.0,0.0,0.0,0.0,0.0,0.0,0.0,0.0,0.0,0.0,0.0,0.0,0.0,0.0,0.0,0.0,0.0,0.0,0.0,0.0,0.0,0.0,0.0,0.0,0.0,0.0,-1.0598,-1.1764,-1.2613,-1.3039,-1.2776,-1.2487,0.0,0.0,0.0,0.0,0.0,0.0,0.0,0.0,0.0,0.0,0.0,0.0,0.0,0.0,0.0,0.0,0.0,0.0,0.0,0.0,0.0,0.0,0.0,0.0,0.0,0.0,0.0,0.0,0.0,0.0,0.0,0.0,0.0,0.0,0.0,0.0,0.0,0.0,0.0,0.0,0.0,0.0,0.0,0.0,0.0,0.0,0.0,0.0,0.0,0.0,0.0,0.0,0.0,0.0,0.0,0.0,0.0,0.0,0.0,0.0,0.0,0.0,0.0,0.0,0.0,0.0,0.0,0.0,0.0,0.0,0.0,0.0,0.0,0.0,0.0,0.0,0.0,0.0,0.0,0.0,0.0,0.0,0.0,0.0,0.0,0.0,0.0,0.0,0.0,0.0,0.0,0.0,0.0,0.0,0.0,0.0,0.0,0.0,0.0,0.0,0.0,0.0,0.0,0.0,0.0,0.0,0.0,0.0,0.0,-1.1311,0.0,-1.347,-1.3795,-1.3413,-1.3101,0.0,0.0,0.0,0.0,0.0,0.0,0.0,0.0,0.0,0.0,0.0,0.0,0.0,0.0,0.0,0.0,0.0,0.0,0.0,0.0,0.0,0.0,0.0,0.0,0.0,0.0,0.0,0.0,0.0,0.0,0.0,0.0,0.0,0.0,0.0,0.0,0.0,0.0,0.0,0.0,0.0,0.0,0.0,0.0,0.0,0.0,0.0,0.0,0.0,0.0,0.0,0.0,0.0,0.0,0.0,0.0,0.0,0.0,0.0,0.0,0.0,0.0,0.0,0.0,0.0,0.0,0.0,0.0,0.0,0.0,0.0,0.0,0.0,0.0,0.0,0.0,0.0,0.0,0.0,0.0,0.0,0.0,0.0,0.0,0.0,0.0,0.0,0.0,0.0,0.0,0.0,0.0,0.0,0.0,0.0,0.0,0.0,0.0,0.0,0.0,0.0,0.0,0.0,0.0,0.0,0.0,0.0,0.0,-1.0908,-1.263,-1.3651,-1.4314,-1.4636,-1.424,-1.3831,0.0,0.0,0.0,0.0,0.0,0.0,0.0,0.0,0.0,0.0,0.0,0.0,0.0,0.0,0.0,0.0,0.0,0.0,0.0,0.0,0.0,0.0,0.0,0.0,0.0,0.0,0.0,0.0,0.0,0.0,0.0,0.0,0.0,0.0,0.0,0.0,0.0,0.0,0.0,0.0,0.0,0.0,0.0,0.0,0.0,0.0,0.0,0.0,0.0,0.0,0.0,0.0,0.0,0.0,0.0,0.0,0.0,0.0,0.0,0.0,0.0,0.0,0.0,0.0,0.0,0.0,0.0,0.0,0.0,0.0,0.0,0.0,0.0,0.0,0.0,0.0,0.0,0.0,0.0,0.0,0.0,0.0,0.0,0.0,0.0,0.0,0.0,0.0,0.0,0.0,0.0,0.0,0.0,0.0,0.0,0.0,0.0,0.0,0.0,0.0,0.0,0.0,0.0,0.0,0.0,0.0,0.0,0.0,0.0,-1.3087,-1.4296,-1.5144,-1.5387,-1.5087,-1.4598,0.0,0.0,0.0,0.0,0.0,0.0,0.0,0.0,0.0,0.0,0.0,0.0,0.0,0.0,0.0,0.0,0.0,0.0,0.0,0.0,0.0,0.0,0.0,0.0,0.0,0.0,0.0,0.0,0.0,0.0,0.0,0.0,0.0,0.0,0.0,0.0,0.0,0.0,0.0,0.0,0.0,0.0,0.0,0.0,0.0,0.0,0.0,0.0,0.0,0.0,0.0,0.0,0.0,0.0,0.0,0.0,0.0,0.0,0.0,0.0,0.0,0.0,0.0,0.0,0.0,0.0,0.0,0.0,0.0,0.0,0.0,0.0,0.0,0.0,0.0,0.0,0.0,0.0,0.0,0.0,0.0,0.0,0.0,0.0,0.0,0.0,0.0,0.0,0.0,0.0,0.0,0.0,0.0,0.0,0.0,0.0,0.0,0.0,0.0,0.0,0.0,0.0,0.0,0.0,0.0,0.0,0.0,0.0,0.0,-1.4085,-1.5212,-1.5982,-1.6229,-1.5905,-1.5408,-1.4543,0.0,0.0,0.0,0.0,0.0,0.0,0.0,0.0,0.0,0.0,0.0,0.0,0.0,0.0,0.0,0.0,0.0,0.0,0.0,0.0,0.0,0.0,0.0,0.0,0.0,0.0,0.0,0.0,0.0,0.0,0.0,0.0,0.0,0.0,0.0,0.0,0.0,0.0,0.0,0.0,0.0,0.0,0.0,0.0,0.0,0.0,0.0,0.0,0.0,0.0,0.0,0.0,0.0,0.0,0.0,0.0,0.0,0.0,0.0,0.0,0.0,0.0,0.0,0.0,0.0,0.0,0.0,0.0,0.0,0.0,0.0,0.0,0.0,0.0,0.0,0.0,0.0,0.0,0.0,0.0,0.0,0.0,0.0,0.0,0.0,0.0,0.0,0.0,0.0,0.0,0.0,0.0,0.0,0.0,0.0,0.0,0.0,0.0,0.0,0.0,0.0,0.0,0.0,0.0,0.0,0.0,0.0,0.0,-1.5248,-1.6223,-1.6812,-1.7049,-1.6725,-1.6142,0.0,0.0,0.0,0.0,0.0,0.0,0.0,0.0,0.0,0.0,0.0,0.0,0.0,0.0,0.0,0.0,0.0,0.0,0.0,0.0,0.0,0.0,0.0,0.0,0.0,0.0,0.0,0.0,0.0,0.0,0.0,0.0,0.0,0.0,0.0,0.0,0.0,0.0,0.0,0.0,0.0,0.0,0.0,0.0,0.0,0.0,0.0,0.0,0.0,0.0,0.0,0.0,0.0,0.0,0.0,0.0,0.0,0.0,0.0,0.0,0.0,0.0,0.0,0.0,0.0,0.0,0.0,0.0,0.0,0.0,0.0,0.0,0.0,0.0,0.0,0.0,0.0,0.0,0.0,0.0,0.0,0.0,0.0,0.0,0.0,0.0,0.0,0.0,0.0,0.0,0.0,0.0,0.0,0.0,0.0,0.0,0.0,0.0,0.0,0.0,0.0,0.0,0.0,0.0,0.0,0.0,0.0,0.0,0.0,-1.5248,-1.6385,-1.7049,-1.7049,-1.6806,-1.6186,0.0,0.0,0.0,0.0,0.0,0.0,0.0,0.0,0.0,0.0,0.0,0.0,0.0,0.0,0.0,0.0,0.0,0.0,0.0,0.0,0.0,0.0,0.0,0.0,0.0,0.0,0.0,0.0,0.0,0.0,0.0,0.0,0.0,0.0,0.0,0.0,0.0,0.0,0.0,0.0,0.0,0.0,0.0,0.0,0.0,0.0,0.0,0.0,0.0,0.0,0.0,0.0,0.0,0.0,0.0,0.0,0.0,0.0,0.0,0.0,0.0,0.0,0.0,0.0,0.0,0.0,0.0,0.0,0.0,0.0,0.0,0.0,0.0,0.0,0.0,0.0,0.0,0.0,0.0,0.0,0.0,0.0,0.0,0.0,0.0,0.0,0.0,0.0,0.0,0.0,0.0,0.0,0.0,0.0,0.0,0.0,0.0,0.0,0.0,0.0,0.0,0.0,0.0,0.0,0.0,0.0,0.0,0.0,-1.3947,-1.519,-1.6047,-1.664,-1.6804,-1.6804,-1.6401,0.0,0.0,0.0,0.0,0.0,0.0,0.0,0.0,0.0,0.0,0.0,0.0,0.0,0.0,0.0,0.0,0.0,0.0,0.0,0.0,0.0,0.0,0.0,0.0,0.0,0.0,0.0,0.0,0.0,0.0,0.0,0.0,0.0,0.0,0.0,0.0,0.0,0.0,0.0,0.0,0.0,0.0,0.0,0.0,0.0,0.0,0.0,0.0,0.0,0.0,0.0,0.0,0.0,0.0,0.0,0.0,0.0,0.0,0.0,0.0,0.0,0.0,0.0,0.0,0.0,0.0,0.0,0.0,0.0,0.0,0.0,0.0,0.0,0.0,0.0,0.0,0.0,0.0,0.0,0.0,0.0,0.0,0.0,0.0,0.0,0.0,0.0,0.0,0.0,0.0,0.0,0.0,0.0,0.0,0.0,0.0,0.0,0.0,0.0,0.0,0.0,0.0,0.0,0.0,0.0,0.0,0.0,0.0,-1.3541,-1.4956,-1.5394,-1.5816,-1.6312,-1.6722,-1.6506,0.0,0.0,0.0,0.0,0.0,0.0,0.0,0.0,0.0,0.0,0.0,0.0,0.0,0.0,0.0,0.0,0.0,0.0,0.0,0.0,0.0,0.0,0.0,0.0,0.0,0.0,0.0,0.0,0.0,0.0,0.0,0.0,0.0,0.0,0.0,0.0,0.0,0.0,0.0,0.0,0.0,0.0,0.0,0.0,0.0,0.0,0.0,0.0,0.0,0.0,0.0,0.0,0.0,0.0,0.0,0.0,0.0,0.0,0.0,0.0,0.0,0.0,0.0,0.0,0.0,0.0,0.0,0.0,0.0,0.0,0.0,0.0,0.0,0.0,0.0,0.0,0.0,0.0,0.0,0.0,0.0,0.0,0.0,0.0,0.0,0.0,0.0,0.0,0.0,0.0,0.0,0.0,0.0,0.0,0.0,0.0,0.0,0.0,0.0,0.0,0.0,0.0,0.0,0.0,0.0,0.0,0.0,0.0,-1.3299,-1.4545,-1.4999,-1.5325,-1.5643,-1.5899,-1.5786,0.0,0.0,0.0,0.0,0.0,0.0,0.0,0.0,0.0,0.0,0.0,0.0,0.0,0.0,0.0,0.0,0.0,0.0,0.0,0.0,0.0,0.0,0.0,0.0,0.0,0.0,0.0,0.0,0.0,0.0,0.0,0.0,0.0,0.0,0.0,0.0,0.0,0.0,0.0,0.0,0.0,0.0,0.0,0.0,0.0,0.0,0.0,0.0,-1.401,0.0,0.0,0.0,0.0,0.0,0.0,0.0,0.0,0.0,0.0,0.0,0.0,0.0,0.0,0.0,0.0,0.0,0.0,0.0,0.0,0.0,0.0,0.0,0.0,0.0,0.0,0.0,0.0,0.0,0.0,0.0,0.0,0.0,0.0,0.0,0.0,0.0,0.0,0.0,0.0,0.0,0.0,0.0,0.0,0.0,0.0,0.0,0.0,0.0,0.0,0.0,0.0,0.0,0.0,0.0,0.0,0.0,0.0,0.0,-1.2738,-1.3698,-1.4321,-1.4748,-1.4894,-1.5061,-1.5075,0.0,0.0,0.0,0.0,0.0,0.0,0.0,0.0,0.0,0.0,0.0,0.0,0.0,0.0,0.0,0.0,0.0,0.0,0.0,0.0,0.0,0.0,0.0,0.0,0.0,0.0,0.0,0.0,0.0,0.0,0.0,0.0,0.0,0.0,0.0,0.0,0.0,0.0,0.0,0.0,0.0,0.0,0.0,0.0,0.0,0.0,0.0,0.0,0.0,0.0,0.0,0.0,0.0,0.0,0.0,0.0,0.0,0.0,0.0,0.0,0.0,0.0,0.0,0.0,0.0,0.0,0.0,0.0,0.0,0.0,0.0,0.0,0.0,0.0,0.0,0.0,0.0,0.0,0.0,0.0,0.0,0.0,0.0,0.0,0.0,0.0,0.0,0.0,0.0,0.0,0.0,0.0,0.0,0.0,0.0,0.0,0.0,0.0,0.0,0.0,0.0,0.0,0.0,0.0,0.0,0.0,0.0,-1.1611,-1.2261,-1.293,-1.3652,-1.4075,-1.4314,-1.4314,-1.4405,-1.4566,0.0,0.0,0.0,0.0,0.0,0.0,0.0,0.0,0.0,0.0,0.0,0.0,0.0,0.0,0.0,0.0,0.0,0.0,0.0,0.0,0.0,0.0,0.0,0.0,0.0,0.0,0.0,0.0,0.0,0.0,0.0,0.0,0.0,0.0,0.0,0.0,0.0,0.0,-0.9565,-1.0015,0.0,0.0,0.0,0.0,0.0,0.0,0.0,0.0,-1.4917,0.0,0.0,0.0,0.0,0.0,0.0,0.0,0.0,0.0,0.0,0.0,0.0,0.0,0.0,0.0,0.0,0.0,0.0,0.0,0.0,0.0,0.0,0.0,0.0,0.0,0.0,0.0,0.0,0.0,0.0,0.0,0.0,0.0,0.0,0.0,0.0,0.0,0.0,0.0,0.0,0.0,0.0,0.0,0.0,0.0,0.0,0.0,0.0,0.0,0.0,0.0,0.0,0.0,0.0,0.0,0.0,-1.095,-1.1525,-1.2098,-1.2778,-1.3392,-1.3822,-1.3815,-1.399,-1.4082,-1.3795,0.0,0.0,0.0,0.0,0.0,0.0,0.0,0.0,0.0,0.0,0.0,0.0,0.0,0.0,0.0,0.0,0.0,0.0,0.0,0.0,0.0,0.0,0.0,0.0,0.0,0.0,0.0,0.0,0.0,0.0,0.0,0.0,0.0,0.0,0.0,0.0,0.0,0.0,0.0,-1.0293,-1.0801,0.0,0.0,0.0,0.0,0.0,0.0,0.0,0.0,-1.5708,0.0,0.0,0.0,0.0,0.0,0.0,0.0,0.0,0.0,0.0,0.0,0.0,0.0,0.0,0.0,0.0,0.0,0.0,0.0,0.0,0.0,0.0,0.0,0.0,0.0,0.0,0.0,0.0,0.0,0.0,0.0,0.0,0.0,0.0,0.0,0.0,0.0,0.0,0.0,0.0,0.0,0.0,0.0,0.0,0.0,0.0,0.0,0.0,0.0,0.0,0.0,0.0,0.0,0.0,0.0,-1.0939,-1.1284,-1.1852,-1.251,-1.3137,-1.3398,-1.3568,-1.3652,-1.3587,0.0,0.0,0.0,0.0,0.0,0.0,0.0,0.0,0.0,0.0,0.0,0.0,0.0,0.0,0.0,0.0,0.0,0.0,0.0,0.0,0.0,0.0,0.0,0.0,0.0,0.0,0.0,0.0,0.0,0.0,0.0,0.0,0.0,0.0,0.0,0.0,0.0,0.0,0.0,0.0,-1.0609,-1.1194,-1.2078,0.0,0.0,0.0,0.0,0.0,0.0,-1.568,-1.586,0.0,0.0,0.0,0.0,0.0,0.0,0.0,0.0,0.0,0.0,0.0,0.0,0.0,0.0,0.0,0.0,0.0,0.0,0.0,0.0,0.0,0.0,0.0,0.0,0.0,0.0,0.0,0.0,0.0,0.0,0.0,0.0,0.0,0.0,0.0,0.0,0.0,0.0,0.0,0.0,0.0,0.0,0.0,0.0,0.0,0.0,0.0,0.0,0.0,0.0,0.0,0.0,0.0,0.0,0.0,-1.0945,-1.1254,-1.174,-1.2339,-1.2881,-1.3137,-1.3307,-1.3347,-1.3207,0.0,0.0,0.0,0.0,0.0,0.0,0.0,0.0,0.0,0.0,0.0,0.0,0.0,0.0,0.0,0.0,0.0,0.0,0.0,0.0,0.0,0.0,0.0,0.0,0.0,0.0,0.0,0.0,0.0,0.0,0.0,0.0,0.0,0.0,0.0,0.0,0.0,0.0,0.0,0.0,0.0,-1.1585,-1.237,-1.2759,0.0,0.0,0.0,0.0,-1.554,-1.5866,0.0,0.0,0.0,0.0,0.0,0.0,0.0,0.0,0.0,0.0,0.0,0.0,0.0,0.0,0.0,0.0,0.0,0.0,0.0,0.0,0.0,0.0,0.0,0.0,0.0,0.0,0.0,0.0,0.0,0.0,0.0,0.0,0.0,0.0,0.0,0.0,0.0,0.0,0.0,0.0,0.0,0.0,0.0,0.0,0.0,0.0,0.0,0.0,0.0,0.0,0.0,0.0,0.0,0.0,0.0,0.0,-1.0956,-1.1419,-1.1908,-1.2345,-1.2875,-1.3143,-1.3137,-1.3073,-1.2934,0.0,0.0,0.0,0.0,0.0,0.0,0.0,0.0,0.0,0.0,0.0,0.0,0.0,0.0,0.0,0.0,0.0,0.0,0.0,0.0,0.0,0.0,0.0,0.0,0.0,0.0,0.0,0.0,0.0,0.0,0.0,0.0,0.0,0.0,0.0,0.0,0.0,0.0,0.0,0.0,0.0,-1.1878,-1.2667,-1.3329,-1.4094,0.0,0.0,-1.5737,-1.6028,-1.6381,0.0,0.0,0.0,0.0,0.0,0.0,0.0,0.0,0.0,0.0,0.0,0.0,0.0,0.0,0.0,0.0,0.0,0.0,0.0,0.0,0.0,0.0,0.0,0.0,0.0,0.0,0.0,0.0,0.0,0.0,0.0,0.0,0.0,0.0,0.0,0.0,0.0,0.0,0.0,0.0,0.0,0.0,0.0,0.0,0.0,0.0,0.0,0.0,0.0,0.0,0.0,0.0,0.0,0.0,0.0,-1.0565,-1.1123,-1.1524,-1.1937,-1.2522,-1.2796,-1.2893,-1.2912,-1.2705,-1.2419,0.0,0.0,0.0,0.0,0.0,0.0,0.0,0.0,0.0,0.0,0.0,0.0,0.0,0.0,0.0,0.0,0.0,0.0,0.0,0.0,0.0,0.0,0.0,0.0,0.0,0.0,0.0,0.0,0.0,0.0,0.0,0.0,0.0,0.0,0.0,0.0,0.0,0.0,0.0,0.0,0.0,0.0,-1.3335,-1.3934,0.0,0.0,0.0,-1.5923,-1.615,0.0,0.0,0.0,0.0,0.0,0.0,0.0,0.0,0.0,0.0,0.0,0.0,0.0,0.0,0.0,0.0,0.0,0.0,0.0,0.0,0.0,0.0,0.0,0.0,0.0,0.0,0.0,0.0,0.0,0.0,0.0,0.0,0.0,0.0,0.0,0.0,0.0,0.0,0.0,0.0,0.0,0.0,0.0,0.0,0.0,0.0,0.0,0.0,0.0,0.0,0.0,0.0,0.0,0.0,0.0,0.0,0.0,-1.1288,-1.1626,-1.2091,-1.2613,-1.2699,-1.2662,-1.2496,-1.2252,0.0,0.0,0.0,0.0,0.0,0.0,0.0,0.0,0.0,0.0,0.0,0.0,0.0,0.0,0.0,0.0,0.0,0.0,0.0,0.0,0.0,0.0,0.0,0.0,0.0,0.0,0.0,-0.4858,0.0,0.0,0.0,0.0,0.0,0.0,0.0,0.0,0.0,0.0,0.0,0.0,0.0,0.0,-1.343,-1.4195,-1.4814,-1.5509,0.0,0.0,-1.637,-1.6375,-1.6041,-1.5536,0.0,0.0,0.0,0.0,0.0,0.0,0.0,0.0,0.0,0.0,0.0,0.0,0.0,0.0,0.0,0.0,0.0,0.0,0.0,0.0,0.0,0.0,0.0,0.0,0.0,0.0,0.0,0.0,0.0,0.0,0.0,0.0,0.0,0.0,0.0,0.0,0.0,0.0,0.0,0.0,0.0,0.0,0.0,0.0,0.0,0.0,0.0,0.0,0.0,0.0,0.0,0.0,0.0,0.0,0.0,-1.1288,-1.1708,-1.21,-1.2448,-1.2619,-1.2493,-1.207,-1.1746,-1.142,0.0,0.0,0.0,0.0,0.0,0.0,0.0,0.0,0.0,0.0,0.0,0.0,0.0,0.0,0.0,0.0,0.0,0.0,0.0,0.0,0.0,0.0,0.0,0.0,0.0,0.0,0.0,0.0,0.0,0.0,0.0,0.0,0.0,0.0,0.0,0.0,0.0,0.0,0.0,0.0,0.0,-1.4556,-1.5243,-1.609,-1.6873,0.0,0.0,-1.7267,-1.7071,-1.6628,-1.5959,-1.5223,0.0,0.0,0.0,0.0,0.0,0.0,0.0,0.0,0.0,0.0,0.0,0.0,0.0,0.0,0.0,0.0,0.0,0.0,0.0,0.0,0.0,0.0,0.0,0.0,0.0,0.0,0.0,0.0,0.0,0.0,0.0,0.0,0.0,0.0,0.0,0.0,0.0,0.0,0.0,0.0,0.0,0.0,0.0,0.0,0.0,0.0,0.0,0.0,0.0,0.0,0.0,0.0,0.0,-1.0974,-1.1316,-1.1657,-1.1957,-1.2123,-1.2203,-1.2012,-1.1595,-1.1491,-1.109,0.0,0.0,0.0,0.0,0.0,0.0,0.0,0.0,0.0,0.0,0.0,0.0,0.0,0.0,0.0,0.0,0.0,0.0,0.0,0.0,0.0,0.0,0.0,0.0,0.0,0.0,0.0,0.0,-0.592,-0.6443,-0.7407,0.0,0.0,0.0,0.0,0.0,0.0,0.0,0.0,0.0,0.0,-1.543,-1.6401,-1.6981,0.0,0.0,-1.7774,-1.7486,-1.7379,-1.6491,-1.5647,-1.5155,-1.4316,0.0,0.0,0.0,0.0,0.0,0.0,0.0,0.0,0.0,0.0,0.0,0.0,0.0,0.0,0.0,0.0,0.0,0.0,0.0,0.0,0.0,0.0,0.0,0.0,0.0,0.0,0.0,0.0,0.0,0.0,0.0,0.0,0.0,0.0,0.0,0.0,0.0,0.0,0.0,0.0,0.0,0.0,0.0,0.0,0.0,0.0,0.0,0.0,0.0,0.0,0.0,0.0,-1.1104,-1.1264,-1.161,-1.1791,-1.1871,-1.1952,-1.1747,-1.1328,-1.1162,-1.0841,0.0,0.0,0.0,0.0,0.0,0.0,0.0,0.0,0.0,0.0,0.0,0.0,0.0,0.0,0.0,0.0,0.0,0.0,0.0,0.0,0.0,0.0,0.0,0.0,0.0,0.0,0.0,0.0,-0.6786,-0.7422,-0.8271,0.0,0.0,0.0,0.0,0.0,0.0,0.0,0.0,0.0,0.0,-1.6487,-1.751,-1.7904,-1.8221,-1.8527,-1.8076,-1.7599,-1.7385,-1.6367,-1.542,-1.5134,0.0,0.0,0.0,0.0,0.0,0.0,0.0,0.0,0.0,0.0,0.0,0.0,0.0,0.0,0.0,0.0,0.0,0.0,0.0,0.0,0.0,0.0,0.0,0.0,0.0,0.0,0.0,0.0,0.0,0.0,0.0,0.0,0.0,0.0,0.0,0.0,0.0,0.0,0.0,0.0,0.0,0.0,0.0,0.0,0.0,0.0,0.0,0.0,0.0,0.0,0.0,0.0,0.0,-1.1106,-1.1251,-1.1527,-1.1705,-1.1705,-1.1871,-1.1742,-1.1305,-1.092,-1.0445,-0.9959,0.0,0.0,0.0,0.0,0.0,0.0,0.0,0.0,0.0,0.0,0.0,0.0,0.0,0.0,0.0,0.0,0.0,0.0,0.0,0.0,0.0,0.0,0.0,0.0,0.0,0.0,-0.6792,-0.7848,-0.8794,0.0,0.0,0.0,0.0,0.0,0.0,0.0,0.0,0.0,0.0,-1.6653,-1.7837,-1.8673,-1.906,-1.9242,-1.9235,-1.852,-1.7796,-1.7174,-1.6194,-1.5396,0.0,0.0,0.0,0.0,0.0,0.0,0.0,0.0,0.0,0.0,0.0,0.0,0.0,0.0,0.0,0.0,0.0,0.0,0.0,0.0,0.0,0.0,0.0,0.0,0.0,0.0,0.0,-1.0154,-1.013,0.0,0.0,0.0,0.0,0.0,0.0,0.0,0.0,0.0,0.0,0.0,-1.0724,-1.098,0.0,0.0,0.0,0.0,0.0,0.0,0.0,0.0,0.0,0.0,0.0,0.0,-1.0992,-1.13,-1.1261,-1.1342,-1.1486,-1.1348,-1.115,-1.0658,-1.0325,-0.9871,-0.9192,0.0,0.0,0.0,0.0,0.0,0.0,0.0,0.0,0.0,0.0,0.0,0.0,0.0,0.0,0.0,0.0,0.0,0.0,0.0,0.0,0.0,0.0,0.0,0.0,0.0,-0.7404,0.0,0.0,0.0,0.0,0.0,0.0,0.0,0.0,0.0,0.0,0.0,-1.5307,-1.6283,-1.7428,-1.8359,-1.9081,-1.9102,-1.9071,0.0,0.0,0.0,0.0,0.0,0.0,0.0,0.0,0.0,0.0,0.0,0.0,0.0,0.0,-1.2966,-1.2713,-1.3172,-1.3696,-1.3885,0.0,0.0,0.0,0.0,0.0,0.0,0.0,0.0,0.0,0.0,0.0,0.0,0.0,0.0,0.0,0.0,-1.0016,0.0,0.0,0.0,0.0,0.0,0.0,0.0,0.0,-1.0692,-1.0755,-1.0755,-1.1018,-1.1145,0.0,-1.1052,-1.0808,0.0,0.0,0.0,0.0,0.0,0.0,0.0,0.0,-1.1038,-1.1176,-1.1049,-1.0954,-1.1081,-1.0889,-1.0619,-1.0287,-0.9795,-0.9229,-0.8417,-0.8163,-0.7761,0.0,0.0,0.0,0.0,0.0,0.0,0.0,0.0,0.0,0.0,0.0,0.0,0.0,0.0,0.0,0.0,0.0,0.0,0.0,0.0,0.0,0.0,0.0,-0.8396,0.0,0.0,0.0,0.0,0.0,0.0,0.0,0.0,0.0,-1.4388,-1.5165,-1.6082,-1.6965,-1.7949,-1.8729,-1.925,0.0,0.0,0.0,0.0,0.0,0.0,0.0,-1.5106,-1.4679,-1.435,-1.3832,-1.3519,-1.3213,-1.2924,-1.2526,0.0,0.0,-1.2931,-1.3414,-1.3942,-1.414,-1.4337,-1.4746,-1.5469,-1.5997,-1.6503,0.0,0.0,0.0,0.0,0.0,0.0,0.0,0.0,-1.0259,-1.0072,0.0,-0.9766,0.0,0.0,0.0,0.0,0.0,0.0,0.0,0.0,-1.0612,-1.0608,-1.0641,-1.0834,-1.0829,-1.0924,-1.0824,-1.0819,-1.0896,-1.0875,0.0,0.0,0.0,0.0,0.0,0.0,-1.1129,-1.0857,-1.0842,-1.075,-1.0477,-1.029,-1.0182,-1.0069,-0.9252,-0.8539,-0.7863,-0.745,-0.704,-0.6622,-0.5951,0.0,0.0,0.0,0.0,0.0,0.0,0.0,0.0,0.0,0.0,0.0,0.0,0.0,0.0,0.0,0.0,0.0,0.0,0.0,0.0,-0.8306,0.0,0.0,0.0,0.0,0.0,0.0,0.0,0.0,0.0,0.0,-1.5134,-1.585,-1.6726,-1.7524,0.0,0.0,0.0,0.0,-1.822,-1.8016,-1.6955,-1.6217,-1.5885,-1.5137,-1.46,-1.46,0.0,0.0,-1.3418,-1.3315,-1.3088,-1.255,-1.2989,-1.3315,-1.3305,-1.3722,-1.4272,-1.4482,-1.4674,-1.5013,-1.5773,-1.6393,-1.7054,-1.1554,0.0,0.0,0.0,0.0,-1.0956,-1.0755,-1.0453,-1.0453,-1.0175,-0.9743,-0.962,0.0,0.0,0.0,0.0,0.0,0.0,-1.0405,-1.0738,-1.0881,-1.1123,-1.1463,-1.1419,-1.1447,-1.1548,-1.1202,-1.1042,-1.1033,-1.0728,-1.0455,-1.0219,0.0,0.0,0.0,0.0,-1.0268,-1.0297,-1.0175,-0.9988,-0.9931,-0.966,-0.9313,-0.8725,-0.8328,-0.7868,-0.7193,-0.6773,-0.6348,-0.6005,-0.5408,0.0,0.0,0.0,0.0,0.0,0.0,0.0,0.0,0.0,0.0,0.0,0.0,0.0,0.0,0.0,0.0,0.0,0.0,0.0,-0.8645,-0.9237,-0.9853,0.0,0.0,0.0,0.0,0.0,0.0,0.0,0.0,0.0,-1.5929,-1.656,-1.7237,0.0,0.0,-1.852,-1.8436,-1.8115,-1.7582,-1.6855,0.0,0.0,0.0,-1.4606,-1.4277,-1.3964,-1.3748,-1.3532,-1.3315,-1.332,-1.3207,-1.3098,-1.3315,-1.3537,-1.364,-1.3867,-1.4191,-1.4299,-1.4611,-1.4928,-1.547,-1.6144,-1.6763,-1.04,-1.0864,-1.0724,-1.078,-1.0776,-1.0468,-1.0256,-0.9947,-0.9839,-0.9573,-0.9263,-0.9165,-0.9067,-0.9065,-0.9367,0.0,0.0,0.0,-1.0432,-1.0842,-1.0963,-1.1187,-1.1399,-1.1399,-1.1394,-1.139,-1.1105,-1.0914,-1.0909,-1.041,-1.0006,-0.9975,0.0,0.0,-0.9571,-0.9647,-0.9736,-0.974,-0.9548,-0.9444,-0.9352,-0.8993,-0.8512,-0.7731,-0.7455,-0.7071,-0.6576,-0.6141,-0.5709,-0.5354,-0.492,-0.4421,0.0,0.0,0.0,0.0,0.0,0.0,0.0,0.0,0.0,0.0,0.0,-0.4921,-0.5277,0.0,0.0,0.0,-0.7756,-0.8609,-0.9464,-0.9839,0.0,0.0,0.0,0.0,0.0,0.0,0.0,-1.4042,-1.4749,-1.5328,-1.5756,-1.6308,-1.6971,-1.7575,-1.7799,-1.7799,-1.7483,0.0,-1.663,-1.5897,-1.5464,-1.503,-1.439,-1.4067,-1.3959,-1.3862,-1.3753,-1.3645,-1.3423,-1.3423,-1.3423,-1.3315,-1.3532,-1.3748,-1.3748,-1.3975,-1.4196,-1.4196,-1.4396,-1.4708,-1.5137,-1.5803,-1.6402,-0.8907,-0.8789,-0.9587,-0.9886,-0.9987,-0.9673,-0.9362,-0.9046,-0.8832,-0.8506,-0.8282,-0.8286,-0.8384,-0.8685,-0.9321,0.0,-1.0364,-1.0468,-1.0573,-1.0906,-1.0906,-1.0915,-1.0924,-1.0928,-1.0928,-1.1028,-1.083,-1.0632,-1.0623,-0.9921,-0.9529,-0.943,-0.9723,-0.9637,-0.9292,-0.9441,-0.9327,-0.9133,-0.9031,-0.8928,-0.8722,-0.8272,-0.7767,-0.6948,-0.6645,-0.6397,-0.6017,-0.5552,-0.5104,-0.4659,-0.4389,-0.4032,-0.3587,0.0,0.0,0.0,0.0,0.0,0.0,0.0,0.0,0.0,0.0,0.0,0.0,0.0,0.0,0.0,-0.8652,0.0,-0.9921,-1.0224,0.0,0.0,0.0,-1.1671,-1.2558,-1.292,-1.3328,-1.3788,0.0,0.0,-1.4995,0.0,-1.6099,-1.6855,-1.7067,-1.6955,-1.663,-1.6205,-1.5678,-1.5148,-1.46,-1.4169,-1.3856,-1.3748,-1.3862,-1.4088,-1.4196,-1.4083,-1.3862,-1.3748,-1.3645,-1.3532,-1.364,-1.3856,-1.3856,-1.4083,-1.4196,-1.4191,-1.4169,-1.4369,-1.4928,-1.5511,-1.6065,-0.779,-0.7593,-0.7862,-0.8381,-0.9145,-0.8927,-0.8603,-0.8275,-0.8053,-0.7666,-0.7251,-0.7248,-0.7517,-0.7947,-0.8479,-0.8898,-0.9209,-0.963,-1.0124,-1.0563,-1.0788,-1.1078,-1.1428,-1.1432,-1.154,-1.1635,-1.0985,-1.0406,-1.0182,-0.9578,-0.9034,-0.8435,-0.8435,-0.8513,-0.8576,-0.8612,-0.8432,-0.8028,-0.8031,-0.7832,-0.7627,-0.7403,-0.7012,-0.6469,-0.6185,-0.5799,-0.5137,-0.4788,-0.4387,-0.4117,-0.3673,-0.3406,-0.3315,-0.3051,0.0,0.0,0.0,0.0,0.0,0.0,0.0,0.0,0.0,-0.5899,-0.6523,0.0,-0.7316,0.0,-0.9212,-0.9921,-1.0388,-1.0645,0.0,0.0,-1.1473,-1.1805,-1.2104,-1.2663,-1.3162,-1.3498,-1.3892,-1.4201,-1.4377,-1.4561,-1.4702,-1.4922,-1.5672,-1.6099,-1.5779,-1.5672,-1.5351,-1.4821,-1.4606,-1.439,-1.4078,-1.3862,-1.3867,-1.4104,-1.398,-1.397,-1.4283,-1.439,-1.439,-1.4611,-1.4606,-1.4611,-1.4509,-1.4509,-1.4396,-1.4299,-1.4186,-1.4396,-1.4934,-1.5526,-1.6042,-0.6935,-0.6826,-0.6826,-0.7157,-0.7712,-0.7709,-0.7601,-0.7379,-0.7157,-0.6895,-0.6618,-0.6942,-0.7125,-0.7492,-0.8138,-0.8572,-0.8887,-0.9433,-0.9915,-1.0321,-1.0654,-1.0929,-1.124,-1.124,-1.124,-1.1126,-1.0621,-1.0063,-0.9625,-0.9072,-0.8438,-0.7824,-0.7661,-0.7529,-0.7428,-0.7669,-0.7733,-0.7434,-0.7434,-0.7338,-0.7039,-0.6773,-0.6516,-0.6166,-0.5703,-0.5218,-0.4625,-0.4349,-0.3944,-0.3583,-0.3315,-0.3138,-0.305,-0.2963,-0.3053,0.0,0.0,0.0,0.0,0.0,0.0,0.0,0.0,0.0,0.0,0.0,-0.8076,-0.905,-0.979,-1.0402,-1.0697,-1.0825,-1.0929,-1.1023,-1.1321,-1.1654,-1.1841,-1.225,-1.257,-1.3098,-1.3336,-1.3495,-1.3727,-1.3851,-1.3846,-1.3959,-1.4493,-1.4928,-1.4922,-1.4922,-1.4708,-1.4288,-1.4175,-1.4175,-1.3948,-1.3954,-1.4072,-1.4407,-1.4407,-1.439,-1.4713,-1.4815,-1.4821,-1.4934,-1.5041,-1.4934,-1.4821,-1.4821,-1.4713,-1.4498,-1.4277,-1.4379,-1.4928,-1.5503,-1.6103,-0.6163,-0.6272,-0.6272,-0.6272,-0.6274,-0.6492,-0.6604,-0.6601,-0.6383,-0.6272,-0.6386,-0.6935,-0.7154,-0.7154,-0.8045,-0.8592,-0.8809,-0.946,-0.9892,-1.0221,-1.0417,-1.0514,-1.0518,-1.0518,-1.0409,-1.0183,-0.9904,-0.9507,-0.8773,-0.8418,-0.7935,-0.7416,-0.7102,-0.6641,-0.6231,-0.6726,-0.7054,-0.7138,-0.7138,-0.6939,-0.6742,-0.6439,-0.6189,-0.5796,-0.5209,-0.4731,-0.4362,-0.4004,-0.3597,-0.3227,-0.3138,-0.3054,-0.2884,-0.2884,-0.3159,0.0,-0.3679,0.0,0.0,0.0,0.0,0.0,0.0,0.0,0.0,-0.831,-0.8934,-0.9762,-1.0245,-1.0609,-1.0815,-1.0838,-1.0908,-1.1082,-1.1111,-1.1221,-1.1592,-1.1714,-1.1926,-1.2753,-1.2772,-1.2881,-1.3098,-1.3212,-1.3315,-1.3532,-1.3645,-1.3856,-1.4169,-1.4277,-1.4175,-1.3856,-1.3856,-1.4062,-1.3932,-1.4153,-1.4493,-1.4928,-1.5035,-1.5143,-1.5244,-1.525,-1.525,-1.525,-1.525,-1.5143,-1.4917,-1.503,-1.5035,-1.4922,-1.4578,-1.4572,-1.5035,-1.5624,-1.6172,-0.5714,-0.5933,-0.5933,-0.6047,-0.6274,-0.6386,-0.6272,-0.5935,-0.5933,-0.6047,-0.6274,-0.6604,-0.6824,-0.6826,-0.7709,-0.8156,-0.8257,-0.8913,-0.9291,-0.9395,-0.9587,-0.9636,-0.9636,-0.9633,-0.9633,-0.9519,-0.9146,-0.8294,-0.712,-0.7431,-0.722,-0.6579,-0.6453,-0.6238,-0.6025,0.0,0.0,0.0,-0.6537,-0.6437,-0.6142,-0.6142,-0.5832,-0.5311,-0.4925,0.0,-0.3984,-0.3627,-0.3285,-0.2966,-0.2963,0.0,0.0,0.0,0.0,0.0,0.0,0.0,0.0,0.0,0.0,0.0,-0.7455,-0.7865,-0.8214,-0.8854,-0.9397,-0.9759,-1.007,-1.0249,-1.044,-1.0458,-1.0471,-1.0516,-1.0826,-1.1057,-1.1101,-1.1403,-1.1746,-1.2105,-1.2223,-1.2223,-1.255,-1.2767,-1.2989,-1.3098,-1.3212,-1.3635,-1.4169,-1.418,-1.4293,-1.4385,-1.4606,-1.4713,-1.4583,-1.4696,-1.5125,-1.5815,-1.5903,-1.5879,-1.6174,-1.628,-1.6405,-1.6293,-1.6211,-1.5992,-1.5672,-1.5577,-1.5374,-1.5273,-1.5035,-1.4922,-1.5369,-1.6047,-1.6593,-0.5938,0.0,-0.6047,-0.6161,0.0,-0.6272,-0.6272,-0.627,-0.6158,-0.6161,-0.6274,-0.6715,-0.6935,-0.693,-0.7758,-0.8166,-0.8163,-0.8773,-0.9019,-0.9016,-0.9151,-0.9223,-0.9223,-0.9119,-0.88,-0.8479,-0.8626,-0.7922,-0.6653,-0.6711,-0.6424,-0.5884,-0.5838,-0.56,-0.5384,-0.5459,-0.5848,-0.6239,-0.6239,-0.6139,-0.6042,-0.5741,-0.5438,-0.5035,0.0,0.0,0.0,0.0,0.0,0.0,0.0,0.0,0.0,0.0,0.0,-0.3428,-0.3559,-0.3966,-0.4546,-0.521,-0.5857,-0.6741,-0.7328,-0.7952,-0.8379,-0.9029,-0.9486,-0.966,-1.0074,-1.0312,-1.04,-1.0413,-1.0413,-1.0426,-1.0575,-1.0647,-1.0686,-1.0877,-1.1207,-1.1549,-1.1729,-1.2001,-1.2545,-1.2772,-1.3098,-1.3527,-1.3635,-1.3948,-1.4385,-1.439,-1.4288,-1.4713,-1.5035,-1.5198,-1.5076,-1.527,-1.5545,-1.6087,-1.6031,-1.6019,-1.6219,-1.6323,-1.6367,-1.6488,-1.6329,-1.6045,-1.5962,-1.5785,-1.569,-1.5583,-1.547,-1.5571,-1.5797,-1.6367,-1.67,-0.6386,-0.6497,-0.6495,-0.6609,-0.6606,-0.6606,-0.6715,-0.6937,0.0,0.0,0.0,-0.7157,-0.7365,-0.7337,-0.8007,-0.8268,-0.8236,-0.8618,-0.8751,-0.8751,-0.8619,-0.8609,-0.8609,-0.8297,-0.7893,-0.7392,-0.8033,-0.759,-0.6322,-0.5997,-0.561,-0.5246,-0.5082,-0.493,-0.4798,-0.5079,-0.5467,-0.5675,-0.5849,-0.5839,-0.5741,-0.5338,-0.4937,-0.4634,-0.4371,-0.3937,-0.3433,-0.3235,-0.3078,-0.2883,-0.2881,-0.2887,-0.2897,-0.2942,-0.307,-0.3276,-0.3422,-0.3747,-0.4438,-0.4798,-0.5441,-0.6234,-0.7033,-0.7779,-0.8448,-0.8922,-0.9267,-0.9414,-0.992,-1.0117,-1.0216,-1.0216,-1.0212,-1.022,-1.0292,-1.0209,-1.0226,-1.0389,-1.0703,-1.1146,-1.1469,-1.19,-1.2641,-1.2851,-1.3194,-1.3933,-1.4109,-1.4467,-1.491,-1.4748,-1.4685,-1.5068,-1.5465,-1.5605,-1.5487,-1.5628,-1.5863,-1.5999,-1.6042,-1.601,-1.6004,-1.601,-1.61,-1.6414,-1.6156,-1.6056,-1.6051,-1.6001,-1.5943,-1.5986,-1.5986,-1.5986,-1.6324,-1.6681,-1.6906,-0.694,-0.7385,-0.7385,-0.7604,-0.7712,-0.7712,-0.7823,-0.7823,-0.7493,-0.7493,-0.7712,-0.7823,-0.7871,-0.7759,-0.8072,-0.8217,-0.8088,-0.8046,-0.8084,0.0,-0.7351,-0.7095,-0.7098,-0.679,-0.6441,-0.6017,-0.6445,-0.6132,-0.5114,-0.513,-0.5066,-0.4693,-0.4582,-0.4543,-0.4371,-0.4605,-0.473,-0.4751,-0.5381,-0.5436,-0.4935,-0.4935,-0.4636,-0.4131,-0.3825,-0.3492,-0.3142,-0.2927,-0.2607,-0.2378,-0.228,-0.2391,-0.2429,-0.2437,-0.2559,-0.2899,-0.3112,-0.3419,-0.3721,-0.4234,-0.4839,-0.5634,-0.6439,-0.7232,-0.8011,-0.8403,-0.8605,-0.8924,-0.9027,-0.9126,-0.9331,-0.943,-0.9529,-0.9735,-0.9879,-0.9985,-0.9985,-1.0376,-1.0719,-1.1037,-1.1467,-1.1921,-1.2362,-1.2977,-1.3402,-1.3583,-1.4258,-1.4715,-1.5203,-1.5491,-1.5547,-1.5509,-1.586,-1.6053,-1.5833,-1.5866,-1.6036,-1.6231,-1.6179,-1.624,-1.6427,-1.6434,-1.6473,-1.6559,-1.6371,-1.6285,-1.642,-1.638,-1.626,-1.6424,-1.6137,-1.6025,-1.6505,-1.6987,-1.7324,-0.7601,-0.7826,-0.7826,-0.7934,-0.8045,-0.8152,-0.8266,-0.8266,-0.8269,-0.8162,-0.8045,-0.8152,-0.8229,-0.8156,-0.8233,-0.8175,-0.8172,-0.7641,-0.7483,-0.7437,-0.666,-0.6329,-0.6225,-0.5808,-0.5417,-0.4938,-0.5365,-0.5116,-0.4144,-0.3931,-0.3744,-0.3692,-0.3696,-0.3794,-0.3875,-0.3991,-0.3923,-0.389,-0.4602,-0.4736,-0.4332,-0.4232,-0.393,-0.3328,-0.3229,-0.3016,-0.2691,-0.2564,-0.2442,-0.2229,-0.2228,-0.2236,-0.2254,-0.2376,-0.2399,-0.2622,-0.2826,-0.313,-0.3332,-0.4135,-0.4736,-0.5135,-0.5939,-0.6539,-0.7138,-0.7736,-0.8333,-0.8531,-0.8726,-0.8829,-0.8931,-0.9133,-0.9232,-0.9331,-0.9602,-0.9842,-0.9962,-1.0213,-1.063,-1.1155,-1.155,-1.2024,-1.2751,-1.3254,-1.3873,-1.4185,-1.4892,-1.5392,-1.5683,-1.5902,-1.6047,-1.5825,-1.5998,-1.6188,-1.5944,-1.6077,-1.6117,-1.6077,-1.6038,-1.6038,-1.6226,-1.6239,-1.6208,-1.6236,-1.6084,-1.6002,-1.6253,-1.5986,-1.6003,-1.6321,-1.6162,-1.6193,-1.6554,-1.6961,-1.7073,-0.8156,-0.8156,-0.8159,-0.8159,-0.8269,-0.8488,-0.8595,-0.8484,-0.8712,-0.8491,-0.8045,-0.8374,-0.8468,-0.8417,-0.821,-0.8052,-0.7981,-0.7168,-0.692,-0.679,-0.6059,-0.5636,-0.553,-0.5,-0.448,-0.4176,-0.4395,-0.4218,-0.3292,-0.2747,-0.2655,-0.3023,-0.3026,-0.3139,-0.3362,-0.3264,-0.3208,-0.3293,-0.3715,-0.3849,-0.3732,-0.3528,-0.3226,-0.2724,-0.2725,-0.2623,-0.232,-0.2288,-0.2172,-0.2171,-0.2172,-0.2172,-0.2173,-0.2202,-0.2321,-0.2422,-0.2623,-0.2927,-0.3331,-0.4133,-0.4634,-0.4834,-0.5539,-0.6039,-0.6537,-0.7238,-0.7939,-0.8233,-0.8432,-0.863,-0.873,-0.8931,-0.9137,-0.9232,-0.943,-0.9735,-0.9937,-1.0254,-1.0641,-1.1367,-1.1788,-1.2379,-1.3105,-1.3606,-1.4182,-1.4983,-1.5519,-1.5818,-1.5918,-1.6017,-1.6123,-1.603,-1.6076,-1.6203,-1.5953,-1.5985,-1.6086,-1.5852,-1.5845,-1.5783,-1.5777,-1.5757,-1.5714,-1.5738,-1.5589,-1.5515,-1.5738,-1.5607,-1.572,-1.6151,-1.6337,-1.6426,-1.6441,-1.6474,-1.6511,-0.8598,-0.8826,-0.8826,-0.8826,-0.883,-0.8826,-0.8709,-0.8484,-0.8484,-0.8377,-0.8045,-0.8374,-0.8417,-0.8307,-0.7942,-0.766,-0.7258,-0.6685,-0.6263,-0.596,-0.5104,-0.468,-0.4689,-0.4154,-0.3758,-0.3591,-0.3488,-0.33,-0.2793,-0.2235,-0.224,-0.2693,-0.2693,-0.2693,-0.2799,-0.2752,-0.2705,-0.2664,-0.2717,-0.2771,-0.293,-0.2927,-0.2725,-0.2422,-0.2422,-0.2321,-0.2021,-0.2017,-0.1915,-0.1713,-0.1712,-0.1611,-0.1713,-0.1716,-0.1918,-0.2321,-0.2422,-0.2725,-0.3534,-0.3835,-0.4334,-0.4734,-0.5336,-0.5937,-0.6642,-0.7042,-0.7441,-0.7643,-0.7939,-0.8237,-0.8432,-0.873,-0.8931,-0.9133,-0.9434,-0.9727,-1.0023,-1.0426,-1.0833,-1.1128,-1.2071,-1.2731,-1.2975,-1.3659,-1.4509,-1.5332,-1.5538,-1.5634,-1.5813,-1.5813,-1.5903,-1.5909,-1.6042,-1.6082,-1.5876,-1.5872,-1.5879,-1.5832,-1.5825,-1.573,-1.5635,-1.554,-1.5471,-1.5249,-1.5153,-1.5171,-1.5329,-1.5541,-1.5531,-1.589,-1.6341,-1.6987,-1.6317,-1.5915,-1.5968,-0.8823,-0.8937,-0.8937,-0.8937,-0.8937,-0.8712,-0.8595,-0.8484,-0.8266,-0.8045,-0.7826,-0.7712,-0.7793,-0.7853,-0.7451,-0.7094,-0.6676,-0.5966,-0.5541,-0.5263,-0.4388,-0.406,-0.3951,-0.3404,-0.2979,-0.2774,-0.2887,-0.2673,-0.2241,-0.1907,-0.1907,-0.2132,-0.2132,-0.2132,-0.2127,-0.2074,-0.2038,-0.2023,-0.1969,-0.2035,-0.2123,-0.2222,-0.2222,-0.1918,-0.1919,-0.1919,-0.1819,-0.1718,-0.1718,-0.1617,-0.1617,-0.1617,-0.1617,-0.1718,-0.192,-0.2222,-0.2624,-0.3229,-0.4038,-0.4334,-0.4636,-0.5037,-0.5539,-0.6039,-0.6539,-0.6939,-0.7338,-0.7543,-0.7839,-0.8038,-0.8134,-0.8432,-0.8627,-0.8928,-0.9229,-0.9628,-1.0216,-1.0609,-1.0998,-1.1585,-1.237,-1.2958,-1.3249,-1.4016,-1.4783,-1.535,-1.5547,-1.554,-1.573,-1.573,-1.5635,-1.5655,-1.5665,-1.5671,-1.575,-1.5825,-1.5825,-1.5737,-1.5629,-1.5439,-1.5445,-1.5363,-1.5172,-1.4688,-1.4592,-1.4527,-1.4528,-1.457,-1.4637,-1.5103,-1.5509,-1.5931,-1.5463,-1.527,-1.5108,-0.8826,-0.8823,-0.8716,-0.8605,-0.8605,-0.8377,-0.8152,-0.8152,-0.7823,-0.7493,-0.7049,-0.6935,-0.6821,-0.6813,-0.6741,-0.6418,-0.5913,-0.5196,-0.4761,-0.4479,-0.3699,-0.3363,-0.3253,-0.2805,-0.2468,-0.2244,-0.2355,-0.2243,-0.1795,-0.1795,-0.1795,-0.1795,-0.1795,-0.1795,-0.179,-0.1742,-0.1712,-0.1701,-0.1654,-0.1626,-0.1618,-0.1819,-0.1819,-0.1617,-0.1617,-0.1617,-0.1617,-0.1617,-0.1617,-0.1718,-0.1718,-0.1718,-0.1818,-0.202,-0.2222,-0.2425,-0.313,-0.3835,-0.4437,-0.4836,-0.5135,-0.5539,-0.5942,-0.6342,-0.6739,-0.7039,-0.7441,-0.7643,-0.7839,-0.8038,-0.8038,-0.8233,-0.8528,-0.8726,-0.913,-0.9628,-1.0413,-1.0801,-1.1292,-1.2073,-1.2667,-1.3249,-1.3732,-1.4304,-1.4879,-1.5261,-1.5356,-1.5452,-1.5547,-1.5452,-1.5356,-1.5356,-1.5178,-1.5178,-1.5547,-1.5757,-1.5757,-1.5547,-1.5248,-1.5045,-1.5153,-1.4879,-1.4496,-1.401,-1.3913,-1.3829,-1.367,-1.3659,-1.3556,-1.3999,-1.4435,-1.4562,-1.4487,-1.4323,-1.4287,-0.8712,-0.8488,-0.8156,-0.8045,-0.8045,-0.7715,-0.749,-0.7265,-0.6935,-0.649,-0.5933,-0.5933,-0.5599,-0.5154,-0.5588,-0.5483,-0.4927,-0.4359,-0.3913,-0.3699,-0.3029,-0.2693,-0.2693,-0.2356,-0.2244,-0.2132,-0.2019,-0.1907,-0.1795,-0.1795,-0.1795,-0.1795,-0.1795,-0.1795,-0.179,-0.176,-0.1732,-0.1703,-0.1671,-0.1644,-0.1621,-0.1617,-0.1617,-0.1617,-0.1617,-0.1617,-0.1617,-0.1617,-0.1718,-0.2021,-0.2021,-0.2121,-0.2321,-0.2422,-0.2623,-0.3128,-0.3934,-0.4438,-0.4834,-0.5336,-0.5837,-0.6237,-0.6542,-0.6945,-0.7344,-0.7543,-0.7643,-0.7939,-0.7939,-0.8038,-0.8038,-0.8233,-0.8531,-0.8821,-0.9225,-0.992,-1.0703,-1.1194,-1.1883,-1.2565,-1.3152,-1.3732,-1.4502,-1.4694,-1.479,-1.4981,-1.5083,-1.5083,-1.5172,-1.5077,-1.5077,-1.4981,-1.4885,-1.4783,-1.5083,-1.5287,-1.5395,-1.5185,-1.4669,-1.437,-1.4184,-1.4004,-1.3522,-1.3232,-1.3044,-1.2948,-1.2856,-1.2856,-1.2764,-1.2992,-1.3149,-1.326,-1.3302,-1.3372,-1.3365,-0.8266,-0.8152,-0.7823,-0.7715,-0.7718,-0.7271,-0.6824,-0.6596,-0.6267,-0.5822,-0.5264,-0.5264,-0.4931,-0.4372,-0.437,-0.4258,-0.4035,-0.3811,-0.3475,-0.303,-0.258,-0.2356,-0.2356,-0.2131,-0.1907,-0.1907,-0.1907,-0.1795,-0.1795,-0.1795,-0.1795,-0.1795,-0.1795,-0.1795,-0.1786,-0.1746,-0.1714,-0.17,-0.1658,-0.1628,-0.1618,-0.1617,-0.1617,-0.1819,-0.1819,-0.1819,-0.1819,-0.202,-0.212,-0.2221,-0.2221,-0.2422,-0.2623,-0.3127,-0.3629,-0.4234,-0.4836,-0.5336,-0.5737,-0.6137,-0.6539,-0.6839,-0.7039,-0.7241,-0.7547,-0.7643,-0.7743,-0.7942,-0.8038,-0.8038,-0.8038,-0.8137,-0.8336,-0.8726,-0.913,-0.9723,-1.0609,-1.1296,-1.1883,-1.2662,-1.3346,-1.3925,-1.4304,-1.4394,-1.4586,-1.479,-1.4694,-1.4688,-1.4783,-1.4586,-1.4298,-1.4298,-1.4016,-1.3727,-1.3727,-1.4406,-1.47,-1.4394,-1.4082,-1.3692,-1.3499,-1.3136,-1.2657,-1.2457,-1.217,-1.1878,-1.1878,-1.178,-1.178,-1.1815,-1.1954,-1.2118,-1.2059,-1.2343,-1.2467,-0.7598,-0.749,-0.7271,-0.7051,-0.6937,-0.649,-0.6156,-0.5819,-0.5373,-0.4929,-0.4482,-0.4369,-0.4035,-0.3589,-0.3365,-0.3253,-0.3139,-0.3139,-0.2917,-0.2581,-0.2244,-0.2019,-0.2019,-0.1907,-0.1795,-0.1795,-0.1795,-0.1795,-0.1795,-0.1795,-0.1795,-0.1795,-0.1795,-0.1795,-0.1785,-0.1734,-0.1704,-0.1694,-0.1647,-0.1617,-0.1617,-0.1718,-0.1819,-0.2022,-0.2223,-0.2324,-0.2121,-0.2422,-0.2623,-0.2623,-0.2724,-0.2925,-0.333,-0.4033,-0.4636,-0.5035,-0.5536,-0.6037,-0.6437,-0.6842,-0.7144,-0.7341,-0.7441,-0.754,-0.7746,-0.7743,-0.7839,-0.7939,-0.8038,-0.8038,-0.8038,-0.8038,-0.8237,-0.873,-0.9034,-0.9624,-1.0708,-1.1194,-1.1883,-1.2662,-1.3346,-1.3829,-1.401,-1.401,-1.4112,-1.4304,-1.4106,-1.4016,-1.4112,-1.3817,-1.3522,-1.3522,-1.3244,-1.2953,-1.2856,-1.3147,-1.363,-1.3426,-1.3011,-1.2813,-1.2727,-1.2262,-1.1883,-1.1585,-1.1292,-1.1002,-1.0806,-1.0703,-1.0708,-1.0811,-1.0973,-1.1102,-1.1221,-1.144,-1.1645,-0.6715,-0.6712,-0.6383,-0.6161,-0.5822,-0.5596,-0.526,-0.4808,-0.4365,-0.391,-0.3675,-0.324,-0.3123,-0.2801,-0.2796,-0.2578,-0.2356,-0.2356,-0.2244,-0.2132,-0.1907,-0.1795,-0.1795,-0.1795,-0.1795,-0.1795,-0.1795,-0.1795,-0.1795,-0.1795,-0.1795,-0.1795,-0.1791,-0.1789,-0.1793,-0.1732,-0.1701,-0.1689,-0.1644,-0.1618,-0.1617,-0.192,-0.2021,-0.2122,-0.2726,-0.2927,-0.2522,-0.2725,-0.3027,-0.3229,-0.3528,-0.3831,-0.4336,-0.4939,-0.5338,-0.5636,-0.6137,-0.6539,-0.6842,-0.7244,-0.7543,-0.7643,-0.7839,-0.7939,-0.7939,-0.7942,-0.7942,-0.8038,-0.8038,-0.8038,-0.8038,-0.8038,-0.8237,-0.873,-0.9031,-0.9624,-1.0511,-1.0998,-1.1585,-1.2565,-1.3152,-1.3448,-1.3545,-1.3539,-1.3539,-1.3534,-1.334,-1.3147,-1.3147,-1.2948,-1.2861,-1.2759,-1.2467,-1.217,-1.198,-1.1883,-1.2175,-1.2365,-1.1858,-1.1551,-1.1668,-1.1492,-1.1002,-1.0708,-1.0404,-1.0113,-0.9916,-0.9813,-0.9916,-0.9924,-1.0069,-1.0224,-1.042,-1.0729,-1.1002,-0.5817,-0.5819,-0.5487,-0.5266,-0.5152,-0.4925,-0.4453,-0.3967,-0.3744,-0.3392,-0.2929,-0.2816,-0.2726,-0.2642,-0.2426,-0.233,-0.2131,-0.2019,-0.1907,-0.1907,-0.1795,-0.1795,-0.1795,-0.1795,-0.1795,-0.1795,-0.1795,-0.1795,-0.1795,-0.1795,-0.1795,-0.1791,-0.1774,-0.1764,-0.1761,-0.1706,-0.1675,-0.1671,-0.1842,-0.1921,-0.192,-0.2121,-0.2423,-0.2827,-0.313,-0.3331,-0.3732,-0.3833,-0.3935,-0.4036,-0.4334,-0.4634,-0.5236,-0.5739,-0.6137,-0.6439,-0.6942,-0.7244,-0.7344,-0.7643,-0.7842,-0.7842,-0.7939,-0.7939,-0.8038,-0.8038,-0.8038,-0.8038,-0.8038,-0.8038,-0.8038,-0.8038,-0.8137,-0.8528,-0.8931,-0.943,-1.0216,-1.1096,-1.1878,-1.237,-1.2861,-1.2958,-1.3055,-1.2958,-1.2953,-1.2953,-1.2764,-1.2565,-1.237,-1.2175,-1.1878,-1.1683,-1.1487,-1.1292,-1.1096,-1.0904,-1.0904,-1.1194,-1.0886,-1.0681,-1.0797,-1.0605,-1.0216,-0.9821,-0.9521,-0.9225,-0.9126,-0.9126,-0.9126,-0.9122,-0.924,-0.9538,-0.977,-1.0121,-1.0381,-0.4929,-0.4812,-0.4562,-0.4329,-0.4213,-0.3972,-0.3609,-0.3142,-0.3031,-0.2797,-0.2455,-0.2345,-0.2251,-0.2274,-0.2071,-0.209,-0.2001,-0.19,-0.1795,-0.1795,-0.1795,-0.1795,-0.1795,-0.1795,-0.1795,-0.1795,-0.1795,-0.1795,-0.1795,-0.1794,-0.1789,-0.1776,-0.1759,-0.1744,-0.1731,-0.1688,-0.1766,-0.1864,-0.1938,-0.2021,-0.2222,-0.2523,-0.2925,-0.333,-0.3632,-0.4135,-0.4738,-0.5037,-0.5039,-0.4939,-0.5238,-0.5737,-0.6037,-0.6437,-0.6839,-0.7144,-0.7347,-0.7646,-0.7743,-0.7842,-0.8038,-0.8038,-0.8038,-0.8038,-0.8038,-0.8038,-0.8137,-0.8137,-0.8233,-0.8333,-0.8333,-0.8237,-0.8237,-0.8333,-0.8634,-0.9232,-0.9821,-1.09,-1.1487,-1.178,-1.198,-1.2175,-1.2175,-1.2175,-1.2175,-1.217,-1.1975,-1.1785,-1.159,-1.1296,-1.1096,-1.0801,-1.0703,-1.0507,-1.0212,-1.0019,-0.9723,-0.9821,-0.9916,-0.9912,-1.0019,-0.9719,-0.9324,-0.9126,-0.8829,-0.873,-0.8531,-0.8531,-0.8531,-0.8528,-0.8627,-0.8881,-0.9276,-0.9407,-0.9641,-0.3917,-0.3907,-0.3625,-0.3382,-0.3158,-0.3011,-0.2883,-0.2553,-0.2341,-0.2229,-0.212,-0.1902,-0.1803,-0.1707,-0.1833,-0.185,-0.1755,-0.1776,-0.1791,-0.1794,-0.1795,-0.1795,-0.1795,-0.1795,-0.1795,-0.1795,-0.1795,-0.1793,-0.1787,-0.1787,-0.1777,-0.1749,-0.174,-0.1838,-0.1807,-0.1778,-0.1863,-0.2061,-0.2138,-0.2324,-0.2522,-0.3027,-0.343,-0.3729,-0.4433,-0.5035,-0.5536,-0.6037,-0.6137,-0.5837,-0.6339,-0.6642,-0.6842,-0.7138,-0.7341,-0.7547,-0.7643,-0.7743,-0.7939,-0.7939,-0.8038,-0.8038,-0.8038,-0.8038,-0.8038,-0.8237,-0.8336,-0.8432,-0.863,-0.8726,-0.8726,-0.8528,-0.8428,-0.8432,-0.8432,-0.8832,-0.9529,-1.0314,-1.0703,-1.0801,-1.0998,-1.1194,-1.1194,-1.1198,-1.1194,-1.1096,-1.09,-1.0801,-1.0605,-1.0408,-1.0216,-1.0019,-0.9916,-0.9817,-0.9521,-0.9324,-0.913,-0.9126,-0.9225,-0.9229,-0.9327,-0.9027,-0.873,-0.8531,-0.8432,-0.8237,-0.8137,-0.8137,-0.8237,-0.8333,-0.8432,-0.8528,-0.8696,-0.8925,-0.9123,-0.295,-0.2916,-0.2902,-0.2789,-0.2788,-0.2668,-0.2537,-0.2301,-0.2193,-0.1972,-0.1748,-0.164,-0.1655,-0.1673,-0.1682,-0.1707,-0.1741,-0.1758,-0.1776,-0.1793,-0.1795,-0.1795,-0.1795,-0.1795,-0.1794,-0.1793,-0.1791,-0.1784,-0.1763,-0.1761,-0.1746,-0.1716,-0.1804,-0.1787,-0.198,-0.1952,-0.2036,-0.2337,-0.2735,-0.2928,-0.3128,-0.3732,-0.4234,-0.4533,-0.5035,-0.5636,-0.6237,-0.6939,-0.7141,-0.6839,-0.6936,-0.7241,-0.7347,-0.7444,-0.764,-0.7842,-0.7842,-0.7939,-0.7939,-0.8038,-0.8038,-0.8038,-0.8038,-0.8035,-0.8233,-0.8333,-0.8531,-0.8627,-0.8726,-0.8825,-0.8825,-0.8726,-0.863,-0.8432,-0.8333,-0.863,-0.9232,-0.9628,-1.0019,-1.0216,-1.0413,-1.0511,-1.0507,-1.0408,-1.031,-1.0314,-1.0117,-0.992,-0.9817,-0.9723,-0.9525,-0.9324,-0.9122,-0.9023,-0.8924,-0.873,-0.863,-0.8531,-0.8531,-0.863,-0.873,-0.873,-0.8432,-0.8233,-0.8237,-0.8137,-0.8038,-0.8038,-0.8137,-0.8137,-0.8137,-0.8237,-0.8272,-0.8459,-0.8733,-0.2474,-0.2449,-0.2327,-0.2214,-0.2211,-0.2196,-0.2072,-0.1951,-0.1846,-0.1836,-0.1619,-0.1617,-0.1627,-0.1643,-0.1657,-0.168,-0.1713,-0.1738,-0.1759,-0.1774,-0.1789,-0.1794,-0.1795,-0.1795,-0.1789,-0.1776,-0.1776,-0.1758,-0.1735,-0.173,-0.1821,-0.19,-0.1878,-0.1964,-0.2255,-0.2337,-0.2424,-0.2826,-0.3229,-0.3533,-0.3734,-0.4336,-0.4939,-0.5238,-0.5737,-0.6234,-0.6839,-0.7444,-0.7643,-0.7441,-0.7441,-0.764,-0.7743,-0.7743,-0.7842,-0.8038,-0.8038,-0.8038,-0.8038,-0.8038,-0.8038,-0.8038,-0.8038,-0.8137,-0.8333,-0.8531,-0.873,-0.8931,-0.9031,-0.9126,-0.9122,-0.8924,-0.8726,-0.8432,-0.8333,-0.8435,-0.8836,-0.9126,-0.9324,-0.9521,-0.962,-0.9719,-0.9719,-0.962,-0.9521,-0.9521,-0.9422,-0.9225,-0.9126,-0.9031,-0.8935,-0.873,-0.8627,-0.8627,-0.8531,-0.8333,-0.8336,-0.8233,-0.8233,-0.8237,-0.8233,-0.8432,-0.8233,-0.8038,-0.8038,-0.8038,-0.8038,-0.8038,-0.8038,-0.8038,-0.8038,-0.8045,-0.8072,-0.8192,-0.8358,-0.2122,-0.2116,-0.1773,-0.1658,-0.1757,-0.1629,-0.1622,-0.1618,-0.162,-0.1618,-0.1617,-0.1617,-0.1619,-0.1619,-0.1643,-0.166,-0.1668,-0.1712,-0.1735,-0.175,-0.1765,-0.1776,-0.1775,-0.1782,-0.1769,-0.1748,-0.1745,-0.1727,-0.1707,-0.1699,-0.1893,-0.2076,-0.217,-0.2256,-0.2537,-0.2725,-0.3029,-0.343,-0.3833,-0.4234,-0.4537,-0.5037,-0.5539,-0.6042,-0.6339,-0.6839,-0.7444,-0.7842,-0.7842,-0.7646,-0.7842,-0.7942,-0.7939,-0.8038,-0.8038,-0.8038,-0.8038,-0.8038,-0.8038,-0.8038,-0.8038,-0.8038,-0.8038,-0.8137,-0.8432,-0.863,-0.8928,-0.9232,-0.943,-0.9525,-0.9426,-0.9126,-0.8726,-0.8531,-0.8233,-0.8137,-0.8336,-0.863,-0.8726,-0.8726,-0.8821,-0.8825,-0.8825,-0.8825,-0.8825,-0.8928,-0.8829,-0.873,-0.863,-0.8634,-0.8535,-0.8432,-0.8333,-0.8233,-0.8134,-0.8038,-0.8038,-0.8038,-0.8038,-0.8038,-0.8038,-0.8137,-0.8038,-0.8038,-0.8038,-0.8038,-0.8038,-0.8038,-0.8038,-0.8038,-0.8038,-0.8038,-0.8045,-0.8055,-0.8199,-0.1966,-0.1737,-0.1629,-0.1626,-0.1625,-0.162,-0.1617,-0.1617,-0.1617,-0.1617,-0.1617,-0.1617,-0.1617,-0.1618,-0.1626,-0.1639,-0.1658,-0.168,-0.1691,-0.1714,-0.1718,-0.1724,-0.173,-0.1746,-0.1741,-0.172,-0.1714,-0.1698,-0.1782,-0.1876,-0.2069,-0.2141,-0.2443,-0.2737,-0.3031,-0.3328,-0.3632,-0.4135,-0.4535,-0.4935,-0.5336,-0.5837,-0.6239,-0.6642,-0.7042,-0.7444,-0.7839,-0.7939,-0.7942,-0.7942,-0.7942,-0.8038,-0.8038,-0.8038,-0.8038,-0.8038,-0.8038,-0.8038,-0.8038,-0.8038,-0.8038,-0.8038,-0.8038,-0.8237,-0.8627,-0.8726,-0.9023,-0.9426,-0.9533,-0.9628,-0.9529,-0.9126,-0.8825,-0.8627,-0.8233,-0.8038,-0.8137,-0.8333,-0.8432,-0.8531,-0.8627,-0.8825,-0.8726,-0.8531,-0.8531,-0.8428,-0.8333,-0.8237,-0.8237,-0.8237,-0.8233,-0.8134,-0.8134,-0.8134,-0.8038,-0.8038,-0.8038,-0.8038,-0.8038,-0.8038,-0.8038,-0.8038,-0.8038,-0.8038,-0.8038,-0.8038,-0.8038,-0.8038,-0.8038,-0.8038,-0.8038,-0.8038,-0.8038,-0.8038,-0.8041,-0.1937,-0.1617,-0.1617,-0.1617,-0.1617,-0.1617,-0.1617,-0.1617,-0.1617,-0.1617,-0.1617,-0.1617,-0.1617,-0.1617,-0.1618,-0.1628,-0.1641,-0.1657,-0.1678,-0.17,-0.1705,-0.1697,-0.1792,-0.1803,-0.191,-0.179,-0.1684,-0.1773,-0.1957,-0.205,-0.2244,-0.2528,-0.2826,-0.3233,-0.3734,-0.4033,-0.4334,-0.4839,-0.5336,-0.5734,-0.6034,-0.6537,-0.6939,-0.7141,-0.7543,-0.7842,-0.7939,-0.8038,-0.8038,-0.8038,-0.8038,-0.8038,-0.8038,-0.8038,-0.8038,-0.8038,-0.8038,-0.8038,-0.8038,-0.8038,-0.8038,-0.8038,-0.8038,-0.8333,-0.8627,-0.8825,-0.9027,-0.9426,-0.9628,-0.9529,-0.943,-0.9126,-0.8825,-0.8528,-0.8237,-0.8038,-0.8038,-0.8137,-0.8237,-0.8237,-0.8333,-0.8435,-0.8336,-0.8336,-0.8237,-0.8233,-0.8233,-0.8038,-0.8038,-0.8137,-0.8038,-0.8038,-0.8038,-0.8038,-0.8038,-0.8038,-0.8038,-0.8038,-0.8038,-0.8038,-0.8038,-0.8038,-0.8038,-0.8038,-0.8038,-0.8038,-0.8038,-0.8038,-0.8038,-0.8038,-0.8038,-0.8038,-0.8038,-0.8038,-0.8038,-0.192,-0.1617,-0.1617,-0.1617,-0.1617,-0.1617,-0.1617,-0.1617,-0.1617,-0.1617,-0.1617,-0.1617,-0.1617,-0.1617,-0.1617,-0.1617,-0.1726,-0.1742,-0.1768,-0.1888,-0.189,-0.1879,-0.1866,-0.1966,-0.2071,-0.1758,-0.1861,-0.2049,-0.2133,-0.2224,-0.2631,-0.313,-0.343,-0.3833,-0.4437,-0.4836,-0.5135,-0.5441,-0.6039,-0.6439,-0.6637,-0.7039,-0.7341,-0.7643,-0.7842,-0.7942,-0.8038,-0.8038,-0.8038,-0.8038,-0.8038,-0.8038,-0.8038,-0.8038,-0.8038,-0.8038,-0.8038,-0.8038,-0.8038,-0.8038,-0.8038,-0.8038,-0.8038,-0.8233,-0.8627,-0.8825,-0.9126,-0.9327,-0.9529,-0.943,-0.9236,-0.8928,-0.863,-0.8432,-0.8137,-0.8038,-0.8038,-0.8038,-0.8038,-0.8038,-0.8137,-0.8137,-0.8137,-0.8038,-0.8038,-0.8038,-0.8038,-0.8038,-0.8038,-0.8038,-0.8038,-0.8038,-0.8038,-0.8038,-0.8038,-0.8038,-0.8038,-0.8038,-0.8038,-0.8038,-0.8038,-0.8038,-0.8038,-0.8038,-0.8038,-0.8038,-0.8038,-0.8038,-0.8038,-0.8038,-0.8038,-0.8038,-0.8038,-0.8038,-0.8038,-0.2222,-0.192,-0.1718,-0.1617,-0.1617,-0.1617,-0.1617,-0.1617,-0.1617,-0.1617,-0.1617,-0.1617,-0.1617,-0.1617,-0.1617,-0.1718,-0.1923,-0.1933,-0.2039,-0.225,-0.2251,-0.2241,-0.2342,-0.234,-0.2235,-0.2332,-0.2335,-0.2432,-0.2527,-0.2826,-0.3229,-0.363,-0.4232,-0.4736,-0.514,-0.5541,-0.5937,-0.6139,-0.6542,-0.6942,-0.7244,-0.7444,-0.7643,-0.7839,-0.7939,-0.7939,-0.8038,-0.8038,-0.8038,-0.8038,-0.8038,-0.8038,-0.8038,-0.8038,-0.8038,-0.8038,-0.8038,-0.8038,-0.8038,-0.8038,-0.8038,-0.8038,-0.8038,-0.8237,-0.863,-0.8825,-0.9027,-0.9327,-0.9335,-0.9236,-0.9236,-0.8733,-0.8531,-0.8333,-0.8137,-0.8038,-0.8038,-0.8038,-0.8038,-0.8038,-0.8038,-0.8038,-0.8038,-0.8038,-0.8038,-0.8038,-0.8038,-0.8038,-0.8038,-0.8038,-0.8038,-0.8038,-0.8038,-0.8038,-0.8038,-0.8038,-0.8038,-0.8038,-0.8038,-0.8038,-0.8038,-0.8038,-0.8038,-0.8038,-0.8038,-0.8038,-0.8038,-0.8038,-0.8038,-0.8038,-0.8038,-0.8038,-0.8038,-0.8038,-0.8038,-0.2221,-0.1921,-0.1718,-0.1617,-0.1617,-0.1617,-0.1617,-0.1617,-0.1617,-0.1617,-0.1617,-0.1617,-0.1617,-0.1617,-0.1819,-0.192,-0.2121,-0.2221,-0.2322,-0.2522,-0.2623,-0.2725,-0.2826,-0.2825,-0.2823,-0.2924,-0.3025,-0.3228,-0.323,-0.343,-0.3833,-0.4332,-0.4935,-0.5436,-0.5839,-0.6242,-0.6539,-0.6839,-0.7042,-0.7344,-0.7646,-0.7746,-0.7942,-0.7939,-0.8038,-0.8038,-0.8038,-0.8038,-0.8038,-0.8038,-0.8038,-0.8038,-0.8038,-0.8038,-0.8038,-0.8038,-0.8038,-0.8038,-0.8038,-0.8038,-0.8038,-0.8038,-0.8038,-0.8137,-0.8432,-0.863,-0.8829,-0.9027,-0.913,-0.8931,-0.8836,-0.8531,-0.8333,-0.8237,-0.8038,-0.8038,-0.8038,-0.8038,-0.8038,-0.8038,-0.8038,-0.8038,-0.8038,-0.8038,-0.8038,-0.8038,-0.8038,-0.8038,-0.8038,-0.8038,-0.8038,-0.8038,-0.8038,-0.8038,-0.8038,-0.8038,-0.8038,-0.8038,-0.8038,-0.8038,-0.8038,-0.8038,-0.8038,-0.8038,-0.8038,-0.8038,-0.8038,-0.8038,-0.8038,-0.8038,-0.8038,-0.8038,-0.8038,-0.8038,-0.8038,-0.2322,-0.2021,-0.1718,-0.1617,-0.1617,-0.1617,-0.1617,-0.1617,-0.1617,-0.1617,-0.1718,-0.1718,-0.1718,-0.1819,-0.202,-0.2323,-0.2522,-0.2623,-0.2825,-0.3026,-0.3128,-0.3229,-0.343,-0.3632,-0.363,-0.3729,-0.4031,-0.4237,-0.4138,-0.4135,-0.4535,-0.5035,-0.5536,-0.6037,-0.6537,-0.6842,-0.7042,-0.7241,-0.754,-0.7643,-0.7743,-0.7839,-0.8038,-0.8038,-0.8038,-0.8038,-0.8038,-0.8038,-0.8038,-0.8038,-0.8038,-0.8038,-0.8038,-0.8038,-0.8038,-0.8038,-0.8038,-0.8038,-0.8038,-0.8038,-0.8038,-0.8038,-0.8038,-0.8137,-0.8333,-0.8528,-0.8627,-0.8726,-0.8726,-0.863,-0.8535,-0.8333,-0.8233,-0.8137,-0.8038,-0.8038,-0.8038,-0.8038,-0.8038,-0.8038,-0.8038,-0.8038,-0.8038,-0.8038,-0.8038,-0.8038,-0.8038,-0.8038,-0.8038,-0.8038,-0.8038,-0.8038,-0.8038,-0.8038,-0.8038,-0.8038,-0.8038,-0.8038,-0.8038,-0.8038,-0.8038,-0.8038,-0.8038,-0.8038,-0.8038,-0.8038,-0.8038,-0.8038,-0.8038,-0.8038,-0.8038,-0.8038,-0.8038,-0.8038,-0.8038,-0.2422,-0.2322,-0.1817,-0.1617,-0.1615,-0.1615,-0.1615,-0.1613,-0.1613,-0.1718,-0.1912,-0.1918,-0.2118,-0.2322,-0.2624,-0.2827,-0.3128,-0.3328,-0.353,-0.3833,-0.4034,-0.4034,-0.4033,-0.4137,-0.4437,-0.4535,-0.4939,-0.5044,-0.4843,-0.4736,-0.5135,-0.5739,-0.6137,-0.6539,-0.7039,-0.7344,-0.7547,-0.7643,-0.7842,-0.7942,-0.7942,-0.7939,-0.8038,-0.8038,-0.8038,-0.8038,-0.8038,-0.8038,-0.8038,-0.8038,-0.8038,-0.8038,-0.8038,-0.8038,-0.8038,-0.8038,-0.8038,-0.8038,-0.8038,-0.8038,-0.8038,-0.8038,-0.8038,-0.8137,-0.8333,-0.8528,-0.8627,-0.8726,-0.863,-0.8432,-0.8336,-0.8134,-0.8038,-0.8038,-0.8038,-0.8038,-0.8038,-0.8038,-0.8038,-0.8038,-0.8038,-0.8038,-0.8038,-0.8038,-0.8038,-0.8038,-0.8038,-0.8038,-0.8038,-0.8038,-0.8038,-0.8038,-0.8038,-0.8038,-0.8038,-0.8038,-0.8038,-0.8038,-0.8038,-0.8038,-0.8038,-0.8038,-0.8038,-0.8038,-0.8038,-0.8038,-0.8038,-0.8038,-0.8038,-0.8038,-0.8038,-0.8038,-0.8038,-0.8038,-0.8038,-0.2361,-0.2284,-0.179,-0.1691,-0.179,-0.179,-0.1878,-0.1965,-0.1978,-0.2074,-0.2064,-0.2178,-0.2397,-0.2818,-0.3127,-0.3531,-0.3835,-0.4034,-0.4336,-0.4638,-0.4839,-0.4836,-0.4935,-0.5037,-0.514,-0.5238,-0.5438,-0.5541,-0.5441,-0.5639,-0.5939,-0.6239,-0.6739,-0.7144,-0.7444,-0.7743,-0.7842,-0.7842,-0.7942,-0.8038,-0.8038,-0.8038,-0.8038,-0.8038,-0.8038,-0.8038,-0.8038,-0.8038,-0.8038,-0.8038,-0.8038,-0.8038,-0.8038,-0.8038,-0.8038,-0.8038,-0.8038,-0.8038,-0.8038,-0.8038,-0.8038,-0.8038,-0.8038,-0.8038,-0.8134,-0.8333,-0.8333,-0.8333,-0.8237,-0.8237,-0.8237,-0.8038,-0.8038,-0.8038,-0.8038,-0.8038,-0.8038,-0.8038,-0.8038,-0.8038,-0.8038,-0.8038,-0.8038,-0.8038,-0.8038,-0.8038,-0.8038,-0.8038,-0.8038,-0.8038,-0.8038,-0.8038,-0.8038,-0.8038,-0.8038,-0.8038,-0.8038,-0.8038,-0.8038,-0.8038,-0.8038,-0.8038,-0.8038,-0.8038,-0.8038,-0.8038,-0.8038,-0.8038,-0.8038,-0.8038,-0.8038,-0.8038,-0.8038,-0.8038,-0.8038,-0.2387,-0.232,-0.1848,-0.1755,-0.1951,-0.2048,-0.2129,-0.2297,-0.2322,-0.2416,-0.25,-0.2723,-0.3067,-0.3503,-0.382,-0.4133,-0.4539,-0.4738,-0.5039,-0.534,-0.5541,-0.5639,-0.5737,-0.5837,-0.5837,-0.5834,-0.5739,-0.5942,-0.6242,-0.6439,-0.6537,-0.6639,-0.7141,-0.7543,-0.7743,-0.7842,-0.7939,-0.7939,-0.7939,-0.8038,-0.8038,-0.8038,-0.8038,-0.8038,-0.8038,-0.8038,-0.8038,-0.8038,-0.8038,-0.8038,-0.8038,-0.8038,-0.8038,-0.8038,-0.8038,-0.8038,-0.8038,-0.8038,-0.8038,-0.8038,-0.8038,-0.8038,-0.8038,-0.8038,-0.8038,-0.8038,-0.8038,-0.8038,-0.8038,-0.8038,-0.8038,-0.8038,-0.8038,-0.8038,-0.8038,-0.8038,-0.8038,-0.8038,-0.8038,-0.8038,-0.8038,-0.8038,-0.8038,-0.8038,-0.8038,-0.8038,-0.8038,-0.8038,-0.8038,-0.8038,-0.8038,-0.8038,-0.8038,-0.8038,-0.8038,-0.8038,-0.8038,-0.8038,-0.8038,-0.8038,-0.8038,-0.8038,-0.8038,-0.8038,-0.8038,-0.8038,-0.8038,-0.8038,-0.8038,-0.8038,-0.8038,-0.8038,-0.8038,-0.8038,-0.8038,-0.2599,-0.2515,-0.2086,-0.1911,-0.1912,-0.2104,-0.2386,-0.2653,-0.2572,-0.2955,-0.3336,-0.3589,-0.3915,-0.4245,-0.4602,-0.4836,-0.514,-0.5641,-0.5842,-0.6142,-0.6442,-0.6439,-0.6437,-0.6334,-0.6334,-0.6337,-0.6239,-0.6342,-0.6645,-0.6942,-0.7039,-0.7241,-0.7543,-0.7739,-0.7839,-0.7939,-0.8038,-0.8038,-0.8038,-0.8038,-0.8038,-0.8038,-0.8038,-0.8038,-0.8038,-0.8038,-0.8038,-0.8038,-0.8038,-0.8038,-0.8038,-0.8038,-0.8038,-0.8038,-0.8038,-0.8038,-0.8038,-0.8038,-0.8038,-0.8038,-0.8038,-0.8038,-0.8038,-0.8038,-0.8038,-0.8038,-0.8038,-0.8038,-0.8038,-0.8038,-0.8038,-0.8038,-0.8038,-0.8038,-0.8038,-0.8038,-0.8038,-0.8038,-0.8038,-0.8038,-0.8038,-0.8038,-0.8038,-0.8038,-0.8038,-0.8038,-0.8038,-0.8038,-0.8038,-0.8038,-0.8038,-0.8038,-0.8038,-0.8038,-0.8038,-0.8038,-0.8038,-0.8038,-0.8038,-0.8038,-0.8038,-0.8038,-0.8038,-0.8038,-0.8038,-0.8038,-0.8038,-0.8038,-0.8038,-0.8038,-0.8038,-0.8038,-0.8038,-0.8038,-0.8038,-0.2813,-0.2998,-0.2746,-0.2682,-0.2526,-0.262,-0.288,-0.3226,-0.344,-0.3645,-0.4027,-0.4387,-0.4651,-0.4908,-0.5289,-0.5639,-0.5937,-0.6342,-0.6539,-0.6739,-0.6936,-0.6936,-0.6936,-0.6836,-0.6936,-0.6836,-0.6739,-0.6742,-0.7039,-0.7341,-0.7441,-0.754,-0.7739,-0.7839,-0.7939,-0.8038,-0.8038,-0.8038,-0.8038,-0.8038,-0.8038,-0.8038,-0.8038,-0.8038,-0.8038,-0.8038,-0.8038,-0.8038,-0.8038,-0.8038,-0.8038,-0.8038,-0.8038,-0.8038,-0.8038,-0.8038,-0.8038,-0.8038,-0.8038,-0.8038,-0.8038,-0.8038,-0.8038,-0.8038,-0.8038,-0.8038,-0.8038,-0.8038,-0.8038,-0.8038,-0.8038,-0.8038,-0.8038,-0.8038,-0.8038,-0.8038,-0.8038,-0.8038,-0.8038,-0.8038,-0.8038,-0.8038,-0.8038,-0.8038,-0.8038,-0.8038,-0.8038,-0.8038,-0.8038,-0.8038,-0.8038,-0.8038,-0.8038,-0.8038,-0.8038,-0.8038,-0.8038,-0.8038,-0.8038,-0.8038,-0.8038,-0.8038,-0.8038,-0.8038,-0.8038,-0.8038,-0.8038,-0.8038,-0.8038,-0.8038,-0.8038,-0.8038,-0.8038,-0.8038,-0.8038,-0.3226,-0.3405,-0.3406,-0.3253,-0.3112,-0.3205,-0.3542,-0.3871,-0.4095,-0.4393,-0.4584,-0.4953,-0.5242,-0.5538,-0.5935,-0.6315,-0.6625,-0.6942,-0.7141,-0.7238,-0.7338,-0.7437,-0.7437,-0.7338,-0.7238,-0.7338,-0.7235,-0.7135,-0.7341,-0.7543,-0.7643,-0.7743,-0.7839,-0.7939,-0.8038,-0.8038,-0.8038,-0.8038,-0.8038,-0.8038,-0.8038,-0.8038,-0.8038,-0.8038,-0.8038,-0.8038,-0.8038,-0.8038,-0.8038,-0.8038,-0.8038,-0.8038,-0.8038,-0.8038,-0.8038,-0.8038,-0.8038,-0.8038,-0.8038,-0.8038,-0.8038,-0.8038,-0.8038,-0.8038,-0.8038,-0.8038,-0.8038,-0.8038,-0.8038,-0.8038,-0.8038,-0.8038,-0.8038,-0.8038,-0.8038,-0.8038,-0.8038,-0.8038,-0.8038,-0.8038,-0.8038,-0.8038,-0.8038,-0.8038,-0.8038,-0.8038,-0.8038,-0.8038,-0.8038,-0.8038,-0.8038,-0.8038,-0.8038,-0.8038,-0.8038,-0.8038,-0.8038,-0.8038,-0.8038,-0.8038,-0.8038,-0.8038,-0.8038,-0.8038,-0.8038,-0.8038,-0.8038,-0.8038,-0.8038,-0.8038,-0.8038,-0.8038,-0.8038,-0.8038,-0.8038,-0.3674,-0.3849,-0.3939,-0.3855,-0.3776,-0.3855,-0.4212,-0.4659,-0.4759,-0.4853,-0.5133,-0.5418,-0.5704,-0.61,-0.6418,-0.6825,-0.7099,-0.7428,-0.7543,-0.7643,-0.7739,-0.7942,-0.7839,-0.7739,-0.7643,-0.754,-0.7437,-0.7437,-0.7543,-0.764,-0.7743,-0.7842,-0.7939,-0.8038,-0.8038,-0.8038,-0.8038,-0.8038,-0.8038,-0.8038,-0.8038,-0.8038,-0.8038,-0.8038,-0.8038,-0.8038,-0.8038,-0.8038,-0.8038,-0.8038,-0.8038,-0.8038,-0.8038,-0.8038,-0.8038,-0.8038,-0.8038,-0.8038,-0.8038,-0.8038,-0.8038,-0.8038,-0.8038,-0.8038,-0.8038,-0.8038,-0.8038,-0.8038,-0.8038,-0.8038,-0.8038,-0.8038,-0.8038,-0.8038,-0.8038,-0.8038,-0.8038,-0.8038,-0.8038,-0.8038,-0.8038,-0.8038,-0.8038,-0.8038,-0.8038,-0.8038,-0.8038,-0.8038,-0.8038,-0.8038,-0.8038,-0.8038,-0.8038,-0.8038,-0.8038,-0.8038,-0.8038,-0.8038,-0.8038,-0.8038,-0.8038,-0.8038,-0.8038,-0.8038,-0.8038,-0.8038,-0.8038,-0.8038,-0.8038,-0.8038,-0.8038,-0.8038,-0.8038,-0.8038,-0.8038,-0.4567,-0.4924,-0.4924,-0.5013,-0.5191,-0.483,-0.4832,-0.5193,-0.546,-0.5725,-0.5925,-0.6122,-0.6285,-0.6572,-0.692,-0.7152,-0.7407,-0.772,-0.7842,-0.7842,-0.7942,-0.7942,-0.7939,-0.7939,-0.7846,-0.7842,-0.7736,-0.7637,-0.7842,-0.7839,-0.7839,-0.8038,-0.8038,-0.8038,-0.8038,-0.8038,-0.8038,-0.8038,-0.8038,-0.8038,-0.8038,-0.8038,-0.8038,-0.8038,-0.8038,-0.8038,-0.8038,-0.8038,-0.8038,-0.8038,-0.8038,-0.8038,-0.8038,-0.8038,-0.8038,-0.8038,-0.8038,-0.8038,-0.8038,-0.8038,-0.8038,-0.8038,-0.8038,-0.8038,-0.8038,-0.8038,-0.8038,-0.8038,-0.8038,-0.8038,-0.8038,-0.8038,-0.8038,-0.8038,-0.8038,-0.8038,-0.8038,-0.8038,-0.8038,-0.8038,-0.8038,-0.8038,-0.8038,-0.8038,-0.8038,-0.8038,-0.8038,-0.8038,-0.8038,-0.8038,-0.8038,-0.8038,-0.8038,-0.8038,-0.8038,-0.8038,-0.8038,-0.8038,-0.8038,-0.8038,-0.8038,-0.8038,-0.8038,-0.8038,-0.8038,-0.8038,-0.8038,-0.8038,-0.8038,-0.8038,-0.8038,-0.8038,-0.8038,-0.8038,-0.8038,-0.5282,-0.5725,-0.5725,-0.5991,-0.6346,-0.5722,-0.5633,-0.5991,-0.626,-0.6438,-0.6545,-0.6622,-0.669,-0.6866,-0.7182,-0.7475,-0.7521,-0.7808,-0.8021,-0.8024,-0.8038,-0.8038,-0.8038,-0.8038,-0.7939,-0.8038,-0.8038,-0.7939,-0.7942,-0.7939,-0.8038,-0.8038,-0.8038,-0.8038,-0.8038,-0.8038,-0.8038,-0.8038,-0.8038,-0.8038,-0.8038,-0.8038,-0.8038,-0.8038,-0.8038,-0.8038,-0.8038,-0.8038,-0.8038,-0.8038,-0.8038,-0.8038,-0.8038,-0.8038,-0.8038,-0.8038,-0.8038,-0.8038,-0.8038,-0.8038,-0.8038,-0.8038,-0.8038,-0.8038,-0.8038,-0.8038,-0.8038,-0.8038,-0.8038,-0.8038,-0.8038,-0.8038,-0.8038,-0.8038,-0.8038,-0.8038,-0.8038,-0.8038,-0.8038,-0.8038,-0.8038,-0.8038,-0.8038,-0.8038,-0.8038,-0.8038,-0.8038,-0.8038,-0.8038,-0.8038,-0.8038,-0.8038,-0.8038,-0.8038,-0.8038,-0.8038,-0.8038,-0.8038,-0.8038,-0.8038,-0.8038,-0.8038,-0.8038,-0.8038,-0.8038,-0.8038,-0.8038,-0.8038,-0.8038,-0.8038,-0.8038,-0.8038,-0.8038,-0.8038,-0.8038,-0.5813,-0.6428,-0.6428,-0.6697,-0.7051,-0.6694,-0.6782,-0.7054,-0.6972,-0.6881,-0.6799,-0.6894,-0.6869,-0.7073,-0.7302,-0.7556,-0.7677,-0.7828,-0.7936,-0.8007,-0.8038,-0.8038,-0.8038,-0.8038,-0.8038,-0.8038,-0.8038,-0.8038,-0.8038,-0.8038,-0.8038,-0.8038,-0.8038,-0.8137,-0.8137,-0.8137,-0.8038,-0.8038,-0.8038,-0.8038,-0.8038,-0.8038,-0.8038,-0.8038,-0.8038,-0.8038,-0.8038,-0.8038,-0.8038,-0.8038,-0.8038,-0.8038,-0.8038,-0.8038,-0.8038,-0.8038,-0.8038,-0.8038,-0.8038,-0.8038,-0.8038,-0.8038,-0.8038,-0.8038,-0.8038,-0.8038,-0.8038,-0.8038,-0.8038,-0.8038,-0.8038,-0.8038,-0.8038,-0.8038,-0.8038,-0.8038,-0.8038,-0.8038,-0.8038,-0.8038,-0.8038,-0.8038,-0.8038,-0.8038,-0.8038,-0.8038,-0.8038,-0.8038,-0.8038,-0.8038,-0.8038,-0.8038,-0.8038,-0.8038,-0.8038,-0.8038,-0.8038,-0.8038,-0.8038,-0.8038,-0.8038,-0.8038,-0.8038,-0.8038,-0.8038,-0.8038,-0.8038,-0.8038,-0.8038,-0.8038,-0.8038,-0.8038,-0.8038,-0.8038,-0.8038,-0.6874,-0.7404,-0.7404,-0.7669,-0.8105,-0.8201,-0.8028,-0.7676,-0.7591,-0.7503,-0.733,-0.7326,-0.7183,-0.7135,-0.7431,-0.756,-0.7706,-0.7858,-0.7974,-0.8028,-0.8031,-0.8035,-0.8038,-0.8038,-0.8038,-0.8038,-0.8038,-0.8038,-0.8038,-0.8038,-0.8134,-0.8233,-0.8233,-0.8333,-0.8432,-0.8333,-0.8237,-0.8038,-0.8038,-0.8038,-0.8038,-0.8038,-0.8038,-0.8038,-0.8038,-0.8038,-0.8038,-0.8038,-0.8038,-0.8038,-0.8038,-0.8038,-0.8038,-0.8038,-0.8038,-0.8038,-0.8038,-0.8038,-0.8038,-0.8038,-0.8038,-0.8038,-0.8038,-0.8038,-0.8038,-0.8038,-0.8038,-0.8038,-0.8038,-0.8038,-0.8038,-0.8038,-0.8038,-0.8038,-0.8038,-0.8038,-0.8038,-0.8038,-0.8038,-0.8038,-0.8038,-0.8038,-0.8038,-0.8038,-0.8038,-0.8038,-0.8038,-0.8038,-0.8038,-0.8038,-0.8038,-0.8038,-0.8038,-0.8038,-0.8038,-0.8038,-0.8038,-0.8038,-0.8038,-0.8038,-0.8038,-0.8038,-0.8038,-0.8038,-0.8038,-0.8038,-0.8038,-0.8038,-0.8038,-0.8038,-0.8038,-0.8038,-0.8038,-0.8038,-0.8038,-0.7672,-0.8204,-0.838,-0.864,-0.9074,-0.917,-0.8903,-0.8556,-0.8288,-0.8116,-0.7937,-0.7595,-0.7415,-0.7265,-0.7322,-0.7441,-0.7526,-0.7712,-0.7858,-0.7936,-0.8014,-0.8031,-0.8038,-0.8038,-0.8038,-0.8038,-0.8038,-0.8038,-0.8038,-0.8137,-0.8233,-0.8333,-0.8432,-0.8627,-0.8627,-0.8528,-0.8336,-0.8137,-0.8137,-0.8038,-0.8038,-0.8038,-0.8038,-0.8038,-0.8038,-0.8038,-0.8038,-0.8038,-0.8038,-0.8038,-0.8038,-0.8038,-0.8038,-0.8038,-0.8038,-0.8038,-0.8038,-0.8038,-0.8038,-0.8038,-0.8038,-0.8038,-0.8038,-0.8038,-0.8038,-0.8038,-0.8038,-0.8038,-0.8038,-0.8038,-0.8038,-0.8038,-0.8038,-0.8038,-0.8038,-0.8038,-0.8038,-0.8038,-0.8038,-0.8038,-0.8038,-0.8038,-0.8038,-0.8038,-0.8038,-0.8038,-0.8038,-0.8038,-0.8038,-0.8038,-0.8038,-0.8038,-0.8038,-0.8038,-0.8038,-0.8038,-0.8038,-0.8038,-0.8038,-0.8038,-0.8038,-0.8038,-0.8038,-0.8038,-0.8038,-0.8038,-0.8038,-0.8038,-0.8038,-0.8038,-0.8038,-0.8038,-0.8038,-0.8038,-0.8038,-0.838,-0.9087,-0.9349,-0.9689,-1.0033,-0.9864,-0.9685,-0.9598,-0.9074,-0.8636,-0.8464,-0.7944,-0.7591,-0.7429,-0.742,-0.7312,-0.7444,-0.7621,-0.7777,-0.7821,-0.798,-0.8035,-0.8038,-0.8038,-0.8038,-0.8038,-0.8038,-0.8137,-0.8134,-0.8333,-0.8432,-0.8432,-0.873,-0.8928,-0.8924,-0.8627,-0.8432,-0.8432,-0.8137,-0.8038,-0.8038,-0.8038,-0.8038,-0.8038,-0.8038,-0.8038,-0.8038,-0.8038,-0.8038,-0.8038,-0.8038,-0.8038,-0.8038,-0.8038,-0.8038,-0.8038,-0.8038,-0.8038,-0.8038,-0.8038,-0.8038,-0.8038,-0.8038,-0.8038,-0.8038,-0.8038,-0.8038,-0.8038,-0.8038,-0.8038,-0.8038,-0.8038,-0.8038,-0.8038,-0.8038,-0.8038,-0.8038,-0.8038,-0.8038,-0.8038,-0.8038,-0.8038,-0.8038,-0.8038,-0.8038,-0.8038,-0.8038,-0.8038,-0.8038,-0.8038,-0.8038,-0.8038,-0.8038,-0.8038,-0.8038,-0.8038,-0.8038,-0.8038,-0.8038,-0.8038,-0.8038,-0.8038,-0.8038,-0.8038,-0.8038,-0.8038,-0.8038,-0.8038,-0.8038,-0.8038,-0.8038,-0.8038,-0.8038,-0.8038,-0.8038,-0.951,-1.0038,-1.0467,-1.0722,-1.0982,-1.0722,-1.0636,-1.0554,-0.9946,-0.9248,-0.8636,-0.8372,-0.8028,-0.7598,-0.751,-0.7493,-0.7482,-0.756,-0.7746,-0.7828,-0.7943,-0.8001,-0.8035,-0.8031,-0.8035,-0.8038,-0.8237,-0.8336,-0.8531,-0.863,-0.8832,-0.8935,-0.9133,-0.913,-0.9225,-0.8928,-0.8627,-0.863,-0.8237,-0.8038,-0.8038,-0.8038,-0.8038,-0.8038,-0.8038,-0.8038,-0.8038,-0.8038,-0.8038,-0.8038,-0.8038,-0.8038,-0.8038,-0.8038,-0.8038,-0.8038,-0.8038,-0.8038,-0.8038,-0.8137,-0.8137,-0.8038,-0.8041,-0.8038,-0.8038,-0.8038,-0.8038,-0.8038,-0.8038,-0.8038,-0.8038,-0.8038,-0.8038,-0.8038,-0.8038,-0.8038,-0.8038,-0.8038,-0.8038,-0.8038,-0.8038,-0.8038,-0.8038,-0.8038,-0.8038,-0.8038,-0.8038,-0.8038,-0.7939,-0.7939,-0.7939,-0.7939,-0.8038,-0.8038,-0.8038,-0.8038,-0.8038,-0.8038,-0.8038,-0.8038,-0.8038,-0.8038,-0.8038,-0.8038,-0.8038,-0.8038,-0.8038,-0.8038,-0.8038,-0.8038,-0.8038,-0.8038,-0.8038,-0.8038,-0.8038,-1.0207,-1.0641,-1.1068,-1.1413,-1.151,-1.1241,-1.1154,-1.0982,-1.0381,-0.9772,-0.9074,-0.8723,-0.8285,-0.7768,-0.7685,-0.7548,-0.7504,-0.7595,-0.756,-0.7651,-0.7831,-0.8007,-0.8055,-0.8202,-0.8329,-0.8333,-0.8531,-0.863,-0.8829,-0.8931,-0.9034,-0.9236,-0.9335,-0.943,-0.9529,-0.9126,-0.8825,-0.8726,-0.8237,-0.8041,-0.8038,-0.8038,-0.8038,-0.8038,-0.8038,-0.8038,-0.8038,-0.8038,-0.8038,-0.8038,-0.8038,-0.8038,-0.8038,-0.8038,-0.8035,-0.8134,-0.8233,-0.8233,-0.8333,-0.8333,-0.8333,-0.8336,-0.8336,-0.8432,-0.8233,-0.8237,-0.8137,-0.8137,-0.8038,-0.8038,-0.8038,-0.8038,-0.8038,-0.8038,-0.8038,-0.8038,-0.8038,-0.8038,-0.8038,-0.8038,-0.8038,-0.8038,-0.8038,-0.8038,-0.7939,-0.7939,-0.7939,-0.7939,-0.7939,-0.7939,-0.7939,-0.7939,-0.7939,-0.7939,-0.8038,-0.8038,-0.8038,-0.8038,-0.8038,-0.8038,-0.8038,-0.8038,-0.8038,-0.8038,-0.8038,-0.8038,-0.8038,-0.8038,-0.8038,-0.8038,-0.8038,-0.8038,-0.8038,-0.8038,-0.8038,-1.0727,-1.116,-1.1585,-1.1854,-1.1866,-1.1505,-1.1322,-1.1149,-1.0549,-1.0033,-0.9515,-0.8899,-0.8548,-0.8113,-0.7768,-0.7595,-0.7485,-0.7475,-0.74,-0.7567,-0.7767,-0.7983,-0.8268,-0.8427,-0.8674,-0.8913,-0.9023,-0.9027,-0.9126,-0.9229,-0.9331,-0.9335,-0.943,-0.9624,-0.9426,-0.9126,-0.8825,-0.863,-0.8336,-0.8038,-0.8038,-0.8038,-0.8038,-0.8038,-0.8038,-0.8038,-0.8038,-0.8038,-0.8038,-0.8038,-0.8038,-0.8137,-0.8134,-0.8134,-0.8333,-0.8432,-0.8531,-0.863,-0.873,-0.8832,-0.8829,-0.8829,-0.8829,-0.8726,-0.8531,-0.8333,-0.8237,-0.8137,-0.8038,-0.8038,-0.8038,-0.8038,-0.8038,-0.8038,-0.8038,-0.8038,-0.8038,-0.8038,-0.8038,-0.8038,-0.8038,-0.8038,-0.8038,-0.8038,-0.7939,-0.7942,-0.7842,-0.7839,-0.7839,-0.7743,-0.7743,-0.7842,-0.7942,-0.7939,-0.8038,-0.8038,-0.8038,-0.8038,-0.8038,-0.8038,-0.8038,-0.8038,-0.8038,-0.8038,-0.8038,-0.8038,-0.8038,-0.8038,-0.8038,-0.8038,-0.8038,-0.8038,-0.8038,-0.8038,-0.8038,-1.1596,-1.178,-1.1952,-1.1952,-1.1957,-1.1505,-1.1322,-1.1154,-1.0549,-1.0033,-0.9602,-0.9257,-0.8819,-0.8204,-0.7944,-0.7771,-0.7616,-0.7472,-0.7531,-0.7689,-0.7826,-0.8157,-0.856,-0.8914,-0.9299,-0.9469,-0.9719,-0.9723,-0.9525,-0.9723,-0.9727,-0.9529,-0.9533,-0.9529,-0.9232,-0.8931,-0.8627,-0.8432,-0.8237,-0.8038,-0.8038,-0.8038,-0.8038,-0.8038,-0.8038,-0.8038,-0.8038,-0.8038,-0.8038,-0.8038,-0.8237,-0.8336,-0.8432,-0.8531,-0.863,-0.8829,-0.8928,-0.913,-0.9229,-0.9229,-0.9229,-0.913,-0.913,-0.8825,-0.863,-0.8432,-0.8333,-0.8038,-0.8038,-0.8041,-0.8041,-0.8041,-0.8041,-0.8237,-0.8336,-0.8333,-0.8233,-0.8137,-0.8038,-0.8038,-0.8038,-0.8038,-0.8038,-0.7939,-0.7842,-0.7842,-0.7643,-0.764,-0.7537,-0.754,-0.7643,-0.7743,-0.7842,-0.7939,-0.8038,-0.8038,-0.8038,-0.8038,-0.8038,-0.8038,-0.8038,-0.8038,-0.8038,-0.8038,-0.8038,-0.8038,-0.8038,-0.8038,-0.8038,-0.8038,-0.8038,-0.8038,-0.8038,-0.8038,-0.8038]},{"header":{"parameterUnit":"m.s-1","parameterCategory":1,"la1":31.0,"la2":29.5877,"lo1":-88.7671,"lo2":-86.6584,"dy":0.0162,"dx":0.0185,"nx":115,"ny":88,"refTime":"2023-08-08T00:00:00:Z","depth":0,"parameterNumber":3,"parameterNumberName":"V-component_of_WINDS"},"data":[0.0,0.0,0.0,0.0,0.0,0.0,0.0,0.0,0.0,0.0,0.0,0.0,0.0,0.0,0.0,0.0,0.0,0.0,0.0,0.0,0.0,0.0,0.0,0.0,0.0,0.0,0.0,0.0,0.0,0.0,0.0,0.0,0.0,0.0,0.0,0.0,0.0,0.0,0.0,0.0,0.0,0.0,0.0,0.0,0.0,0.0,0.0,0.0,0.0,0.0,0.0,0.0,0.0,0.0,0.0,0.0,0.0,0.0,0.0,0.0,0.0,0.0,0.0,0.0,0.0,0.0,0.0,0.0,0.0,0.0,0.0,0.0,0.0,0.0,0.0,0.0,0.0,0.0,0.0,0.0,0.0,0.0,0.0,0.0,0.0,0.0,0.0,0.0,0.0,0.0,0.0,0.0,0.0,0.0,0.0,0.0,0.0,0.0,0.0,0.0,0.0,0.0,0.0,0.0,0.0,0.0,0.0,0.0,0.0,0.0,0.0,0.0,0.0,0.0,0.0,0.0,0.0,0.0,0.0,0.0,0.0,0.0,0.0,0.0,0.0,0.0,0.0,0.0,0.0,0.0,0.0,0.0,0.0,0.0,0.0,0.0,0.0,0.0,0.0,0.0,0.0,0.0,0.0,0.0,0.0,0.0,0.0,0.0,0.0,0.0,0.0,0.0,0.0,0.0,0.0,0.0,0.0,0.0,0.0,0.0,0.0,0.0,0.0,0.0,0.0,0.0,0.0,0.0,0.0,0.0,0.0,0.0,0.0,0.0,0.0,0.0,0.0,0.0,0.0,0.0,0.0,0.0,0.0,0.0,0.0,0.0,0.0,0.0,0.0,0.0,0.0,0.0,0.0,0.0,0.0,0.0,0.0,0.0,0.0,0.0,0.0,0.0,0.0,0.0,0.0,0.0,0.0,0.0,0.0,0.0,0.0,0.0,0.0,0.0,0.0,0.0,0.0,0.0,0.0,0.0,0.0,0.0,0.0,0.0,0.0,0.0,0.0,0.0,0.0,0.0,0.0,0.0,0.0,0.0,0.0,0.0,0.0,0.0,0.0,0.0,0.0,0.0,0.0,0.0,0.0,0.0,0.0,0.0,0.0,0.0,0.0,0.0,0.0,0.0,0.0,0.0,0.0,0.0,0.0,0.0,0.0,0.0,0.0,0.0,0.0,0.0,0.0,0.0,0.0,0.0,0.0,0.0,0.0,0.0,0.0,0.0,0.0,0.0,0.0,0.0,0.0,0.0,0.0,0.0,0.0,0.0,0.0,0.0,0.0,0.0,0.0,0.0,0.0,0.0,0.0,0.0,0.0,0.0,0.0,0.0,0.0,0.0,0.0,0.0,0.0,0.0,0.0,0.0,0.0,0.0,0.0,0.0,0.0,0.0,0.0,0.0,0.0,0.0,0.0,0.0,0.0,0.0,0.0,0.0,0.0,0.0,0.0,0.0,0.0,0.0,0.0,0.0,0.0,0.0,0.0,0.0,0.0,0.0,0.0,0.0,0.0,0.0,0.0,0.0,0.0,0.0,0.0,0.0,0.0,0.0,0.0,0.0,0.0,0.0,0.0,0.0,0.0,0.0,0.0,0.0,0.0,0.0,0.0,0.0,0.0,0.0,0.0,0.0,0.0,0.0,0.0,0.0,0.0,0.0,0.0,0.0,0.0,0.0,0.0,0.0,0.0,0.0,0.0,0.0,0.0,0.0,0.0,0.0,0.0,0.0,0.0,0.0,0.0,0.0,0.0,0.0,0.0,0.0,0.0,0.0,0.0,0.0,0.0,0.0,0.0,0.0,0.0,0.0,0.0,0.0,0.0,0.0,0.0,0.0,0.0,0.0,0.0,0.0,0.0,0.0,0.0,0.0,0.0,0.0,0.0,0.0,0.0,0.0,0.0,0.0,0.0,0.0,0.0,0.0,0.0,0.0,0.0,0.0,0.0,0.0,0.0,0.0,0.0,0.0,0.0,0.0,0.0,0.0,0.0,0.0,0.0,0.0,0.0,0.0,0.0,0.0,0.0,0.0,0.0,0.0,0.0,0.0,0.0,0.0,0.0,0.0,0.0,0.0,0.0,0.0,0.0,0.0,0.0,0.0,0.0,0.0,0.0,0.0,0.0,0.0,0.0,0.0,0.0,0.0,0.0,0.0,0.0,0.0,0.0,0.0,0.0,0.0,0.0,0.0,0.0,0.0,0.0,0.0,0.0,0.0,0.0,0.0,0.0,0.0,0.0,0.0,0.0,0.0,0.0,0.0,0.0,0.0,0.0,0.0,0.0,0.0,0.0,0.0,0.0,0.0,0.0,0.0,0.0,0.0,0.0,0.0,0.0,0.0,0.0,0.0,0.0,0.0,0.0,0.0,0.0,0.0,0.0,0.0,0.0,0.0,0.0,0.0,0.0,0.0,0.0,0.0,0.0,0.0,0.0,0.0,0.0,0.0,0.0,0.0,0.0,0.0,0.0,0.0,0.0,0.0,0.0,0.0,0.0,0.0,0.0,0.0,0.0,0.0,0.0,0.0,0.0,0.0,0.0,0.0,0.0,0.0,0.0,0.0,0.0,0.0,0.0,0.0,0.0,0.0,0.0,0.0,0.0,0.0,0.0,0.0,0.0,0.0,0.0,0.0,0.0,0.0,0.0,0.0,0.0,0.0,0.0,0.0,0.0,0.0,0.0,0.0,0.0,0.0,0.0,0.0,0.0,0.0,0.0,0.0,0.0,0.0,0.0,0.0,0.0,0.0,0.0,0.0,0.0,0.0,0.0,0.0,0.0,0.0,0.0,0.0,0.0,0.0,0.0,0.0,0.0,0.0,0.0,0.0,0.0,0.0,0.0,0.0,0.0,0.0,0.0,0.0,0.0,0.0,0.0,0.0,0.0,0.0,0.0,0.0,0.0,0.0,0.0,0.0,0.0,0.0,0.0,0.0,0.0,0.0,0.0,0.0,0.0,0.0,0.0,0.0,0.0,0.0,0.0,0.0,0.0,0.0,0.0,0.0,0.0,0.0,0.0,0.0,0.0,0.0,0.0,0.0,0.0,0.0,0.0,0.0,0.0,0.0,0.0,0.0,0.0,0.0,0.0,0.0,0.0,0.0,0.0,0.0,0.0,0.0,0.0,0.0,0.0,0.0,0.0,0.0,0.0,0.0,0.0,0.0,0.0,0.0,0.0,0.0,0.0,0.0,0.0,0.0,0.0,0.0,0.0,0.0,0.0,0.0,0.0,0.0,0.0,0.0,0.0,0.0,0.0,0.0,0.0,0.0,0.0,0.0,0.0,0.0,0.0,0.0,0.0,0.0,0.0,0.0,0.0,0.0,0.0,0.0,0.0,0.0,0.0,0.0,0.0,0.0,0.0,0.0,0.0,0.0,0.0,0.0,0.0,0.0,0.0,0.0,0.0,0.0,0.0,0.0,0.0,0.0,0.0,0.0,0.0,0.0,0.0,0.0,0.0,0.0,0.0,0.0,0.0,0.0,0.0,0.0,0.0,0.0,0.0,0.0,0.0,0.0,0.0,0.0,0.0,0.0,0.0,0.0,0.0,0.0,0.0,0.0,0.0,0.0,0.0,0.0,0.0,0.0,0.0,0.0,0.0,0.0,0.0,0.0,0.0,0.0,0.0,0.0,0.0,0.0,0.0,0.0,0.0,0.0,0.0,0.0,0.0,0.0,0.0,0.0,0.0,0.0,0.0,0.0,0.0,0.0,0.0,0.0,0.0,0.0,0.0,0.0,0.0,0.0,0.0,0.0,0.0,0.0,0.0,0.0,0.0,0.0,0.0,0.0,0.0,0.0,0.0,0.0,0.0,0.0,0.0,0.0,0.0,0.0,0.0,0.0,0.0,0.0,0.0,0.0,0.0,0.0,0.0,0.0,0.0,0.0,0.0,0.0,0.0,0.0,0.0,0.0,0.0,0.0,0.0,0.0,0.0,0.0,0.0,0.0,0.0,0.0,0.0,0.0,0.0,0.0,0.0,0.0,0.0,0.0,0.0,0.0,0.0,0.0,0.0,0.0,0.0,0.0,0.0,0.0,0.0,0.0,0.0,0.0,0.0,0.0,0.0,0.0,0.0,0.0,0.0,0.0,0.0,0.0,0.0,0.0,0.0,0.0,0.0,0.0,0.0,0.0,0.0,0.0,0.0,0.0,0.0,0.0,0.0,0.0,0.0,0.0,0.0,0.0,0.0,0.0,0.0,0.0,0.0,0.0,0.0,0.0,0.0,0.0,0.0,0.0,0.0,0.0,0.0,0.0,0.0,0.0,0.0,0.0,-3.9693,0.0,0.0,0.0,0.0,0.0,0.0,0.0,0.0,0.0,0.0,0.0,0.0,0.0,0.0,0.0,0.0,0.0,0.0,0.0,0.0,0.0,0.0,0.0,0.0,0.0,0.0,0.0,0.0,0.0,0.0,0.0,0.0,0.0,0.0,0.0,0.0,0.0,0.0,0.0,0.0,0.0,0.0,0.0,0.0,0.0,0.0,0.0,0.0,0.0,0.0,0.0,0.0,0.0,0.0,0.0,0.0,0.0,0.0,0.0,0.0,0.0,0.0,0.0,0.0,0.0,0.0,0.0,0.0,0.0,0.0,0.0,0.0,0.0,0.0,0.0,0.0,0.0,0.0,0.0,0.0,0.0,0.0,0.0,0.0,0.0,0.0,0.0,0.0,0.0,0.0,0.0,0.0,0.0,0.0,0.0,0.0,0.0,0.0,0.0,0.0,0.0,0.0,0.0,0.0,0.0,0.0,0.0,0.0,0.0,0.0,-3.9845,-3.9777,-3.9781,-3.9758,-3.9684,0.0,0.0,0.0,0.0,0.0,0.0,0.0,0.0,0.0,0.0,0.0,0.0,0.0,0.0,0.0,0.0,0.0,0.0,0.0,0.0,0.0,0.0,0.0,0.0,0.0,0.0,0.0,0.0,0.0,0.0,0.0,0.0,0.0,0.0,0.0,0.0,0.0,0.0,0.0,0.0,0.0,0.0,0.0,0.0,0.0,0.0,0.0,0.0,0.0,0.0,0.0,0.0,0.0,0.0,0.0,0.0,0.0,0.0,0.0,0.0,0.0,0.0,0.0,0.0,0.0,0.0,0.0,0.0,0.0,0.0,0.0,0.0,0.0,0.0,0.0,0.0,0.0,0.0,0.0,0.0,0.0,0.0,0.0,0.0,0.0,0.0,0.0,0.0,0.0,0.0,0.0,0.0,0.0,0.0,0.0,0.0,0.0,0.0,0.0,0.0,0.0,0.0,0.0,0.0,0.0,0.0,0.0,0.0,0.0,0.0,0.0,0.0,-3.9754,-3.9656,-3.9349,0.0,0.0,0.0,0.0,0.0,0.0,0.0,0.0,0.0,0.0,0.0,0.0,0.0,0.0,0.0,0.0,0.0,0.0,0.0,0.0,0.0,0.0,0.0,0.0,0.0,0.0,0.0,0.0,0.0,0.0,0.0,0.0,0.0,0.0,0.0,0.0,0.0,0.0,0.0,0.0,0.0,0.0,0.0,0.0,0.0,0.0,0.0,0.0,0.0,0.0,0.0,0.0,0.0,0.0,0.0,0.0,0.0,0.0,0.0,0.0,0.0,0.0,0.0,0.0,0.0,0.0,0.0,0.0,0.0,0.0,0.0,0.0,0.0,0.0,0.0,0.0,0.0,0.0,0.0,0.0,0.0,0.0,0.0,0.0,0.0,0.0,0.0,0.0,0.0,0.0,0.0,0.0,0.0,0.0,0.0,0.0,0.0,0.0,0.0,0.0,0.0,0.0,0.0,0.0,0.0,0.0,0.0,0.0,0.0,0.0,-3.9781,-3.9689,-3.9703,0.0,-3.8474,0.0,0.0,0.0,0.0,0.0,0.0,0.0,0.0,0.0,0.0,0.0,0.0,0.0,0.0,0.0,0.0,0.0,0.0,0.0,0.0,0.0,0.0,0.0,0.0,0.0,0.0,0.0,0.0,0.0,0.0,0.0,0.0,0.0,0.0,0.0,0.0,0.0,0.0,0.0,0.0,0.0,0.0,0.0,0.0,0.0,0.0,0.0,0.0,0.0,0.0,0.0,0.0,0.0,0.0,0.0,0.0,0.0,0.0,0.0,0.0,0.0,0.0,0.0,0.0,0.0,0.0,0.0,0.0,0.0,0.0,0.0,0.0,0.0,0.0,0.0,0.0,0.0,0.0,0.0,0.0,0.0,0.0,0.0,0.0,0.0,0.0,0.0,0.0,0.0,0.0,0.0,0.0,0.0,0.0,0.0,0.0,0.0,0.0,0.0,0.0,0.0,0.0,0.0,0.0,0.0,0.0,0.0,0.0,0.0,0.0,-3.9717,-3.9575,-3.9027,-3.8359,0.0,0.0,0.0,0.0,0.0,0.0,0.0,0.0,0.0,0.0,0.0,0.0,0.0,0.0,0.0,0.0,0.0,0.0,0.0,0.0,0.0,0.0,0.0,0.0,0.0,0.0,0.0,0.0,0.0,0.0,0.0,0.0,0.0,0.0,0.0,0.0,0.0,0.0,0.0,0.0,0.0,0.0,0.0,0.0,0.0,0.0,0.0,0.0,0.0,0.0,0.0,0.0,0.0,0.0,0.0,0.0,0.0,0.0,0.0,0.0,0.0,0.0,0.0,0.0,0.0,0.0,0.0,0.0,0.0,0.0,0.0,0.0,0.0,0.0,0.0,0.0,0.0,0.0,0.0,0.0,0.0,0.0,0.0,0.0,0.0,0.0,0.0,0.0,0.0,0.0,0.0,0.0,0.0,0.0,0.0,0.0,0.0,0.0,0.0,0.0,0.0,0.0,0.0,0.0,0.0,0.0,0.0,0.0,0.0,0.0,-3.9758,-3.9623,-3.9389,-3.8539,-3.771,-3.6994,0.0,0.0,0.0,0.0,0.0,0.0,0.0,0.0,0.0,0.0,0.0,0.0,0.0,0.0,0.0,0.0,0.0,0.0,0.0,0.0,0.0,0.0,0.0,0.0,0.0,0.0,0.0,0.0,0.0,0.0,0.0,0.0,0.0,0.0,0.0,0.0,0.0,0.0,0.0,0.0,0.0,0.0,0.0,0.0,0.0,0.0,0.0,0.0,0.0,0.0,0.0,0.0,0.0,0.0,0.0,0.0,0.0,0.0,0.0,0.0,0.0,0.0,0.0,0.0,0.0,0.0,0.0,0.0,0.0,0.0,0.0,0.0,0.0,0.0,0.0,0.0,0.0,0.0,0.0,0.0,0.0,0.0,0.0,0.0,0.0,0.0,0.0,0.0,0.0,0.0,0.0,0.0,0.0,0.0,0.0,0.0,0.0,0.0,0.0,0.0,0.0,0.0,0.0,0.0,0.0,0.0,0.0,0.0,-3.9766,-3.9604,-3.9427,-3.9219,-3.8428,-3.7608,0.0,0.0,0.0,0.0,0.0,0.0,0.0,0.0,0.0,0.0,0.0,0.0,0.0,0.0,0.0,0.0,0.0,0.0,0.0,0.0,0.0,0.0,0.0,0.0,0.0,0.0,0.0,0.0,0.0,0.0,0.0,0.0,0.0,0.0,0.0,0.0,0.0,0.0,0.0,0.0,0.0,0.0,0.0,0.0,0.0,0.0,0.0,0.0,0.0,0.0,0.0,0.0,0.0,0.0,0.0,0.0,0.0,0.0,0.0,0.0,0.0,0.0,0.0,0.0,0.0,0.0,0.0,0.0,0.0,0.0,0.0,0.0,0.0,0.0,0.0,0.0,0.0,0.0,0.0,0.0,0.0,0.0,0.0,0.0,0.0,0.0,0.0,0.0,0.0,0.0,0.0,0.0,0.0,0.0,0.0,0.0,0.0,0.0,0.0,0.0,0.0,0.0,0.0,0.0,0.0,0.0,0.0,0.0,0.0,-3.8874,-3.9088,-3.911,-3.897,-3.7637,-3.6786,0.0,0.0,0.0,0.0,0.0,0.0,0.0,0.0,0.0,0.0,0.0,0.0,0.0,0.0,0.0,0.0,0.0,0.0,0.0,0.0,0.0,0.0,0.0,0.0,0.0,0.0,0.0,0.0,0.0,0.0,0.0,0.0,0.0,0.0,0.0,0.0,0.0,0.0,0.0,0.0,0.0,0.0,0.0,0.0,0.0,0.0,0.0,0.0,0.0,0.0,0.0,0.0,0.0,0.0,0.0,0.0,0.0,0.0,0.0,0.0,0.0,0.0,0.0,0.0,0.0,0.0,0.0,0.0,0.0,0.0,0.0,0.0,0.0,0.0,0.0,0.0,0.0,0.0,0.0,0.0,0.0,0.0,0.0,0.0,0.0,0.0,0.0,0.0,0.0,0.0,0.0,0.0,0.0,0.0,0.0,0.0,0.0,0.0,0.0,0.0,0.0,0.0,0.0,0.0,0.0,0.0,0.0,0.0,0.0,-3.8184,0.0,-3.8844,-3.8688,-3.7103,-3.624,0.0,0.0,0.0,0.0,0.0,0.0,0.0,0.0,0.0,0.0,0.0,0.0,0.0,0.0,0.0,0.0,0.0,0.0,0.0,0.0,0.0,0.0,0.0,0.0,0.0,0.0,0.0,0.0,0.0,0.0,0.0,0.0,0.0,0.0,0.0,0.0,0.0,0.0,0.0,0.0,0.0,0.0,0.0,0.0,0.0,0.0,0.0,0.0,0.0,0.0,0.0,0.0,0.0,0.0,0.0,0.0,0.0,0.0,0.0,0.0,0.0,0.0,0.0,0.0,0.0,0.0,0.0,0.0,0.0,0.0,0.0,0.0,0.0,0.0,0.0,0.0,0.0,0.0,0.0,0.0,0.0,0.0,0.0,0.0,0.0,0.0,0.0,0.0,0.0,0.0,0.0,0.0,0.0,0.0,0.0,0.0,0.0,0.0,0.0,0.0,0.0,0.0,0.0,0.0,0.0,0.0,0.0,0.0,-3.6531,-3.7748,-3.8283,-3.8541,-3.8378,-3.6856,-3.603,0.0,0.0,0.0,0.0,0.0,0.0,0.0,0.0,0.0,0.0,0.0,0.0,0.0,0.0,0.0,0.0,0.0,0.0,0.0,0.0,0.0,0.0,0.0,0.0,0.0,0.0,0.0,0.0,0.0,0.0,0.0,0.0,0.0,0.0,0.0,0.0,0.0,0.0,0.0,0.0,0.0,0.0,0.0,0.0,0.0,0.0,0.0,0.0,0.0,0.0,0.0,0.0,0.0,0.0,0.0,0.0,0.0,0.0,0.0,0.0,0.0,0.0,0.0,0.0,0.0,0.0,0.0,0.0,0.0,0.0,0.0,0.0,0.0,0.0,0.0,0.0,0.0,0.0,0.0,0.0,0.0,0.0,0.0,0.0,0.0,0.0,0.0,0.0,0.0,0.0,0.0,0.0,0.0,0.0,0.0,0.0,0.0,0.0,0.0,0.0,0.0,0.0,0.0,0.0,0.0,0.0,0.0,0.0,0.0,-3.6701,-3.7734,-3.8201,-3.8083,-3.7109,-3.6359,0.0,0.0,0.0,0.0,0.0,0.0,0.0,0.0,0.0,0.0,0.0,0.0,0.0,0.0,0.0,0.0,0.0,0.0,0.0,0.0,0.0,0.0,0.0,0.0,0.0,0.0,0.0,0.0,0.0,0.0,0.0,0.0,0.0,0.0,0.0,0.0,0.0,0.0,0.0,0.0,0.0,0.0,0.0,0.0,0.0,0.0,0.0,0.0,0.0,0.0,0.0,0.0,0.0,0.0,0.0,0.0,0.0,0.0,0.0,0.0,0.0,0.0,0.0,0.0,0.0,0.0,0.0,0.0,0.0,0.0,0.0,0.0,0.0,0.0,0.0,0.0,0.0,0.0,0.0,0.0,0.0,0.0,0.0,0.0,0.0,0.0,0.0,0.0,0.0,0.0,0.0,0.0,0.0,0.0,0.0,0.0,0.0,0.0,0.0,0.0,0.0,0.0,0.0,0.0,0.0,0.0,0.0,0.0,0.0,-3.6455,-3.7416,-3.788,-3.7774,-3.7021,-3.6299,-3.577,0.0,0.0,0.0,0.0,0.0,0.0,0.0,0.0,0.0,0.0,0.0,0.0,0.0,0.0,0.0,0.0,0.0,0.0,0.0,0.0,0.0,0.0,0.0,0.0,0.0,0.0,0.0,0.0,0.0,0.0,0.0,0.0,0.0,0.0,0.0,0.0,0.0,0.0,0.0,0.0,0.0,0.0,0.0,0.0,0.0,0.0,0.0,0.0,0.0,0.0,0.0,0.0,0.0,0.0,0.0,0.0,0.0,0.0,0.0,0.0,0.0,0.0,0.0,0.0,0.0,0.0,0.0,0.0,0.0,0.0,0.0,0.0,0.0,0.0,0.0,0.0,0.0,0.0,0.0,0.0,0.0,0.0,0.0,0.0,0.0,0.0,0.0,0.0,0.0,0.0,0.0,0.0,0.0,0.0,0.0,0.0,0.0,0.0,0.0,0.0,0.0,0.0,0.0,0.0,0.0,0.0,0.0,0.0,-3.6811,-3.7309,-3.754,-3.7411,-3.6701,-3.6043,0.0,0.0,0.0,0.0,0.0,0.0,0.0,0.0,0.0,0.0,0.0,0.0,0.0,0.0,0.0,0.0,0.0,0.0,0.0,0.0,0.0,0.0,0.0,0.0,0.0,0.0,0.0,0.0,0.0,0.0,0.0,0.0,0.0,0.0,0.0,0.0,0.0,0.0,0.0,0.0,0.0,0.0,0.0,0.0,0.0,0.0,0.0,0.0,0.0,0.0,0.0,0.0,0.0,0.0,0.0,0.0,0.0,0.0,0.0,0.0,0.0,0.0,0.0,0.0,0.0,0.0,0.0,0.0,0.0,0.0,0.0,0.0,0.0,0.0,0.0,0.0,0.0,0.0,0.0,0.0,0.0,0.0,0.0,0.0,0.0,0.0,0.0,0.0,0.0,0.0,0.0,0.0,0.0,0.0,0.0,0.0,0.0,0.0,0.0,0.0,0.0,0.0,0.0,0.0,0.0,0.0,0.0,0.0,0.0,-3.6811,-3.7238,-3.7411,-3.7411,-3.7307,-3.7005,0.0,0.0,0.0,0.0,0.0,0.0,0.0,0.0,0.0,0.0,0.0,0.0,0.0,0.0,0.0,0.0,0.0,0.0,0.0,0.0,0.0,0.0,0.0,0.0,0.0,0.0,0.0,0.0,0.0,0.0,0.0,0.0,0.0,0.0,0.0,0.0,0.0,0.0,0.0,0.0,0.0,0.0,0.0,0.0,0.0,0.0,0.0,0.0,0.0,0.0,0.0,0.0,0.0,0.0,0.0,0.0,0.0,0.0,0.0,0.0,0.0,0.0,0.0,0.0,0.0,0.0,0.0,0.0,0.0,0.0,0.0,0.0,0.0,0.0,0.0,0.0,0.0,0.0,0.0,0.0,0.0,0.0,0.0,0.0,0.0,0.0,0.0,0.0,0.0,0.0,0.0,0.0,0.0,0.0,0.0,0.0,0.0,0.0,0.0,0.0,0.0,0.0,0.0,0.0,0.0,0.0,0.0,0.0,-3.6571,-3.7362,-3.7576,-3.7595,-3.7522,-3.7522,-3.7274,0.0,0.0,0.0,0.0,0.0,0.0,0.0,0.0,0.0,0.0,0.0,0.0,0.0,0.0,0.0,0.0,0.0,0.0,0.0,0.0,0.0,0.0,0.0,0.0,0.0,0.0,0.0,0.0,0.0,0.0,0.0,0.0,0.0,0.0,0.0,0.0,0.0,0.0,0.0,0.0,0.0,0.0,0.0,0.0,0.0,0.0,0.0,0.0,0.0,0.0,0.0,0.0,0.0,0.0,0.0,0.0,0.0,0.0,0.0,0.0,0.0,0.0,0.0,0.0,0.0,0.0,0.0,0.0,0.0,0.0,0.0,0.0,0.0,0.0,0.0,0.0,0.0,0.0,0.0,0.0,0.0,0.0,0.0,0.0,0.0,0.0,0.0,0.0,0.0,0.0,0.0,0.0,0.0,0.0,0.0,0.0,0.0,0.0,0.0,0.0,0.0,0.0,0.0,0.0,0.0,0.0,0.0,0.0,-3.6953,-3.8212,-3.8101,-3.7949,-3.7739,-3.7559,-3.7292,0.0,0.0,0.0,0.0,0.0,0.0,0.0,0.0,0.0,0.0,0.0,0.0,0.0,0.0,0.0,0.0,0.0,0.0,0.0,0.0,0.0,0.0,0.0,0.0,0.0,0.0,0.0,0.0,0.0,0.0,0.0,0.0,0.0,0.0,0.0,0.0,0.0,0.0,0.0,0.0,0.0,0.0,0.0,0.0,0.0,0.0,0.0,0.0,0.0,0.0,0.0,0.0,0.0,0.0,0.0,0.0,0.0,0.0,0.0,0.0,0.0,0.0,0.0,0.0,0.0,0.0,0.0,0.0,0.0,0.0,0.0,0.0,0.0,0.0,0.0,0.0,0.0,0.0,0.0,0.0,0.0,0.0,0.0,0.0,0.0,0.0,0.0,0.0,0.0,0.0,0.0,0.0,0.0,0.0,0.0,0.0,0.0,0.0,0.0,0.0,0.0,0.0,0.0,0.0,0.0,0.0,0.0,0.0,-3.704,-3.8392,-3.8322,-3.8171,-3.8,-3.7915,-3.7877,0.0,0.0,0.0,0.0,0.0,0.0,0.0,0.0,0.0,0.0,0.0,0.0,0.0,0.0,0.0,0.0,0.0,0.0,0.0,0.0,0.0,0.0,0.0,0.0,0.0,0.0,0.0,0.0,0.0,0.0,0.0,0.0,0.0,0.0,0.0,0.0,0.0,0.0,0.0,0.0,0.0,0.0,0.0,0.0,0.0,0.0,0.0,0.0,-4.4097,0.0,0.0,0.0,0.0,0.0,0.0,0.0,0.0,0.0,0.0,0.0,0.0,0.0,0.0,0.0,0.0,0.0,0.0,0.0,0.0,0.0,0.0,0.0,0.0,0.0,0.0,0.0,0.0,0.0,0.0,0.0,0.0,0.0,0.0,0.0,0.0,0.0,0.0,0.0,0.0,0.0,0.0,0.0,0.0,0.0,0.0,0.0,0.0,0.0,0.0,0.0,0.0,0.0,0.0,0.0,0.0,0.0,0.0,0.0,-3.7258,-3.8681,-3.8559,-3.8419,-3.83,-3.8234,-3.8271,0.0,0.0,0.0,0.0,0.0,0.0,0.0,0.0,0.0,0.0,0.0,0.0,0.0,0.0,0.0,0.0,0.0,0.0,0.0,0.0,0.0,0.0,0.0,0.0,0.0,0.0,0.0,0.0,0.0,0.0,0.0,0.0,0.0,0.0,0.0,0.0,0.0,0.0,0.0,0.0,0.0,0.0,0.0,0.0,0.0,0.0,0.0,0.0,0.0,0.0,0.0,0.0,0.0,0.0,0.0,0.0,0.0,0.0,0.0,0.0,0.0,0.0,0.0,0.0,0.0,0.0,0.0,0.0,0.0,0.0,0.0,0.0,0.0,0.0,0.0,0.0,0.0,0.0,0.0,0.0,0.0,0.0,0.0,0.0,0.0,0.0,0.0,0.0,0.0,0.0,0.0,0.0,0.0,0.0,0.0,0.0,0.0,0.0,0.0,0.0,0.0,0.0,0.0,0.0,0.0,0.0,0.0,-3.6826,-3.7458,-3.8924,-3.8822,-3.867,-3.8541,-3.8541,-3.8528,-3.8446,0.0,0.0,0.0,0.0,0.0,0.0,0.0,0.0,0.0,0.0,0.0,0.0,0.0,0.0,0.0,0.0,0.0,0.0,0.0,0.0,0.0,0.0,0.0,0.0,0.0,0.0,0.0,0.0,0.0,0.0,0.0,0.0,0.0,0.0,0.0,0.0,0.0,0.0,-4.4052,-4.4712,0.0,0.0,0.0,0.0,0.0,0.0,0.0,0.0,-4.4582,0.0,0.0,0.0,0.0,0.0,0.0,0.0,0.0,0.0,0.0,0.0,0.0,0.0,0.0,0.0,0.0,0.0,0.0,0.0,0.0,0.0,0.0,0.0,0.0,0.0,0.0,0.0,0.0,0.0,0.0,0.0,0.0,0.0,0.0,0.0,0.0,0.0,0.0,0.0,0.0,0.0,0.0,0.0,0.0,0.0,0.0,0.0,0.0,0.0,0.0,0.0,0.0,0.0,0.0,0.0,0.0,-3.6967,-3.6833,-3.7511,-3.9036,-3.8892,-3.8762,-3.8743,-3.8701,-3.8689,-3.8688,0.0,0.0,0.0,0.0,0.0,0.0,0.0,0.0,0.0,0.0,0.0,0.0,0.0,0.0,0.0,0.0,0.0,0.0,0.0,0.0,0.0,0.0,0.0,0.0,0.0,0.0,0.0,0.0,0.0,0.0,0.0,0.0,0.0,0.0,0.0,0.0,0.0,0.0,0.0,-4.503,-4.4991,0.0,0.0,0.0,0.0,0.0,0.0,0.0,0.0,-4.5944,0.0,0.0,0.0,0.0,0.0,0.0,0.0,0.0,0.0,0.0,0.0,0.0,0.0,0.0,0.0,0.0,0.0,0.0,0.0,0.0,0.0,0.0,0.0,0.0,0.0,0.0,0.0,0.0,0.0,0.0,0.0,0.0,0.0,0.0,0.0,0.0,0.0,0.0,0.0,0.0,0.0,0.0,0.0,0.0,0.0,0.0,0.0,0.0,0.0,0.0,0.0,0.0,0.0,0.0,0.0,-3.6929,-3.6907,-3.759,-3.9082,-3.8979,-3.891,-3.8851,-3.8822,-3.8637,0.0,0.0,0.0,0.0,0.0,0.0,0.0,0.0,0.0,0.0,0.0,0.0,0.0,0.0,0.0,0.0,0.0,0.0,0.0,0.0,0.0,0.0,0.0,0.0,0.0,0.0,0.0,0.0,0.0,0.0,0.0,0.0,0.0,0.0,0.0,0.0,0.0,0.0,0.0,0.0,-4.5057,-4.4895,-4.4685,0.0,0.0,0.0,0.0,0.0,0.0,-4.4589,-4.5416,0.0,0.0,0.0,0.0,0.0,0.0,0.0,0.0,0.0,0.0,0.0,0.0,0.0,0.0,0.0,0.0,0.0,0.0,0.0,0.0,0.0,0.0,0.0,0.0,0.0,0.0,0.0,0.0,0.0,0.0,0.0,0.0,0.0,0.0,0.0,0.0,0.0,0.0,0.0,0.0,0.0,0.0,0.0,0.0,0.0,0.0,0.0,0.0,0.0,0.0,0.0,0.0,0.0,0.0,0.0,-3.6948,-3.71,-3.7809,-3.9136,-3.9064,-3.8979,-3.8921,-3.8762,-3.8356,0.0,0.0,0.0,0.0,0.0,0.0,0.0,0.0,0.0,0.0,0.0,0.0,0.0,0.0,0.0,0.0,0.0,0.0,0.0,0.0,0.0,0.0,0.0,0.0,0.0,0.0,0.0,0.0,0.0,0.0,0.0,0.0,0.0,0.0,0.0,0.0,0.0,0.0,0.0,0.0,0.0,-4.4796,-4.4605,-4.4496,0.0,0.0,0.0,0.0,-4.3582,-4.4191,0.0,0.0,0.0,0.0,0.0,0.0,0.0,0.0,0.0,0.0,0.0,0.0,0.0,0.0,0.0,0.0,0.0,0.0,0.0,0.0,0.0,0.0,0.0,0.0,0.0,0.0,0.0,0.0,0.0,0.0,0.0,0.0,0.0,0.0,0.0,0.0,0.0,0.0,0.0,0.0,0.0,0.0,0.0,0.0,0.0,0.0,0.0,0.0,0.0,0.0,0.0,0.0,0.0,0.0,0.0,0.0,-3.6986,-3.7642,-3.835,-3.9154,-3.9045,-3.8997,-3.8979,-3.8237,-3.783,0.0,0.0,0.0,0.0,0.0,0.0,0.0,0.0,0.0,0.0,0.0,0.0,0.0,0.0,0.0,0.0,0.0,0.0,0.0,0.0,0.0,0.0,0.0,0.0,0.0,0.0,0.0,0.0,0.0,0.0,0.0,0.0,0.0,0.0,0.0,0.0,0.0,0.0,0.0,0.0,0.0,-4.4719,-4.4542,-4.4288,-4.403,0.0,0.0,-4.3532,-4.3446,-4.4107,0.0,0.0,0.0,0.0,0.0,0.0,0.0,0.0,0.0,0.0,0.0,0.0,0.0,0.0,0.0,0.0,0.0,0.0,0.0,0.0,0.0,0.0,0.0,0.0,0.0,0.0,0.0,0.0,0.0,0.0,0.0,0.0,0.0,0.0,0.0,0.0,0.0,0.0,0.0,0.0,0.0,0.0,0.0,0.0,0.0,0.0,0.0,0.0,0.0,0.0,0.0,0.0,0.0,0.0,0.0,-3.6246,-3.6956,-3.7692,-3.8443,-3.9119,-3.9092,-3.8813,-3.8312,-3.797,-3.7386,0.0,0.0,0.0,0.0,0.0,0.0,0.0,0.0,0.0,0.0,0.0,0.0,0.0,0.0,0.0,0.0,0.0,0.0,0.0,0.0,0.0,0.0,0.0,0.0,0.0,0.0,0.0,0.0,0.0,0.0,0.0,0.0,0.0,0.0,0.0,0.0,0.0,0.0,0.0,0.0,0.0,0.0,-4.4306,-4.4531,0.0,0.0,0.0,-4.4046,-4.3484,0.0,0.0,0.0,0.0,0.0,0.0,0.0,0.0,0.0,0.0,0.0,0.0,0.0,0.0,0.0,0.0,0.0,0.0,0.0,0.0,0.0,0.0,0.0,0.0,0.0,0.0,0.0,0.0,0.0,0.0,0.0,0.0,0.0,0.0,0.0,0.0,0.0,0.0,0.0,0.0,0.0,0.0,0.0,0.0,0.0,0.0,0.0,0.0,0.0,0.0,0.0,0.0,0.0,0.0,0.0,0.0,0.0,-3.7212,-3.8028,-3.8641,-3.911,-3.9082,-3.8683,-3.7895,-3.7708,0.0,0.0,0.0,0.0,0.0,0.0,0.0,0.0,0.0,0.0,0.0,0.0,0.0,0.0,0.0,0.0,0.0,0.0,0.0,0.0,0.0,0.0,0.0,0.0,0.0,0.0,0.0,-3.9566,0.0,0.0,0.0,0.0,0.0,0.0,0.0,0.0,0.0,0.0,0.0,0.0,0.0,0.0,-4.4624,-4.4346,-4.4925,-4.5041,0.0,0.0,-4.4673,-4.3797,-4.3775,-4.3873,0.0,0.0,0.0,0.0,0.0,0.0,0.0,0.0,0.0,0.0,0.0,0.0,0.0,0.0,0.0,0.0,0.0,0.0,0.0,0.0,0.0,0.0,0.0,0.0,0.0,0.0,0.0,0.0,0.0,0.0,0.0,0.0,0.0,0.0,0.0,0.0,0.0,0.0,0.0,0.0,0.0,0.0,0.0,0.0,0.0,0.0,0.0,0.0,0.0,0.0,0.0,0.0,0.0,0.0,0.0,-3.8109,-3.8901,-3.9272,-3.9183,-3.9129,-3.8738,-3.7992,-3.7254,-3.6497,0.0,0.0,0.0,0.0,0.0,0.0,0.0,0.0,0.0,0.0,0.0,0.0,0.0,0.0,0.0,0.0,0.0,0.0,0.0,0.0,0.0,0.0,0.0,0.0,0.0,0.0,0.0,0.0,0.0,0.0,0.0,0.0,0.0,0.0,0.0,0.0,0.0,0.0,0.0,0.0,0.0,-4.5133,-4.4905,-4.5438,-4.5737,0.0,0.0,-4.5276,-4.4473,-4.4474,-4.4448,-4.39,0.0,0.0,0.0,0.0,0.0,0.0,0.0,0.0,0.0,0.0,0.0,0.0,0.0,0.0,0.0,0.0,0.0,0.0,0.0,0.0,0.0,0.0,0.0,0.0,0.0,0.0,0.0,0.0,0.0,0.0,0.0,0.0,0.0,0.0,0.0,0.0,0.0,0.0,0.0,0.0,0.0,0.0,0.0,0.0,0.0,0.0,0.0,0.0,0.0,0.0,0.0,0.0,0.0,-3.7957,-3.8203,-3.9039,-3.9418,-3.9346,-3.9301,-3.8686,-3.7343,-3.7007,-3.6272,0.0,0.0,0.0,0.0,0.0,0.0,0.0,0.0,0.0,0.0,0.0,0.0,0.0,0.0,0.0,0.0,0.0,0.0,0.0,0.0,0.0,0.0,0.0,0.0,0.0,0.0,0.0,0.0,-4.0211,-4.0111,-3.9964,0.0,0.0,0.0,0.0,0.0,0.0,0.0,0.0,0.0,0.0,-4.513,-4.5369,-4.603,0.0,0.0,-4.6002,-4.6154,-4.5275,-4.5003,-4.4807,-4.4646,-4.4389,0.0,0.0,0.0,0.0,0.0,0.0,0.0,0.0,0.0,0.0,0.0,0.0,0.0,0.0,0.0,0.0,0.0,0.0,0.0,0.0,0.0,0.0,0.0,0.0,0.0,0.0,0.0,0.0,0.0,0.0,0.0,0.0,0.0,0.0,0.0,0.0,0.0,0.0,0.0,0.0,0.0,0.0,0.0,0.0,0.0,0.0,0.0,0.0,0.0,0.0,0.0,0.0,-3.8407,-3.8646,-3.9195,-3.9488,-3.9444,-3.9399,-3.8726,-3.7343,-3.7087,-3.6307,0.0,0.0,0.0,0.0,0.0,0.0,0.0,0.0,0.0,0.0,0.0,0.0,0.0,0.0,0.0,0.0,0.0,0.0,0.0,0.0,0.0,0.0,0.0,0.0,0.0,0.0,0.0,0.0,-4.0549,-4.0537,-4.0651,0.0,0.0,0.0,0.0,0.0,0.0,0.0,0.0,0.0,0.0,-4.5607,-4.5915,-4.6642,-4.6855,-4.6146,-4.6785,-4.7071,-4.6192,-4.59,-4.5753,-4.556,0.0,0.0,0.0,0.0,0.0,0.0,0.0,0.0,0.0,0.0,0.0,0.0,0.0,0.0,0.0,0.0,0.0,0.0,0.0,0.0,0.0,0.0,0.0,0.0,0.0,0.0,0.0,0.0,0.0,0.0,0.0,0.0,0.0,0.0,0.0,0.0,0.0,0.0,0.0,0.0,0.0,0.0,0.0,0.0,0.0,0.0,0.0,0.0,0.0,0.0,0.0,0.0,0.0,-3.8732,-3.9564,-3.9546,-3.9514,-3.9514,-3.9444,-3.9013,-3.8165,-3.7464,-3.6727,-3.591,0.0,0.0,0.0,0.0,0.0,0.0,0.0,0.0,0.0,0.0,0.0,0.0,0.0,0.0,0.0,0.0,0.0,0.0,0.0,0.0,0.0,0.0,0.0,0.0,0.0,0.0,-4.0588,-4.0377,-4.0502,0.0,0.0,0.0,0.0,0.0,0.0,0.0,0.0,0.0,0.0,-4.6067,-4.6773,-4.6509,-4.7174,-4.7627,-4.7609,-4.7933,-4.7915,-4.7186,-4.7367,-4.7386,0.0,0.0,0.0,0.0,0.0,0.0,0.0,0.0,0.0,0.0,0.0,0.0,0.0,0.0,0.0,0.0,0.0,0.0,0.0,0.0,0.0,0.0,0.0,0.0,0.0,0.0,0.0,-4.0726,-4.0631,0.0,0.0,0.0,0.0,0.0,0.0,0.0,0.0,0.0,0.0,0.0,-4.1468,-4.1704,0.0,0.0,0.0,0.0,0.0,0.0,0.0,0.0,0.0,0.0,0.0,0.0,-3.9637,-4.0403,-3.9927,-3.9883,-4.0391,-3.9902,-3.9207,-3.8432,-3.8199,-3.7492,-3.6195,0.0,0.0,0.0,0.0,0.0,0.0,0.0,0.0,0.0,0.0,0.0,0.0,0.0,0.0,0.0,0.0,0.0,0.0,0.0,0.0,0.0,0.0,0.0,0.0,0.0,-4.0441,0.0,0.0,0.0,0.0,0.0,0.0,0.0,0.0,0.0,0.0,0.0,-4.5419,-4.6302,-4.6614,-4.6906,-4.7228,-4.7578,-4.7801,0.0,0.0,0.0,0.0,0.0,0.0,0.0,0.0,0.0,0.0,0.0,0.0,0.0,0.0,-4.8815,-4.7447,-4.7099,-4.699,-4.6873,0.0,0.0,0.0,0.0,0.0,0.0,0.0,0.0,0.0,0.0,0.0,0.0,0.0,0.0,0.0,0.0,-4.1323,0.0,0.0,0.0,0.0,0.0,0.0,0.0,0.0,-4.2101,-4.2347,-4.2347,-4.2602,-4.271,0.0,-4.2735,-4.2172,0.0,0.0,0.0,0.0,0.0,0.0,0.0,0.0,-4.0839,-4.1348,-4.0877,-4.0882,-4.1354,-4.0637,-3.9981,-3.9422,-3.8923,-3.8077,-3.6824,-3.6821,-3.6908,0.0,0.0,0.0,0.0,0.0,0.0,0.0,0.0,0.0,0.0,0.0,0.0,0.0,0.0,0.0,0.0,0.0,0.0,0.0,0.0,0.0,0.0,0.0,-4.0366,0.0,0.0,0.0,0.0,0.0,0.0,0.0,0.0,0.0,-4.5289,-4.5323,-4.5731,-4.693,-4.7065,-4.7243,-4.7645,0.0,0.0,0.0,0.0,0.0,0.0,0.0,-4.8278,-4.8389,-4.8059,-4.7845,-4.7935,-4.8465,-4.9089,-4.9776,0.0,0.0,-4.8258,-4.7964,-4.7834,-4.7735,-4.7635,-4.749,-4.7259,-4.7124,-4.6929,0.0,0.0,0.0,0.0,0.0,0.0,0.0,0.0,-4.2731,-4.2775,0.0,-4.2726,0.0,0.0,0.0,0.0,0.0,0.0,0.0,0.0,-4.2564,-4.2545,-4.2678,-4.3455,-4.3839,-4.3815,-4.382,-4.3801,-4.3701,-4.282,0.0,0.0,0.0,0.0,0.0,0.0,-4.227,-4.2361,-4.2304,-4.2328,-4.2416,-4.1658,-4.1222,-4.1149,-3.9678,-3.8518,-3.7804,-3.7888,-3.7986,-3.8041,-3.8112,0.0,0.0,0.0,0.0,0.0,0.0,0.0,0.0,0.0,0.0,0.0,0.0,0.0,0.0,0.0,0.0,0.0,0.0,0.0,0.0,-4.0824,0.0,0.0,0.0,0.0,0.0,0.0,0.0,0.0,0.0,0.0,-4.523,-4.5709,-4.6269,-4.687,0.0,0.0,0.0,0.0,-4.809,-4.8187,-4.855,-4.8822,-4.889,-4.9127,-4.9289,-4.9289,0.0,0.0,-4.9644,-4.9692,-4.9712,-4.9871,-4.9778,-4.9692,-4.9655,-4.948,-4.9365,-4.9283,-4.9145,-4.9104,-4.8906,-4.864,-4.8495,-4.5912,0.0,0.0,0.0,0.0,-4.6079,-4.6126,-4.6195,-4.6195,-4.5897,-4.5352,-4.4779,0.0,0.0,0.0,0.0,0.0,0.0,-4.376,-4.4303,-4.4891,-4.5456,-4.5975,-4.6228,-4.6341,-4.6316,-4.5778,-4.5556,-4.5518,-4.4687,-4.3548,-4.2158,0.0,0.0,0.0,0.0,-4.2769,-4.3304,-4.2791,-4.2835,-4.345,-4.269,-4.2007,-4.1495,-4.048,-3.9557,-3.8812,-3.8907,-3.8979,-3.9013,-3.91,0.0,0.0,0.0,0.0,0.0,0.0,0.0,0.0,0.0,0.0,0.0,0.0,0.0,0.0,0.0,0.0,0.0,0.0,0.0,-4.0673,-4.0823,-4.1041,0.0,0.0,0.0,0.0,0.0,0.0,0.0,0.0,0.0,-4.659,-4.6764,-4.7039,0.0,0.0,-4.7933,-4.8028,-4.813,-4.8306,-4.8606,0.0,0.0,0.0,-4.9308,-4.9384,-4.9514,-4.9574,-4.9634,-4.9692,-4.9711,-4.9721,-4.975,-4.9692,-4.9653,-4.9604,-4.9582,-4.949,-4.9459,-4.9327,-4.9211,-4.9064,-4.9319,-4.9381,-4.8407,-4.8505,-4.7395,-4.7162,-4.7624,-4.7713,-4.7739,-4.7824,-4.7826,-4.7582,-4.7106,-4.6607,-4.6109,-4.5572,-4.5032,0.0,0.0,0.0,-4.5639,-4.6045,-4.6559,-4.7048,-4.7479,-4.7479,-4.746,-4.7441,-4.6706,-4.6349,-4.633,-4.5544,-4.4674,-4.364,0.0,0.0,-4.317,-4.3514,-4.3914,-4.4393,-4.3975,-4.3958,-4.4476,-4.3713,-4.2794,-4.1711,-4.1226,-4.062,-3.9832,-3.9901,-3.9985,-3.9995,-4.007,-4.0364,0.0,0.0,0.0,0.0,0.0,0.0,0.0,0.0,0.0,0.0,0.0,-4.0818,-4.0773,0.0,0.0,0.0,-4.0852,-4.0941,-4.0591,-4.0984,0.0,0.0,0.0,0.0,0.0,0.0,0.0,-4.5929,-4.6076,-4.6483,-4.7432,-4.7699,-4.7924,-4.8288,-4.8247,-4.8247,-4.8363,0.0,-4.8642,-4.8927,-4.9046,-4.916,-4.9371,-4.9464,-4.9495,-4.9563,-4.9593,-4.9623,-4.9663,-4.9663,-4.9663,-4.9692,-4.9634,-4.9574,-4.9574,-4.9551,-4.9509,-4.9509,-4.939,-4.9257,-4.9127,-4.9368,-4.9378,-4.9875,-5.0491,-4.8754,-4.8056,-4.8015,-4.808,-4.8161,-4.8221,-4.8241,-4.824,-4.82,-4.8219,-4.8162,-4.803,-4.795,0.0,-4.7735,-4.7713,-4.769,-4.7715,-4.7715,-4.7753,-4.7791,-4.781,-4.781,-4.7767,-4.691,-4.6515,-4.6477,-4.5693,-4.5317,-4.5338,-4.5256,-4.4855,-4.419,-4.4897,-4.5339,-4.5399,-4.54,-4.54,-4.54,-4.463,-4.3492,-4.2086,-4.1957,-4.1561,-4.0868,-4.0796,-4.0834,-4.0888,-4.0898,-4.0935,-4.0996,0.0,0.0,0.0,0.0,0.0,0.0,0.0,0.0,0.0,0.0,0.0,0.0,0.0,0.0,0.0,-4.0272,0.0,-4.1326,-4.1393,0.0,0.0,0.0,-4.4329,-4.5668,-4.5811,-4.61,-4.6922,0.0,0.0,-4.7923,0.0,-4.882,-4.8606,-4.8532,-4.855,-4.8642,-4.8785,-4.8978,-4.9164,-4.9289,-4.9415,-4.9544,-4.9574,-4.9563,-4.9539,-4.9509,-4.9521,-4.9563,-4.9574,-4.9623,-4.9634,-4.9604,-4.9544,-4.9544,-4.9521,-4.9509,-4.949,-4.9415,-4.9296,-4.9211,-4.9195,-4.9078,-5.0615,-5.0803,-5.0347,-5.0085,-4.9951,-4.999,-5.0067,-5.0122,-5.0138,-4.9804,-4.9254,-4.9235,-4.8839,-4.8137,-4.8086,-4.801,-4.7932,-4.7869,-4.8146,-4.8651,-4.8662,-4.8958,-4.9499,-4.9518,-4.9493,-4.941,-4.8057,-4.7426,-4.7395,-4.6046,-4.5419,-4.5514,-4.5514,-4.538,-4.517,-4.5361,-4.5495,-4.5528,-4.5547,-4.5582,-4.5577,-4.4842,-4.4272,-4.394,-4.2659,-4.1925,-4.1834,-4.1227,-4.0878,-4.0887,-4.0949,-4.0991,-4.0979,-4.1059,0.0,0.0,0.0,0.0,0.0,0.0,0.0,0.0,0.0,-4.0688,-4.0612,0.0,-4.0457,0.0,-4.0709,-4.1326,-4.2056,-4.2697,0.0,0.0,-4.4764,-4.5647,-4.5972,-4.6449,-4.7061,-4.7859,-4.8052,-4.8328,-4.8927,-4.9158,-4.9239,-4.9193,-4.8959,-4.882,-4.8925,-4.8959,-4.9061,-4.9244,-4.9308,-4.9371,-4.9502,-4.9563,-4.9582,-4.9596,-4.957,-4.9532,-4.9402,-4.9371,-4.9371,-4.9327,-4.9308,-4.9327,-4.9377,-4.9377,-4.939,-4.9459,-4.9471,-4.939,-4.923,-4.962,-4.9743,-5.0956,-5.099,-5.099,-5.0925,-5.0844,-5.0825,-5.0861,-5.0893,-5.0925,-5.0666,-5.0269,-5.0186,-4.9904,-4.9396,-4.9294,-4.924,-4.9144,-4.9102,-4.9286,-4.9621,-4.9591,-4.9811,-5.0182,-5.0182,-5.0182,-5.0188,-4.8919,-4.8378,-4.8388,-4.7222,-4.6665,-4.6752,-4.6403,-4.6227,-4.6243,-4.5828,-4.5599,-4.5648,-4.5648,-4.5684,-4.5731,-4.5317,-4.494,-4.4576,-4.3318,-4.2493,-4.2228,-4.1374,-4.0963,-4.0957,-4.0979,-4.1013,-4.1039,-4.1085,-4.1078,0.0,0.0,0.0,0.0,0.0,0.0,0.0,0.0,0.0,0.0,0.0,-4.1069,-4.1245,-4.1578,-4.2113,-4.2905,-4.3417,-4.3834,-4.4213,-4.5407,-4.631,-4.6625,-4.7367,-4.8172,-4.8881,-4.8918,-4.9077,-4.9499,-4.9525,-4.9506,-4.9495,-4.9321,-4.9211,-4.9193,-4.9193,-4.9257,-4.9421,-4.9434,-4.9434,-4.9457,-4.9476,-4.9483,-4.9427,-4.9427,-4.9371,-4.9276,-4.9225,-4.9244,-4.923,-4.9197,-4.923,-4.9244,-4.9244,-4.9276,-4.934,-4.9384,-4.9334,-4.9211,-4.9545,-4.9559,-5.1114,-5.1081,-5.1081,-5.1081,-5.1101,-5.1034,-5.102,-5.1,-5.1067,-5.1081,-5.1087,-5.0956,-5.0906,-5.0906,-5.0793,-5.0663,-5.0606,-5.0429,-5.0306,-5.024,-5.008,-5.0,-5.0019,-5.0019,-5.0042,-5.0049,-4.9228,-4.8909,-4.9125,-4.8355,-4.806,-4.8183,-4.7519,-4.725,-4.7326,-4.639,-4.5827,-4.5715,-4.5715,-4.5746,-4.5795,-4.5819,-4.5479,-4.4783,-4.4009,-4.3199,-4.2393,-4.1585,-4.1112,-4.1006,-4.1013,-4.1098,-4.1247,-4.1247,-4.1286,0.0,-4.2046,0.0,0.0,0.0,0.0,0.0,0.0,0.0,0.0,-4.1779,-4.203,-4.2707,-4.2674,-4.2947,-4.3782,-4.3876,-4.4161,-4.4862,-4.584,-4.6738,-4.7372,-4.8327,-4.92,-4.9759,-4.9835,-4.9807,-4.975,-4.974,-4.9692,-4.9634,-4.9623,-4.9544,-4.9415,-4.9384,-4.9434,-4.9544,-4.9544,-4.9446,-4.9401,-4.9358,-4.9321,-4.9211,-4.9179,-4.9146,-4.9094,-4.9113,-4.9113,-4.9113,-4.9113,-4.9146,-4.9174,-4.916,-4.9179,-4.9193,-4.9214,-4.9196,-4.9179,-4.9179,-4.9043,-5.1146,-5.1082,-5.1082,-5.1089,-5.1101,-5.1087,-5.1081,-5.1102,-5.1082,-5.1089,-5.1101,-5.102,-5.0971,-5.099,-5.0825,-5.0775,-5.0699,-4.9913,-4.9527,-4.9487,-4.8754,-4.8445,-4.8445,-4.8426,-4.8426,-4.8409,-4.7606,-4.7643,-4.8365,-4.7587,-4.76,-4.8343,-4.8203,-4.8192,-4.8199,0.0,0.0,0.0,-4.5786,-4.58,-4.588,-4.588,-4.5841,-4.5728,-4.4965,0.0,-4.3352,-4.2521,-4.1746,-4.1124,-4.1085,0.0,0.0,0.0,0.0,0.0,0.0,0.0,0.0,0.0,0.0,0.0,-4.3962,-4.3494,-4.2753,-4.2565,-4.2829,-4.3569,-4.3618,-4.3958,-4.4775,-4.4851,-4.4909,-4.5099,-4.643,-4.7419,-4.761,-4.8903,-4.9886,-4.994,-4.9952,-4.9952,-4.9871,-4.9816,-4.9778,-4.975,-4.974,-4.9585,-4.9415,-4.9452,-4.944,-4.9352,-4.9308,-4.9276,-4.9233,-4.922,-4.909,-4.9036,-4.8946,-4.8872,-4.8692,-4.8657,-4.8677,-4.8694,-4.8804,-4.8855,-4.8959,-4.903,-4.9135,-4.9187,-4.9179,-4.9193,-4.9116,-4.9022,-4.8881,-5.1121,0.0,-5.1089,-5.1095,0.0,-5.1081,-5.1081,-5.1062,-5.1075,-5.1095,-5.1101,-5.1005,-5.0956,-5.0917,-5.0402,-5.014,-5.0121,-4.9125,-4.8663,-4.8644,-4.8201,-4.8009,-4.8009,-4.8029,-4.8068,-4.8086,-4.7703,-4.7983,-4.8885,-4.8522,-4.8798,-4.9711,-4.9324,-4.9155,-4.9159,-4.7913,-4.6784,-4.5847,-4.5847,-4.586,-4.5893,-4.5932,-4.5949,-4.5975,0.0,0.0,0.0,0.0,0.0,0.0,0.0,0.0,0.0,0.0,0.0,-4.3557,-4.3997,-4.4217,-4.4181,-4.4855,-4.5247,-4.5104,-4.4993,-4.453,-4.3616,-4.3407,-4.3689,-4.4491,-4.4519,-4.4665,-4.5045,-4.5103,-4.5103,-4.516,-4.6268,-4.7053,-4.7224,-4.8562,-4.9529,-4.9531,-4.981,-4.9986,-4.9852,-4.9835,-4.975,-4.9615,-4.9585,-4.9457,-4.9352,-4.9371,-4.9421,-4.9276,-4.9179,-4.8945,-4.8553,-4.8431,-4.82,-4.7733,-4.7566,-4.7529,-4.7441,-4.7405,-4.7534,-4.7885,-4.8105,-4.8303,-4.8763,-4.8943,-4.9015,-4.9049,-4.9064,-4.9012,-4.898,-4.8916,-4.8845,-5.1087,-5.1073,-5.1053,-5.1058,-5.1039,-5.1039,-5.1005,-5.0975,0.0,0.0,0.0,-5.0925,-5.0797,-5.0604,-4.9849,-4.941,-4.9218,-4.826,-4.7799,-4.7799,-4.7664,-4.7607,-4.7607,-4.7662,-4.781,-4.8028,-4.8004,-4.861,-4.9697,-4.9737,-5.0215,-5.0981,-5.0467,-5.0051,-4.9828,-4.8327,-4.7066,-4.6215,-4.5977,-4.5899,-4.5932,-4.596,-4.6005,-4.6017,-4.5395,-4.5004,-4.4869,-4.3532,-4.2682,-4.2559,-4.2539,-4.2617,-4.2773,-4.3436,-4.3897,-4.4078,-4.4732,-4.5098,-4.5055,-4.5647,-4.5968,-4.5808,-4.5692,-4.5274,-4.4498,-4.4346,-4.4554,-4.5262,-4.5213,-4.517,-4.5148,-4.5148,-4.5129,-4.5167,-4.5951,-4.653,-4.6606,-4.785,-4.8781,-4.8762,-4.9188,-4.9568,-4.9324,-4.9249,-4.9239,-4.8995,-4.8802,-4.884,-4.8768,-4.9001,-4.9182,-4.8903,-4.8677,-4.8386,-4.7664,-4.7392,-4.7067,-4.6463,-4.6262,-4.617,-4.6151,-4.617,-4.6428,-4.7002,-4.7256,-4.764,-4.8322,-4.8524,-4.8707,-4.8837,-4.8837,-4.8837,-4.8787,-4.879,-4.8753,-5.0995,-5.0932,-5.0932,-5.088,-5.0844,-5.0844,-5.0827,-5.0827,-5.0897,-5.0897,-5.0844,-5.0827,-5.0405,-4.9691,-4.9562,-4.9102,-4.8332,-4.7447,-4.7045,0.0,-4.6414,-4.6098,-4.6117,-4.6124,-4.6568,-4.7295,-4.7356,-4.8205,-4.9698,-4.9854,-5.0312,-5.1074,-5.1084,-5.0656,-4.9965,-4.8944,-4.8029,-4.7183,-4.6329,-4.5929,-4.5986,-4.5986,-4.6037,-4.6065,-4.6033,-4.5648,-4.4929,-4.465,-4.42,-4.3548,-4.3514,-4.3802,-4.4484,-4.464,-4.5064,-4.5768,-4.5949,-4.6006,-4.6002,-4.6075,-4.6035,-4.5886,-4.5819,-4.5661,-4.5432,-4.5341,-4.5323,-4.5381,-4.538,-4.5361,-4.5359,-4.5338,-4.5317,-4.5314,-4.5982,-4.6478,-4.6478,-4.7293,-4.7857,-4.7805,-4.7764,-4.7813,-4.7802,-4.7599,-4.7521,-4.7368,-4.7373,-4.7029,-4.714,-4.8032,-4.8568,-4.8088,-4.7747,-4.7291,-4.6644,-4.6406,-4.6244,-4.6155,-4.6007,-4.5862,-4.5754,-4.5772,-4.5882,-4.6121,-4.623,-4.6633,-4.7351,-4.7571,-4.7901,-4.8382,-4.8581,-4.8598,-4.8623,-4.8643,-4.8586,-5.0861,-5.0846,-5.0846,-5.081,-5.0793,-5.0756,-5.0757,-5.0757,-5.0776,-5.0813,-5.0793,-5.0756,-5.0526,-5.0082,-4.9199,-4.8852,-4.8833,-4.7574,-4.7243,-4.7626,-4.7386,-4.7273,-4.7287,-4.7301,-4.7544,-4.7989,-4.8021,-4.8677,-4.9867,-4.9943,-5.0388,-5.1195,-5.1253,-5.1051,-5.0653,-4.9331,-4.8494,-4.8085,-4.6727,-4.6026,-4.6047,-4.6056,-4.6083,-4.615,-4.6176,-4.6014,-4.5624,-4.5162,-4.4738,-4.4378,-4.4358,-4.4534,-4.4885,-4.5328,-4.5777,-4.6176,-4.6203,-4.6203,-4.6208,-4.6104,-4.6026,-4.5964,-4.5887,-4.5805,-4.5715,-4.5618,-4.5513,-4.5476,-4.5419,-4.5419,-4.5419,-4.5399,-4.5379,-4.5359,-4.5661,-4.581,-4.5884,-4.6549,-4.6976,-4.6915,-4.7201,-4.7345,-4.7174,-4.6995,-4.6836,-4.6763,-4.6522,-4.6338,-4.62,-4.6847,-4.7272,-4.6956,-4.6794,-4.6356,-4.5655,-4.5401,-4.5201,-4.4779,-4.4669,-4.4669,-4.458,-4.4617,-4.4836,-4.522,-4.542,-4.5821,-4.6541,-4.6757,-4.7143,-4.7736,-4.7955,-4.8048,-4.842,-4.8569,-4.855,-5.0775,-5.0775,-5.0794,-5.0794,-5.0776,-5.072,-5.0682,-5.0701,-5.0702,-5.074,-5.0793,-5.072,-5.0605,-5.0297,-4.9064,-4.8773,-4.9003,-4.7963,-4.7724,-4.8314,-4.847,-4.8521,-4.8534,-4.8591,-4.8759,-4.8963,-4.9002,-4.9449,-5.0224,-5.0316,-5.0653,-5.1258,-5.1317,-5.133,-5.1296,-4.9795,-4.8938,-4.8619,-4.7198,-4.6325,-4.6138,-4.6115,-4.6137,-4.6189,-4.6209,-4.6195,-4.6192,-4.5567,-4.5221,-4.5202,-4.5221,-4.5221,-4.5241,-4.5845,-4.6211,-4.6206,-4.6195,-4.6196,-4.6189,-4.6084,-4.6017,-4.5997,-4.5937,-4.5874,-4.5786,-4.57,-4.5603,-4.5531,-4.5495,-4.5457,-4.5438,-4.5419,-4.5418,-4.5379,-4.5338,-4.5314,-4.529,-4.578,-4.6092,-4.6019,-4.6417,-4.6607,-4.6468,-4.6304,-4.6029,-4.5774,-4.5719,-4.5616,-4.5582,-4.5547,-4.553,-4.5584,-4.5713,-4.544,-4.4741,-4.4522,-4.4195,-4.3552,-4.3534,-4.366,-4.3642,-4.3587,-4.3768,-4.4444,-4.4641,-4.506,-4.5706,-4.5978,-4.6311,-4.6906,-4.7111,-4.7369,-4.8087,-4.853,-4.8641,-5.0702,-5.0702,-5.0702,-5.0702,-5.0721,-5.0702,-5.0683,-5.0701,-5.0701,-5.0739,-5.0793,-5.072,-5.0297,-4.9642,-4.9444,-4.9054,-4.8562,-4.8329,-4.8385,-4.8542,-4.8561,-4.8603,-4.87,-4.871,-4.9114,-4.9792,-4.9878,-5.0341,-5.1154,-5.1201,-5.1299,-5.1394,-5.1394,-5.1394,-5.1271,-5.0413,-4.9555,-4.8794,-4.7852,-4.6989,-4.6255,-4.6196,-4.6209,-4.6206,-4.6206,-4.6211,-4.6284,-4.6206,-4.6171,-4.6179,-4.614,-4.6144,-4.616,-4.6238,-4.6249,-4.6211,-4.6206,-4.6209,-4.6193,-4.6149,-4.6066,-4.6007,-4.5941,-4.5867,-4.581,-4.575,-4.5687,-4.5673,-4.5603,-4.555,-4.5495,-4.5438,-4.5419,-4.5399,-4.5357,-4.5275,-4.5211,-4.516,-4.5124,-4.5052,-4.5051,-4.4768,-4.4881,-4.4677,-4.4326,-4.4214,-4.4183,-4.4149,-4.4044,-4.4044,-4.3991,-4.4009,-4.4377,-4.4487,-4.3918,-4.3608,-4.3626,-4.3497,-4.3479,-4.3513,-4.3548,-4.3582,-4.3689,-4.3974,-4.4007,-4.4373,-4.4835,-4.5134,-4.5426,-4.6149,-4.6468,-4.6673,-4.7387,-4.8264,-4.8781,-5.0683,-5.0683,-5.0683,-5.0683,-5.0683,-5.0702,-5.0682,-5.0701,-5.0757,-5.0793,-5.0846,-5.0844,-5.0634,-5.0289,-4.9856,-4.9691,-4.9868,-4.9485,-4.9594,-5.0076,-5.016,-5.0187,-5.0196,-5.0256,-5.0518,-5.0803,-5.0836,-5.1004,-5.1338,-5.139,-5.139,-5.1401,-5.1401,-5.1401,-5.1284,-5.0015,-4.9137,-4.8767,-4.7479,-4.6616,-4.6299,-4.6255,-4.6255,-4.6249,-4.6269,-4.6269,-4.6292,-4.6296,-4.6296,-4.63,-4.63,-4.63,-4.63,-4.6296,-4.6288,-4.6255,-4.6215,-4.6176,-4.6152,-4.6066,-4.6037,-4.5994,-4.5937,-4.5874,-4.5805,-4.5746,-4.5684,-4.569,-4.562,-4.5586,-4.5549,-4.5495,-4.5438,-4.54,-4.536,-4.5297,-4.5148,-4.5057,-4.4943,-4.4796,-4.4605,-4.4458,-4.4373,-4.4116,-4.3865,-4.3649,-4.36,-4.3582,-4.3513,-4.3513,-4.3548,-4.3603,-4.3931,-4.395,-4.3569,-4.3479,-4.3479,-4.3532,-4.3529,-4.3597,-4.3615,-4.3686,-4.3753,-4.3897,-4.3929,-4.4053,-4.4382,-4.4512,-4.4716,-4.5467,-4.6691,-4.727,-4.759,-4.8431,-4.9034,-5.0702,-5.0683,-5.0721,-5.074,-5.074,-5.0739,-5.0756,-5.0756,-5.0827,-5.0897,-5.096,-5.0956,-5.0952,-5.0894,-5.0351,-5.0453,-5.0908,-5.0495,-5.0597,-5.1191,-5.1292,-5.1316,-5.1342,-5.1369,-5.1386,-5.1396,-5.1372,-5.1377,-5.1394,-5.1394,-5.1394,-5.1394,-5.1394,-5.1394,-5.1258,-4.9872,-4.9032,-4.8701,-4.7373,-4.6554,-4.6339,-4.6292,-4.6292,-4.63,-4.63,-4.63,-4.63,-4.63,-4.63,-4.6296,-4.6296,-4.6296,-4.6273,-4.6264,-4.6255,-4.6265,-4.6203,-4.6149,-4.6076,-4.6016,-4.5964,-4.5937,-4.5906,-4.5852,-4.5776,-4.5731,-4.5687,-4.5673,-4.562,-4.5586,-4.5586,-4.5531,-4.5457,-4.5419,-4.538,-4.5297,-4.5103,-4.4991,-4.487,-4.4667,-4.4542,-4.4373,-4.4226,-4.4023,-4.3832,-4.3701,-4.3667,-4.3634,-4.36,-4.3634,-4.3667,-4.3667,-4.3771,-4.3771,-4.36,-4.3587,-4.3587,-4.36,-4.3664,-4.3693,-4.3697,-4.3832,-4.3961,-4.4097,-4.4128,-4.4195,-4.4367,-4.433,-4.4341,-4.5084,-4.6134,-4.726,-4.7386,-4.8353,-4.9015,-5.0702,-5.072,-5.0775,-5.0793,-5.0793,-5.0863,-5.0877,-5.089,-5.0956,-5.1015,-5.1082,-5.1082,-5.112,-5.1186,-5.1023,-5.1093,-5.1169,-5.1103,-5.1139,-5.1292,-5.1356,-5.1394,-5.1394,-5.1391,-5.1396,-5.1401,-5.1386,-5.139,-5.1394,-5.1394,-5.1394,-5.1394,-5.1394,-5.1394,-5.1258,-5.0399,-4.9599,-4.8779,-4.7861,-4.7081,-4.6417,-4.63,-4.63,-4.63,-4.63,-4.63,-4.63,-4.63,-4.6296,-4.6284,-4.6284,-4.626,-4.6211,-4.6206,-4.6195,-4.6183,-4.6122,-4.6095,-4.5997,-4.5941,-4.588,-4.5827,-4.5824,-4.5785,-4.5722,-4.569,-4.5673,-4.5603,-4.5603,-4.5586,-4.5586,-4.5531,-4.5476,-4.5381,-4.5341,-4.5213,-4.5014,-4.4895,-4.4738,-4.4551,-4.4401,-4.4226,-4.3979,-4.3915,-4.3883,-4.3818,-4.3804,-4.3804,-4.3753,-4.3786,-4.3786,-4.3818,-4.3851,-4.3865,-4.3804,-4.3775,-4.3778,-4.3789,-4.3841,-4.3899,-4.398,-4.4079,-4.4229,-4.4317,-4.4393,-4.4421,-4.4468,-4.4468,-4.4515,-4.4937,-4.5481,-4.6242,-4.7164,-4.7814,-4.8606,-5.0757,-5.0756,-5.0827,-5.0863,-5.0883,-5.0929,-5.0971,-5.0961,-5.1042,-5.1095,-5.1156,-5.1156,-5.1208,-5.1259,-5.124,-5.1249,-5.1267,-5.1284,-5.1308,-5.1375,-5.138,-5.1391,-5.1391,-5.1381,-5.139,-5.139,-5.139,-5.1394,-5.1394,-5.1394,-5.1394,-5.1394,-5.1394,-5.1394,-5.1141,-4.9989,-4.9091,-4.8681,-4.749,-4.6612,-4.6339,-4.63,-4.63,-4.6292,-4.6292,-4.6292,-4.6292,-4.6264,-4.624,-4.6236,-4.6236,-4.6206,-4.6195,-4.6164,-4.6107,-4.6075,-4.6016,-4.5941,-4.5893,-4.5841,-4.5805,-4.5761,-4.5731,-4.5719,-4.5709,-4.5673,-4.5657,-4.5622,-4.5586,-4.5586,-4.5586,-4.5568,-4.5532,-4.5419,-4.538,-4.5256,-4.5057,-4.4889,-4.4738,-4.4524,-4.4344,-4.4165,-4.4023,-4.3974,-4.391,-4.3883,-4.3915,-4.3897,-4.3865,-4.391,-4.4005,-4.4005,-4.4116,-4.4207,-4.4207,-4.4011,-4.3934,-4.3974,-4.3992,-4.4095,-4.4154,-4.4345,-4.4505,-4.4541,-4.464,-4.4719,-4.4719,-4.4745,-4.4745,-4.4877,-4.5406,-4.6029,-4.7053,-4.7727,-4.8643,-5.0841,-5.0877,-5.0929,-5.0979,-5.0975,-5.1015,-5.1056,-5.1076,-5.1125,-5.1189,-5.123,-5.122,-5.1267,-5.132,-5.1335,-5.1342,-5.133,-5.133,-5.1362,-5.14,-5.1396,-5.1386,-5.1386,-5.139,-5.1394,-5.1394,-5.1394,-5.1394,-5.1394,-5.1394,-5.1394,-5.1394,-5.1394,-5.1394,-5.1121,-4.9657,-4.8798,-4.8505,-4.7159,-4.63,-4.63,-4.6296,-4.6292,-4.6303,-4.6275,-4.627,-4.626,-4.6206,-4.6195,-4.6195,-4.6189,-4.6177,-4.6169,-4.6093,-4.6037,-4.5975,-4.5917,-4.5854,-4.58,-4.5781,-4.5754,-4.5703,-4.5687,-4.5671,-4.5676,-4.5657,-4.562,-4.5603,-4.5586,-4.5586,-4.5586,-4.5586,-4.555,-4.5438,-4.5419,-4.5277,-4.5033,-4.4895,-4.4738,-4.4524,-4.4344,-4.4195,-4.4097,-4.4097,-4.4085,-4.4023,-4.4067,-4.4116,-4.4085,-4.4158,-4.4229,-4.4229,-4.4354,-4.444,-4.4468,-4.4383,-4.4237,-4.4258,-4.428,-4.4318,-4.4383,-4.4595,-4.4738,-4.4796,-4.487,-4.4962,-4.501,-4.5014,-4.5033,-4.5029,-4.5271,-4.5803,-4.6738,-4.765,-4.8504,-5.1005,-5.0986,-5.1067,-5.1095,-5.1095,-5.1101,-5.1117,-5.1102,-5.1181,-5.1101,-5.0961,-5.1147,-5.1057,-5.131,-5.1213,-5.1341,-5.1391,-5.1391,-5.1396,-5.1401,-5.139,-5.1394,-5.1394,-5.1394,-5.1394,-5.1394,-5.1394,-5.1394,-5.1394,-5.1394,-5.1394,-5.1394,-5.1297,-5.1219,-5.1336,-4.9599,-4.872,-4.8369,-4.7081,-4.6319,-4.63,-4.6288,-4.6284,-4.6279,-4.6228,-4.6196,-4.6201,-4.6209,-4.619,-4.6176,-4.6115,-4.6111,-4.6085,-4.6025,-4.596,-4.5905,-4.5841,-4.5805,-4.5781,-4.5738,-4.569,-4.5673,-4.562,-4.5603,-4.5603,-4.5622,-4.5622,-4.5586,-4.5586,-4.5586,-4.5586,-4.5586,-4.555,-4.5438,-4.54,-4.5277,-4.508,-4.4943,-4.4796,-4.4551,-4.4401,-4.4333,-4.4304,-4.4285,-4.4285,-4.4266,-4.4325,-4.4383,-4.4383,-4.4421,-4.4487,-4.4496,-4.4578,-4.464,-4.4712,-4.4738,-4.4659,-4.4587,-4.4643,-4.4663,-4.4714,-4.484,-4.4962,-4.5033,-4.5065,-4.5151,-4.5194,-4.5197,-4.5194,-4.5233,-4.5421,-4.5646,-4.6523,-4.7414,-4.8134,-5.1056,-5.1076,-5.1132,-5.1175,-5.1167,-5.115,-5.0899,-5.041,-5.0388,-5.008,-4.966,-4.9588,-4.9926,-5.0419,-5.0508,-5.0825,-5.1381,-5.1386,-5.139,-5.139,-5.1394,-5.1394,-5.1394,-5.1394,-5.1394,-5.1394,-5.1394,-5.1394,-5.1394,-5.1394,-5.1394,-5.1297,-5.0789,-5.0516,-5.0418,-4.8857,-4.7959,-4.7842,-4.6878,-4.6308,-4.6288,-4.626,-4.6226,-4.6222,-4.6203,-4.6189,-4.6138,-4.613,-4.6141,-4.6132,-4.6066,-4.6017,-4.5953,-4.5912,-4.5841,-4.5819,-4.5765,-4.5738,-4.5722,-4.5673,-4.564,-4.564,-4.5603,-4.5603,-4.5586,-4.5586,-4.5586,-4.5586,-4.5586,-4.5586,-4.5586,-4.5586,-4.5568,-4.5457,-4.5419,-4.5338,-4.5148,-4.4919,-4.4719,-4.4605,-4.4487,-4.4458,-4.443,-4.4458,-4.444,-4.444,-4.4515,-4.4551,-4.4605,-4.4659,-4.4719,-4.477,-4.4821,-4.487,-4.4919,-4.4986,-4.4986,-4.4895,-4.491,-4.4919,-4.4972,-4.5038,-4.5148,-4.5235,-4.5279,-4.5341,-4.5361,-4.5361,-4.5361,-4.5341,-4.5417,-4.5854,-4.6464,-4.7109,-4.7812,-5.1189,-5.1141,-5.087,-5.0753,-5.0704,-5.0469,-5.0046,-4.9588,-4.9556,-4.9256,-4.8884,-4.8811,-4.9089,-4.9596,-4.9937,-5.0386,-5.0918,-5.1215,-5.1394,-5.1394,-5.1394,-5.1394,-5.1394,-5.1394,-5.1394,-5.1394,-5.1394,-5.1394,-5.1394,-5.1375,-5.1238,-5.0848,-5.036,-4.993,-4.956,-4.833,-4.7584,-4.7444,-4.6737,-4.6284,-4.6255,-4.622,-4.6177,-4.6169,-4.6146,-4.6104,-4.6046,-4.5994,-4.6014,-4.6025,-4.5972,-4.5893,-4.5854,-4.58,-4.5761,-4.5754,-4.5742,-4.5693,-4.5657,-4.564,-4.5586,-4.5586,-4.5586,-4.5586,-4.5586,-4.5586,-4.5568,-4.5568,-4.5531,-4.5513,-4.5513,-4.555,-4.555,-4.5513,-4.5477,-4.5379,-4.5235,-4.4967,-4.4821,-4.4745,-4.4712,-4.4659,-4.4659,-4.4659,-4.4659,-4.464,-4.4693,-4.4764,-4.4815,-4.4889,-4.4919,-4.4991,-4.5014,-4.5061,-4.5129,-4.5192,-4.5256,-4.5235,-4.5194,-4.5175,-4.5192,-4.5237,-4.532,-4.5361,-4.5419,-4.5438,-4.5476,-4.5476,-4.5476,-4.5457,-4.5438,-4.5688,-4.6107,-4.6758,-4.7388,-5.1198,-5.1062,-5.026,-4.9925,-4.9841,-4.9224,-4.888,-4.8722,-4.8733,-4.8621,-4.8547,-4.842,-4.8599,-4.8896,-4.9399,-4.9868,-5.0243,-5.0867,-5.1297,-5.1375,-5.1394,-5.1394,-5.1394,-5.1394,-5.1394,-5.1394,-5.1394,-5.1355,-5.118,-5.118,-5.0887,-5.0087,-4.9813,-4.9536,-4.8697,-4.7916,-4.7405,-4.7201,-4.6631,-4.627,-4.6201,-4.619,-4.6162,-4.6099,-4.6037,-4.5975,-4.5917,-4.5854,-4.5841,-4.588,-4.5833,-4.581,-4.5781,-4.5715,-4.5703,-4.5709,-4.5673,-4.5657,-4.5603,-4.5603,-4.5586,-4.5586,-4.5586,-4.5586,-4.5586,-4.555,-4.5532,-4.5495,-4.5457,-4.5419,-4.5419,-4.5457,-4.5475,-4.5495,-4.5495,-4.5438,-4.5317,-4.5125,-4.5014,-4.4991,-4.4943,-4.4895,-4.4895,-4.4914,-4.4895,-4.4919,-4.4967,-4.4991,-4.5038,-4.5084,-4.5148,-4.5192,-4.5194,-4.5216,-4.5279,-4.532,-4.538,-4.5361,-4.5341,-4.536,-4.5339,-4.538,-4.5438,-4.5476,-4.5495,-4.555,-4.5568,-4.5568,-4.555,-4.5513,-4.5495,-4.5457,-4.5803,-4.6455,-4.6934,-5.003,-4.9445,-4.9211,-4.912,-4.91,-4.8872,-4.841,-4.7894,-4.784,-4.7537,-4.7116,-4.6963,-4.7393,-4.792,-4.8174,-4.8896,-4.9852,-5.034,-5.0848,-5.1336,-5.1394,-5.1394,-5.1394,-5.1394,-5.1375,-5.1355,-5.1297,-5.1082,-5.0477,-5.0438,-4.9989,-4.915,-4.8619,-4.817,-4.7732,-4.7069,-4.6635,-4.6543,-4.6384,-4.6216,-4.6183,-4.6138,-4.6075,-4.6027,-4.5975,-4.5905,-4.5827,-4.5746,-4.5735,-4.5761,-4.5727,-4.5719,-4.5742,-4.5706,-4.5654,-4.564,-4.564,-4.5603,-4.5603,-4.5586,-4.5586,-4.5586,-4.5586,-4.5566,-4.5531,-4.5513,-4.5476,-4.5438,-4.5419,-4.54,-4.54,-4.5419,-4.5457,-4.5495,-4.5513,-4.5457,-4.5379,-4.5297,-4.5192,-4.5148,-4.5103,-4.508,-4.5061,-4.5084,-4.5106,-4.5125,-4.517,-4.5213,-4.5216,-4.5256,-4.5298,-4.532,-4.5341,-4.5361,-4.5381,-4.5438,-4.5457,-4.5476,-4.5476,-4.5457,-4.5438,-4.5438,-4.5495,-4.5531,-4.555,-4.5568,-4.5586,-4.5586,-4.5568,-4.5568,-4.5568,-4.555,-4.5742,-4.6205,-4.6551,-4.9254,-4.8767,-4.844,-4.8289,-4.823,-4.7899,-4.7455,-4.7049,-4.6975,-4.6741,-4.6358,-4.63,-4.6593,-4.7061,-4.7451,-4.8096,-4.9052,-4.9774,-5.0379,-5.0809,-5.1219,-5.1375,-5.1394,-5.1394,-5.1219,-5.0867,-5.0867,-5.034,-4.9677,-4.954,-4.9068,-4.8361,-4.7795,-4.7362,-4.6938,-4.6543,-4.6245,-4.6203,-4.6176,-4.6174,-4.6158,-4.6085,-4.6025,-4.5972,-4.5893,-4.5808,-4.5761,-4.5706,-4.5673,-4.5687,-4.5687,-4.5654,-4.5657,-4.5657,-4.564,-4.5586,-4.5586,-4.5586,-4.5586,-4.5586,-4.5586,-4.5586,-4.5586,-4.5568,-4.5513,-4.5476,-4.5438,-4.5419,-4.54,-4.5361,-4.5341,-4.5381,-4.5419,-4.5495,-4.5513,-4.5514,-4.5458,-4.5361,-4.532,-4.5279,-4.5258,-4.5237,-4.5237,-4.5258,-4.5279,-4.5279,-4.53,-4.5341,-4.5361,-4.54,-4.5438,-4.5438,-4.5438,-4.5438,-4.5476,-4.5513,-4.5532,-4.5531,-4.5531,-4.555,-4.5531,-4.5495,-4.5531,-4.5586,-4.5586,-4.5586,-4.5586,-4.5586,-4.5586,-4.5586,-4.5586,-4.5624,-4.5778,-4.5876,-4.6223,-4.8606,-4.8469,-4.778,-4.7471,-4.735,-4.6651,-4.6436,-4.6339,-4.6378,-4.6339,-4.63,-4.63,-4.6358,-4.6358,-4.7042,-4.753,-4.7764,-4.9032,-4.9677,-5.0126,-5.0555,-5.0867,-5.0828,-5.1043,-5.0653,-5.0067,-4.9969,-4.9462,-4.8876,-4.8662,-4.8185,-4.7552,-4.7333,-4.6957,-4.6474,-4.6209,-4.6209,-4.6162,-4.613,-4.6075,-4.6066,-4.5994,-4.5937,-4.5893,-4.5833,-4.5761,-4.5706,-4.564,-4.564,-4.5693,-4.564,-4.5622,-4.5603,-4.5586,-4.5586,-4.5586,-4.5586,-4.5586,-4.5586,-4.5586,-4.5586,-4.5586,-4.5586,-4.5568,-4.5495,-4.5457,-4.54,-4.5379,-4.5338,-4.5298,-4.5319,-4.5361,-4.5419,-4.5476,-4.5531,-4.5568,-4.5532,-4.5457,-4.5419,-4.5419,-4.5381,-4.54,-4.54,-4.54,-4.54,-4.54,-4.5419,-4.5438,-4.5457,-4.5477,-4.5495,-4.5495,-4.5513,-4.5531,-4.5549,-4.5586,-4.5586,-4.5586,-4.5586,-4.5586,-4.5586,-4.5568,-4.5586,-4.5586,-4.5586,-4.5586,-4.5586,-4.5586,-4.5586,-4.5586,-4.5586,-4.5586,-4.5624,-4.5682,-4.5914,-4.7401,-4.6823,-4.6651,-4.6573,-4.6534,-4.6378,-4.63,-4.63,-4.63,-4.63,-4.63,-4.63,-4.63,-4.6319,-4.6573,-4.6924,-4.749,-4.8096,-4.8427,-4.9091,-4.9208,-4.9364,-4.954,-5.0008,-4.9852,-4.9247,-4.9072,-4.8623,-4.8014,-4.7736,-4.7377,-4.6709,-4.6616,-4.6404,-4.6248,-4.615,-4.6146,-4.6104,-4.6047,-4.5986,-4.5941,-4.588,-4.5847,-4.581,-4.575,-4.5706,-4.562,-4.5603,-4.5622,-4.5622,-4.5622,-4.5586,-4.5586,-4.5586,-4.5586,-4.5586,-4.5586,-4.5586,-4.5586,-4.5586,-4.5586,-4.5586,-4.5586,-4.555,-4.5438,-4.5419,-4.5361,-4.5319,-4.5337,-4.5297,-4.5317,-4.5361,-4.54,-4.5438,-4.5531,-4.5586,-4.5568,-4.5513,-4.5495,-4.5476,-4.5438,-4.54,-4.5419,-4.5476,-4.5476,-4.5475,-4.5513,-4.555,-4.555,-4.555,-4.5531,-4.5549,-4.5549,-4.5549,-4.5586,-4.5586,-4.5586,-4.5586,-4.5586,-4.5586,-4.5586,-4.5586,-4.5586,-4.5586,-4.5586,-4.5586,-4.5586,-4.5586,-4.5586,-4.5586,-4.5586,-4.5586,-4.5586,-4.5586,-4.5605,-4.6698,-4.63,-4.63,-4.63,-4.63,-4.63,-4.63,-4.63,-4.63,-4.63,-4.63,-4.63,-4.63,-4.63,-4.6319,-4.6612,-4.7002,-4.7451,-4.8057,-4.8681,-4.8818,-4.8603,-4.8287,-4.8599,-4.8615,-4.8228,-4.8232,-4.778,-4.7186,-4.6947,-4.6723,-4.6298,-4.6203,-4.6235,-4.6158,-4.6093,-4.6066,-4.6035,-4.5941,-4.5873,-4.5835,-4.5786,-4.5746,-4.5735,-4.569,-4.564,-4.5603,-4.5586,-4.5586,-4.5586,-4.5586,-4.5586,-4.5586,-4.5586,-4.5586,-4.5586,-4.5586,-4.5586,-4.5586,-4.5586,-4.5586,-4.5586,-4.5586,-4.5513,-4.5438,-4.54,-4.538,-4.5319,-4.5297,-4.5317,-4.5338,-4.5361,-4.54,-4.5457,-4.555,-4.5586,-4.5586,-4.5568,-4.555,-4.555,-4.5513,-4.5514,-4.5532,-4.5532,-4.555,-4.5531,-4.5531,-4.5586,-4.5586,-4.5568,-4.5586,-4.5586,-4.5586,-4.5586,-4.5586,-4.5586,-4.5586,-4.5586,-4.5586,-4.5586,-4.5586,-4.5586,-4.5586,-4.5586,-4.5586,-4.5586,-4.5586,-4.5586,-4.5586,-4.5586,-4.5586,-4.5586,-4.5586,-4.5586,-4.5586,-4.6288,-4.63,-4.63,-4.63,-4.63,-4.63,-4.63,-4.63,-4.63,-4.63,-4.63,-4.63,-4.63,-4.63,-4.63,-4.63,-4.6511,-4.696,-4.7643,-4.8049,-4.8107,-4.7815,-4.7483,-4.7401,-4.7435,-4.7389,-4.7366,-4.6928,-4.6514,-4.6294,-4.6332,-4.6203,-4.6162,-4.613,-4.6076,-4.6016,-4.5964,-4.5968,-4.5874,-4.5819,-4.5771,-4.5731,-4.5703,-4.5673,-4.564,-4.5622,-4.5586,-4.5586,-4.5586,-4.5586,-4.5586,-4.5586,-4.5586,-4.5586,-4.5586,-4.5586,-4.5586,-4.5586,-4.5586,-4.5586,-4.5586,-4.5586,-4.5586,-4.5531,-4.5438,-4.54,-4.5361,-4.5339,-4.5317,-4.5338,-4.5398,-4.54,-4.5457,-4.5495,-4.5568,-4.5586,-4.5586,-4.5586,-4.5586,-4.5586,-4.5568,-4.5568,-4.5568,-4.5586,-4.5586,-4.5586,-4.5586,-4.5586,-4.5586,-4.5586,-4.5586,-4.5586,-4.5586,-4.5586,-4.5586,-4.5586,-4.5586,-4.5586,-4.5586,-4.5586,-4.5586,-4.5586,-4.5586,-4.5586,-4.5586,-4.5586,-4.5586,-4.5586,-4.5586,-4.5586,-4.5586,-4.5586,-4.5586,-4.5586,-4.5586,-4.6255,-4.6288,-4.6296,-4.63,-4.63,-4.63,-4.63,-4.63,-4.63,-4.63,-4.63,-4.63,-4.63,-4.63,-4.63,-4.6296,-4.6366,-4.66,-4.6694,-4.684,-4.686,-4.6665,-4.664,-4.6601,-4.6528,-4.6426,-4.6504,-4.6401,-4.6279,-4.6203,-4.6176,-4.6127,-4.6056,-4.6026,-4.6003,-4.5956,-4.5867,-4.586,-4.5824,-4.5765,-4.5738,-4.5706,-4.5673,-4.562,-4.5603,-4.5603,-4.5586,-4.5586,-4.5586,-4.5586,-4.5586,-4.5586,-4.5586,-4.5586,-4.5586,-4.5586,-4.5586,-4.5586,-4.5586,-4.5586,-4.5586,-4.5586,-4.5586,-4.555,-4.5457,-4.54,-4.538,-4.5339,-4.5378,-4.5398,-4.5398,-4.5458,-4.5476,-4.5513,-4.5568,-4.5586,-4.5586,-4.5586,-4.5586,-4.5586,-4.5586,-4.5586,-4.5586,-4.5586,-4.5586,-4.5586,-4.5586,-4.5586,-4.5586,-4.5586,-4.5586,-4.5586,-4.5586,-4.5586,-4.5586,-4.5586,-4.5586,-4.5586,-4.5586,-4.5586,-4.5586,-4.5586,-4.5586,-4.5586,-4.5586,-4.5586,-4.5586,-4.5586,-4.5586,-4.5586,-4.5586,-4.5586,-4.5586,-4.5586,-4.5586,-4.6236,-4.6308,-4.6296,-4.63,-4.63,-4.63,-4.63,-4.63,-4.63,-4.63,-4.63,-4.63,-4.63,-4.63,-4.6292,-4.6288,-4.626,-4.6236,-4.6231,-4.6201,-4.6195,-4.6209,-4.6203,-4.6183,-4.6164,-4.6157,-4.6151,-4.6157,-4.6196,-4.6162,-4.613,-4.6047,-4.5986,-4.5929,-4.5899,-4.5866,-4.5805,-4.5761,-4.575,-4.5722,-4.5693,-4.5676,-4.5622,-4.5603,-4.5586,-4.5586,-4.5586,-4.5586,-4.5586,-4.5586,-4.5586,-4.5586,-4.5586,-4.5586,-4.5586,-4.5586,-4.5586,-4.5586,-4.5586,-4.5586,-4.5586,-4.5586,-4.5586,-4.5568,-4.5495,-4.5457,-4.5419,-4.538,-4.538,-4.5419,-4.5458,-4.5476,-4.5513,-4.555,-4.5586,-4.5586,-4.5586,-4.5586,-4.5586,-4.5586,-4.5586,-4.5586,-4.5586,-4.5586,-4.5586,-4.5586,-4.5586,-4.5586,-4.5586,-4.5586,-4.5586,-4.5586,-4.5586,-4.5586,-4.5586,-4.5586,-4.5586,-4.5586,-4.5586,-4.5586,-4.5586,-4.5586,-4.5586,-4.5586,-4.5586,-4.5586,-4.5586,-4.5586,-4.5586,-4.5586,-4.5586,-4.5586,-4.5586,-4.5586,-4.5586,-4.6231,-4.6284,-4.6296,-4.63,-4.63,-4.63,-4.63,-4.63,-4.63,-4.63,-4.6296,-4.6296,-4.6296,-4.6292,-4.6264,-4.625,-4.6201,-4.6195,-4.6183,-4.617,-4.6183,-4.6176,-4.6162,-4.6146,-4.6127,-4.6099,-4.6074,-4.6114,-4.6143,-4.6104,-4.6047,-4.5975,-4.5917,-4.5854,-4.5786,-4.5781,-4.575,-4.5719,-4.5671,-4.5673,-4.5657,-4.562,-4.5586,-4.5586,-4.5586,-4.5586,-4.5586,-4.5586,-4.5586,-4.5586,-4.5586,-4.5586,-4.5586,-4.5586,-4.5586,-4.5586,-4.5586,-4.5586,-4.5586,-4.5586,-4.5586,-4.5586,-4.5586,-4.5568,-4.5513,-4.5457,-4.5438,-4.5419,-4.5419,-4.5457,-4.5495,-4.5513,-4.5531,-4.5568,-4.5586,-4.5586,-4.5586,-4.5586,-4.5586,-4.5586,-4.5586,-4.5586,-4.5586,-4.5586,-4.5586,-4.5586,-4.5586,-4.5586,-4.5586,-4.5586,-4.5586,-4.5586,-4.5586,-4.5586,-4.5586,-4.5586,-4.5586,-4.5586,-4.5586,-4.5586,-4.5586,-4.5586,-4.5586,-4.5586,-4.5586,-4.5586,-4.5586,-4.5586,-4.5586,-4.5586,-4.5586,-4.5586,-4.5586,-4.5586,-4.5586,-4.6206,-4.6231,-4.6253,-4.63,-4.6261,-4.6241,-4.6261,-4.6202,-4.6202,-4.6296,-4.6093,-4.6249,-4.6201,-4.6231,-4.6215,-4.6222,-4.6183,-4.615,-4.6135,-4.613,-4.6113,-4.6113,-4.6093,-4.6123,-4.6076,-4.6047,-4.6025,-4.6053,-4.6074,-4.6026,-4.5964,-4.5912,-4.5841,-4.5805,-4.5731,-4.5722,-4.5709,-4.5673,-4.564,-4.5622,-4.5622,-4.5603,-4.5586,-4.5586,-4.5586,-4.5586,-4.5586,-4.5586,-4.5586,-4.5586,-4.5586,-4.5586,-4.5586,-4.5586,-4.5586,-4.5586,-4.5586,-4.5586,-4.5586,-4.5586,-4.5586,-4.5586,-4.5586,-4.5568,-4.5513,-4.5457,-4.5438,-4.5419,-4.5457,-4.5495,-4.5532,-4.5549,-4.5586,-4.5586,-4.5586,-4.5586,-4.5586,-4.5586,-4.5586,-4.5586,-4.5586,-4.5586,-4.5586,-4.5586,-4.5586,-4.5586,-4.5586,-4.5586,-4.5586,-4.5586,-4.5586,-4.5586,-4.5586,-4.5586,-4.5586,-4.5586,-4.5586,-4.5586,-4.5586,-4.5586,-4.5586,-4.5586,-4.5586,-4.5586,-4.5586,-4.5586,-4.5586,-4.5586,-4.5586,-4.5586,-4.5586,-4.5586,-4.5586,-4.5586,-4.5586,-4.5055,-4.547,-4.5551,-4.5574,-4.5551,-4.557,-4.5273,-4.4996,-4.5308,-4.5245,-4.5011,-4.5338,-4.5738,-4.6066,-4.6164,-4.6154,-4.6149,-4.6113,-4.6085,-4.6056,-4.6035,-4.6016,-4.5986,-4.5994,-4.6003,-4.5972,-4.5949,-4.5956,-4.5968,-4.5925,-4.5887,-4.5847,-4.5776,-4.5754,-4.5706,-4.5657,-4.564,-4.564,-4.5622,-4.5586,-4.5586,-4.5586,-4.5586,-4.5586,-4.5586,-4.5586,-4.5586,-4.5586,-4.5586,-4.5586,-4.5586,-4.5586,-4.5586,-4.5586,-4.5586,-4.5586,-4.5586,-4.5586,-4.5586,-4.5586,-4.5586,-4.5586,-4.5586,-4.5586,-4.5549,-4.5513,-4.5513,-4.5513,-4.555,-4.555,-4.555,-4.5586,-4.5586,-4.5586,-4.5586,-4.5586,-4.5586,-4.5586,-4.5586,-4.5586,-4.5586,-4.5586,-4.5586,-4.5586,-4.5586,-4.5586,-4.5586,-4.5586,-4.5586,-4.5586,-4.5586,-4.5586,-4.5586,-4.5586,-4.5586,-4.5586,-4.5586,-4.5586,-4.5586,-4.5586,-4.5586,-4.5586,-4.5586,-4.5586,-4.5586,-4.5586,-4.5586,-4.5586,-4.5586,-4.5586,-4.5586,-4.5586,-4.5586,-4.5586,-4.5586,-4.3724,-4.4275,-4.4551,-4.4672,-4.4684,-4.468,-4.4324,-4.3826,-4.4314,-4.425,-4.4031,-4.4526,-4.5287,-4.5784,-4.5974,-4.6084,-4.6085,-4.6046,-4.6014,-4.598,-4.5956,-4.5925,-4.5893,-4.588,-4.588,-4.5861,-4.5912,-4.5906,-4.5866,-4.5819,-4.5786,-4.5791,-4.5735,-4.569,-4.5657,-4.564,-4.5603,-4.5603,-4.5603,-4.5586,-4.5586,-4.5586,-4.5586,-4.5586,-4.5586,-4.5586,-4.5586,-4.5586,-4.5586,-4.5586,-4.5586,-4.5586,-4.5586,-4.5586,-4.5586,-4.5586,-4.5586,-4.5586,-4.5586,-4.5586,-4.5586,-4.5586,-4.5586,-4.5586,-4.5586,-4.5586,-4.5586,-4.5586,-4.5586,-4.5586,-4.5586,-4.5586,-4.5586,-4.5586,-4.5586,-4.5586,-4.5586,-4.5586,-4.5586,-4.5586,-4.5586,-4.5586,-4.5586,-4.5586,-4.5586,-4.5586,-4.5586,-4.5586,-4.5586,-4.5586,-4.5586,-4.5586,-4.5586,-4.5586,-4.5586,-4.5586,-4.5586,-4.5586,-4.5586,-4.5586,-4.5586,-4.5586,-4.5586,-4.5586,-4.5586,-4.5586,-4.5586,-4.5586,-4.5586,-4.5586,-4.5586,-4.5586,-4.5586,-4.5586,-4.5586,-4.2499,-4.2641,-4.3426,-4.3767,-4.3786,-4.3797,-4.3704,-4.3376,-4.3616,-4.363,-4.3603,-4.4367,-4.4751,-4.5113,-4.5706,-4.6016,-4.6003,-4.5944,-4.5919,-4.588,-4.5838,-4.5819,-4.58,-4.5794,-4.5794,-4.5814,-4.5847,-4.5852,-4.5829,-4.5765,-4.5731,-4.5719,-4.569,-4.5637,-4.562,-4.5603,-4.5586,-4.5586,-4.5586,-4.5586,-4.5586,-4.5586,-4.5586,-4.5586,-4.5586,-4.5586,-4.5586,-4.5586,-4.5586,-4.5586,-4.5586,-4.5586,-4.5586,-4.5586,-4.5586,-4.5586,-4.5586,-4.5586,-4.5586,-4.5586,-4.5586,-4.5586,-4.5586,-4.5586,-4.5586,-4.5586,-4.5586,-4.5586,-4.5586,-4.5586,-4.5586,-4.5586,-4.5586,-4.5586,-4.5586,-4.5586,-4.5586,-4.5586,-4.5586,-4.5586,-4.5586,-4.5586,-4.5586,-4.5586,-4.5586,-4.5586,-4.5586,-4.5586,-4.5586,-4.5586,-4.5586,-4.5586,-4.5586,-4.5586,-4.5586,-4.5586,-4.5586,-4.5586,-4.5586,-4.5586,-4.5586,-4.5586,-4.5586,-4.5586,-4.5586,-4.5586,-4.5586,-4.5586,-4.5586,-4.5586,-4.5586,-4.5586,-4.5586,-4.5586,-4.5586,-4.1526,-4.1572,-4.1902,-4.2337,-4.2836,-4.283,-4.252,-4.2162,-4.2517,-4.2735,-4.2799,-4.3569,-4.4248,-4.481,-4.5534,-4.5925,-4.5867,-4.5852,-4.5805,-4.5776,-4.5727,-4.5727,-4.5727,-4.5742,-4.5727,-4.5742,-4.5776,-4.5795,-4.5731,-4.5703,-4.5687,-4.5671,-4.5637,-4.562,-4.5603,-4.5586,-4.5586,-4.5586,-4.5586,-4.5586,-4.5586,-4.5586,-4.5586,-4.5586,-4.5586,-4.5586,-4.5586,-4.5586,-4.5586,-4.5586,-4.5586,-4.5586,-4.5586,-4.5586,-4.5586,-4.5586,-4.5586,-4.5586,-4.5586,-4.5586,-4.5586,-4.5586,-4.5586,-4.5586,-4.5586,-4.5586,-4.5586,-4.5586,-4.5586,-4.5586,-4.5586,-4.5586,-4.5586,-4.5586,-4.5586,-4.5586,-4.5586,-4.5586,-4.5586,-4.5586,-4.5586,-4.5586,-4.5586,-4.5586,-4.5586,-4.5586,-4.5586,-4.5586,-4.5586,-4.5586,-4.5586,-4.5586,-4.5586,-4.5586,-4.5586,-4.5586,-4.5586,-4.5586,-4.5586,-4.5586,-4.5586,-4.5586,-4.5586,-4.5586,-4.5586,-4.5586,-4.5586,-4.5586,-4.5586,-4.5586,-4.5586,-4.5586,-4.5586,-4.5586,-4.5586,-4.0986,-4.0972,-4.0991,-4.1337,-4.1877,-4.1889,-4.1529,-4.1146,-4.1576,-4.1801,-4.1859,-4.2643,-4.3474,-4.4304,-4.508,-4.5659,-4.5694,-4.5765,-4.5735,-4.57,-4.5684,-4.5668,-4.5668,-4.5684,-4.57,-4.5684,-4.568,-4.5696,-4.5703,-4.569,-4.5673,-4.5657,-4.562,-4.5603,-4.5586,-4.5586,-4.5586,-4.5586,-4.5586,-4.5586,-4.5586,-4.5586,-4.5586,-4.5586,-4.5586,-4.5586,-4.5586,-4.5586,-4.5586,-4.5586,-4.5586,-4.5586,-4.5586,-4.5586,-4.5586,-4.5586,-4.5586,-4.5586,-4.5586,-4.5586,-4.5586,-4.5586,-4.5586,-4.5586,-4.5586,-4.5586,-4.5586,-4.5586,-4.5586,-4.5586,-4.5586,-4.5586,-4.5586,-4.5586,-4.5586,-4.5586,-4.5586,-4.5586,-4.5586,-4.5586,-4.5586,-4.5586,-4.5586,-4.5586,-4.5586,-4.5586,-4.5586,-4.5586,-4.5586,-4.5586,-4.5586,-4.5586,-4.5586,-4.5586,-4.5586,-4.5586,-4.5586,-4.5586,-4.5586,-4.5586,-4.5586,-4.5586,-4.5586,-4.5586,-4.5586,-4.5586,-4.5586,-4.5586,-4.5586,-4.5586,-4.5586,-4.5586,-4.5586,-4.5586,-4.5586,-4.0968,-4.0913,-4.0904,-4.0971,-4.1096,-4.0971,-4.0936,-4.0888,-4.0974,-4.1003,-4.1067,-4.1858,-4.2608,-4.3401,-4.4264,-4.4993,-4.5465,-4.561,-4.569,-4.5673,-4.5637,-4.5622,-4.562,-4.5637,-4.5673,-4.5671,-4.5668,-4.5668,-4.569,-4.5654,-4.5657,-4.564,-4.5603,-4.5586,-4.5586,-4.5586,-4.5586,-4.5586,-4.5586,-4.5586,-4.5586,-4.5586,-4.5586,-4.5586,-4.5586,-4.5586,-4.5586,-4.5586,-4.5586,-4.5586,-4.5586,-4.5586,-4.5586,-4.5586,-4.5586,-4.5586,-4.5586,-4.5586,-4.5586,-4.5586,-4.5586,-4.5586,-4.5586,-4.5586,-4.5586,-4.5586,-4.5586,-4.5586,-4.5586,-4.5586,-4.5586,-4.5586,-4.5586,-4.5586,-4.5586,-4.5586,-4.5586,-4.5586,-4.5586,-4.5586,-4.5586,-4.5586,-4.5586,-4.5586,-4.5586,-4.5586,-4.5586,-4.5586,-4.5586,-4.5586,-4.5586,-4.5586,-4.5586,-4.5586,-4.5586,-4.5586,-4.5586,-4.5586,-4.5586,-4.5586,-4.5586,-4.5586,-4.5586,-4.5586,-4.5586,-4.5586,-4.5586,-4.5586,-4.5586,-4.5586,-4.5586,-4.5586,-4.5586,-4.5586,-4.5586,-4.0878,-4.0837,-4.0837,-4.0826,-4.0804,-4.0809,-4.0828,-4.0823,-4.0788,-4.0732,-4.0862,-4.1583,-4.2052,-4.27,-4.3694,-4.4527,-4.4861,-4.5522,-4.564,-4.564,-4.5622,-4.5622,-4.5603,-4.5603,-4.5659,-4.564,-4.5618,-4.5635,-4.564,-4.562,-4.562,-4.5586,-4.5586,-4.5586,-4.5586,-4.5586,-4.5586,-4.5586,-4.5586,-4.5586,-4.5586,-4.5586,-4.5586,-4.5586,-4.5586,-4.5586,-4.5586,-4.5586,-4.5586,-4.5586,-4.5586,-4.5586,-4.5586,-4.5586,-4.5586,-4.5586,-4.5586,-4.5586,-4.5586,-4.5586,-4.5586,-4.5586,-4.5586,-4.5586,-4.5586,-4.5586,-4.5586,-4.5586,-4.5586,-4.5586,-4.5586,-4.5586,-4.5586,-4.5586,-4.5586,-4.5586,-4.5586,-4.5586,-4.5586,-4.5586,-4.5586,-4.5586,-4.5586,-4.5586,-4.5586,-4.5586,-4.5586,-4.5586,-4.5586,-4.5586,-4.5586,-4.5586,-4.5586,-4.5586,-4.5586,-4.5586,-4.5586,-4.5586,-4.5586,-4.5586,-4.5586,-4.5586,-4.5586,-4.5586,-4.5586,-4.5586,-4.5586,-4.5586,-4.5586,-4.5586,-4.5586,-4.5586,-4.5586,-4.5586,-4.5586,-4.0812,-4.0732,-4.0732,-4.0694,-4.064,-4.0713,-4.0725,-4.0694,-4.0673,-4.0646,-4.0747,-4.1229,-4.1654,-4.2159,-4.2919,-4.4078,-4.4347,-4.4853,-4.549,-4.5509,-4.5586,-4.5586,-4.5586,-4.5586,-4.5603,-4.5586,-4.5586,-4.5603,-4.5622,-4.5603,-4.5586,-4.5586,-4.5586,-4.5586,-4.5586,-4.5586,-4.5586,-4.5586,-4.5586,-4.5586,-4.5586,-4.5586,-4.5586,-4.5586,-4.5586,-4.5586,-4.5586,-4.5586,-4.5586,-4.5586,-4.5586,-4.5586,-4.5586,-4.5586,-4.5586,-4.5586,-4.5586,-4.5586,-4.5586,-4.5586,-4.5586,-4.5586,-4.5586,-4.5586,-4.5586,-4.5586,-4.5586,-4.5586,-4.5586,-4.5586,-4.5586,-4.5586,-4.5586,-4.5586,-4.5586,-4.5586,-4.5586,-4.5586,-4.5586,-4.5586,-4.5586,-4.5586,-4.5586,-4.5586,-4.5586,-4.5586,-4.5586,-4.5586,-4.5586,-4.5586,-4.5586,-4.5586,-4.5586,-4.5586,-4.5586,-4.5586,-4.5586,-4.5586,-4.5586,-4.5586,-4.5586,-4.5586,-4.5586,-4.5586,-4.5586,-4.5586,-4.5586,-4.5586,-4.5586,-4.5586,-4.5586,-4.5586,-4.5586,-4.5586,-4.5586,-4.072,-4.0588,-4.0588,-4.0564,-4.0504,-4.0545,-4.053,-4.0523,-4.0577,-4.0573,-4.0626,-4.065,-4.105,-4.1709,-4.1947,-4.2854,-4.4102,-4.4393,-4.5009,-4.5413,-4.5586,-4.5586,-4.5586,-4.5586,-4.5586,-4.5586,-4.5586,-4.5586,-4.5586,-4.5586,-4.5586,-4.5586,-4.5586,-4.5568,-4.5568,-4.5568,-4.5586,-4.5586,-4.5586,-4.5586,-4.5586,-4.5586,-4.5586,-4.5586,-4.5586,-4.5586,-4.5586,-4.5586,-4.5586,-4.5586,-4.5586,-4.5586,-4.5586,-4.5586,-4.5586,-4.5586,-4.5586,-4.5586,-4.5586,-4.5586,-4.5586,-4.5586,-4.5586,-4.5586,-4.5586,-4.5586,-4.5586,-4.5586,-4.5586,-4.5586,-4.5586,-4.5586,-4.5586,-4.5586,-4.5586,-4.5586,-4.5586,-4.5586,-4.5586,-4.5586,-4.5586,-4.5586,-4.5586,-4.5586,-4.5586,-4.5586,-4.5586,-4.5586,-4.5586,-4.5586,-4.5586,-4.5586,-4.5586,-4.5586,-4.5586,-4.5586,-4.5586,-4.5586,-4.5586,-4.5586,-4.5586,-4.5586,-4.5586,-4.5586,-4.5586,-4.5586,-4.5586,-4.5586,-4.5586,-4.5586,-4.5586,-4.5586,-4.5586,-4.5586,-4.5586,-4.0534,-4.0441,-4.0441,-4.0392,-4.0286,-4.0307,-4.0362,-4.043,-4.0466,-4.0482,-4.0534,-4.0515,-4.0739,-4.0985,-4.2143,-4.2874,-4.3701,-4.4566,-4.522,-4.5528,-4.5547,-4.5566,-4.5586,-4.5586,-4.5586,-4.5586,-4.5586,-4.5586,-4.5586,-4.5586,-4.5549,-4.5531,-4.5531,-4.5513,-4.5495,-4.5513,-4.555,-4.5586,-4.5586,-4.5586,-4.5586,-4.5586,-4.5586,-4.5586,-4.5586,-4.5586,-4.5586,-4.5586,-4.5586,-4.5586,-4.5586,-4.5586,-4.5586,-4.5586,-4.5586,-4.5586,-4.5586,-4.5586,-4.5586,-4.5586,-4.5586,-4.5586,-4.5586,-4.5586,-4.5586,-4.5586,-4.5586,-4.5586,-4.5586,-4.5586,-4.5586,-4.5586,-4.5586,-4.5586,-4.5586,-4.5586,-4.5586,-4.5586,-4.5586,-4.5586,-4.5586,-4.5586,-4.5586,-4.5586,-4.5586,-4.5586,-4.5586,-4.5586,-4.5586,-4.5586,-4.5586,-4.5586,-4.5586,-4.5586,-4.5586,-4.5586,-4.5586,-4.5586,-4.5586,-4.5586,-4.5586,-4.5586,-4.5586,-4.5586,-4.5586,-4.5586,-4.5586,-4.5586,-4.5586,-4.5586,-4.5586,-4.5586,-4.5586,-4.5586,-4.5586,-4.0411,-4.0326,-4.029,-4.0215,-4.0099,-4.0118,-4.0158,-4.0253,-4.0289,-4.0344,-4.036,-4.0485,-4.0499,-4.0684,-4.1527,-4.22,-4.2681,-4.3739,-4.4566,-4.5009,-4.5451,-4.5547,-4.5586,-4.5586,-4.5586,-4.5586,-4.5586,-4.5586,-4.5586,-4.5568,-4.5531,-4.5513,-4.5495,-4.5438,-4.5438,-4.5457,-4.5532,-4.5568,-4.5568,-4.5586,-4.5586,-4.5586,-4.5586,-4.5586,-4.5586,-4.5586,-4.5586,-4.5586,-4.5586,-4.5586,-4.5586,-4.5586,-4.5586,-4.5586,-4.5586,-4.5586,-4.5586,-4.5586,-4.5586,-4.5586,-4.5586,-4.5586,-4.5586,-4.5586,-4.5586,-4.5586,-4.5586,-4.5586,-4.5586,-4.5586,-4.5586,-4.5586,-4.5586,-4.5586,-4.5586,-4.5586,-4.5586,-4.5586,-4.5586,-4.5586,-4.5586,-4.5586,-4.5586,-4.5586,-4.5586,-4.5586,-4.5586,-4.5586,-4.5586,-4.5586,-4.5586,-4.5586,-4.5586,-4.5586,-4.5586,-4.5586,-4.5586,-4.5586,-4.5586,-4.5586,-4.5586,-4.5586,-4.5586,-4.5586,-4.5586,-4.5586,-4.5586,-4.5586,-4.5586,-4.5586,-4.5586,-4.5586,-4.5586,-4.5586,-4.5586,-4.029,-4.0157,-4.0096,-3.9975,-3.987,-3.9933,-3.9956,-3.9977,-4.0099,-4.0196,-4.0252,-4.0398,-4.0466,-4.0575,-4.1034,-4.147,-4.222,-4.322,-4.4105,-4.4355,-4.5259,-4.5566,-4.5586,-4.5586,-4.5586,-4.5586,-4.5586,-4.5568,-4.5549,-4.5513,-4.5495,-4.5495,-4.5438,-4.54,-4.5381,-4.5438,-4.5495,-4.5495,-4.5568,-4.5586,-4.5586,-4.5586,-4.5586,-4.5586,-4.5586,-4.5586,-4.5586,-4.5586,-4.5586,-4.5586,-4.5586,-4.5586,-4.5586,-4.5586,-4.5586,-4.5586,-4.5586,-4.5586,-4.5586,-4.5586,-4.5586,-4.5586,-4.5586,-4.5586,-4.5586,-4.5586,-4.5586,-4.5586,-4.5586,-4.5586,-4.5586,-4.5586,-4.5586,-4.5586,-4.5586,-4.5586,-4.5586,-4.5586,-4.5586,-4.5586,-4.5586,-4.5586,-4.5586,-4.5586,-4.5586,-4.5586,-4.5586,-4.5586,-4.5586,-4.5586,-4.5586,-4.5586,-4.5586,-4.5586,-4.5586,-4.5586,-4.5586,-4.5586,-4.5586,-4.5586,-4.5586,-4.5586,-4.5586,-4.5586,-4.5586,-4.5586,-4.5586,-4.5586,-4.5586,-4.5586,-4.5586,-4.5586,-4.5586,-4.5586,-4.5586,-3.9998,-3.9889,-3.9758,-3.967,-3.9599,-3.967,-3.9693,-3.9735,-3.9892,-4.0059,-4.0196,-4.0252,-4.0362,-4.0504,-4.1017,-4.1437,-4.1896,-4.2874,-4.3932,-4.4393,-4.5047,-4.5374,-4.5566,-4.5547,-4.5566,-4.5586,-4.555,-4.5532,-4.5476,-4.5457,-4.5438,-4.5438,-4.5399,-4.538,-4.5341,-4.54,-4.5438,-4.5457,-4.555,-4.5586,-4.5586,-4.5586,-4.5586,-4.5586,-4.5586,-4.5586,-4.5586,-4.5586,-4.5586,-4.5586,-4.5586,-4.5586,-4.5586,-4.5586,-4.5586,-4.5586,-4.5586,-4.5586,-4.5586,-4.5568,-4.5568,-4.5586,-4.5605,-4.5586,-4.5586,-4.5586,-4.5586,-4.5586,-4.5586,-4.5586,-4.5586,-4.5586,-4.5586,-4.5586,-4.5586,-4.5586,-4.5586,-4.5586,-4.5586,-4.5586,-4.5586,-4.5586,-4.5586,-4.5586,-4.5586,-4.5586,-4.5586,-4.5586,-4.5603,-4.5603,-4.5603,-4.5603,-4.5586,-4.5586,-4.5586,-4.5586,-4.5586,-4.5586,-4.5586,-4.5586,-4.5586,-4.5586,-4.5586,-4.5586,-4.5586,-4.5586,-4.5586,-4.5586,-4.5586,-4.5586,-4.5586,-4.5586,-4.5586,-4.5586,-4.5586,-3.9826,-3.9712,-3.9575,-3.9477,-3.9489,-3.9526,-3.9551,-3.9599,-3.9781,-3.9935,-4.0099,-4.0177,-4.027,-4.0432,-4.0965,-4.1229,-4.1495,-4.253,-4.2874,-4.3393,-4.4412,-4.4837,-4.5107,-4.5358,-4.5494,-4.5513,-4.5476,-4.5457,-4.5419,-4.5419,-4.5419,-4.5398,-4.5378,-4.5338,-4.5317,-4.5361,-4.54,-4.5419,-4.555,-4.5605,-4.5586,-4.5586,-4.5586,-4.5586,-4.5586,-4.5586,-4.5586,-4.5586,-4.5586,-4.5586,-4.5586,-4.5586,-4.5586,-4.5586,-4.5566,-4.5549,-4.5531,-4.5531,-4.5513,-4.5513,-4.5513,-4.5532,-4.5532,-4.5495,-4.5531,-4.555,-4.5568,-4.5568,-4.5586,-4.5586,-4.5586,-4.5586,-4.5586,-4.5586,-4.5586,-4.5586,-4.5586,-4.5586,-4.5586,-4.5586,-4.5586,-4.5586,-4.5586,-4.5586,-4.5603,-4.5603,-4.5603,-4.5603,-4.5603,-4.5603,-4.5603,-4.5603,-4.5603,-4.5603,-4.5586,-4.5586,-4.5586,-4.5586,-4.5586,-4.5586,-4.5586,-4.5586,-4.5586,-4.5586,-4.5586,-4.5586,-4.5586,-4.5586,-4.5586,-4.5586,-4.5586,-4.5586,-4.5586,-4.5586,-4.5586,-3.9689,-3.957,-3.9427,-3.9388,-3.9425,-3.9471,-3.9483,-3.9532,-3.9717,-3.987,-4.0017,-4.0139,-4.0215,-4.0325,-4.0432,-4.0485,-4.0883,-4.1857,-4.197,-4.2376,-4.3492,-4.4147,-4.4611,-4.4919,-4.5151,-4.5323,-4.5361,-4.538,-4.5361,-4.536,-4.5359,-4.5378,-4.5338,-4.5277,-4.5319,-4.5361,-4.54,-4.5457,-4.5532,-4.5586,-4.5586,-4.5586,-4.5586,-4.5586,-4.5586,-4.5586,-4.5586,-4.5586,-4.5586,-4.5586,-4.5586,-4.5568,-4.5549,-4.5549,-4.5513,-4.5495,-4.5476,-4.5457,-4.5438,-4.5438,-4.5419,-4.5419,-4.5419,-4.5419,-4.5476,-4.5513,-4.555,-4.5568,-4.5586,-4.5586,-4.5586,-4.5586,-4.5586,-4.5586,-4.5586,-4.5586,-4.5586,-4.5586,-4.5586,-4.5586,-4.5586,-4.5586,-4.5586,-4.5586,-4.5603,-4.5622,-4.564,-4.562,-4.562,-4.5657,-4.5657,-4.564,-4.5622,-4.5603,-4.5586,-4.5586,-4.5586,-4.5586,-4.5586,-4.5586,-4.5586,-4.5586,-4.5586,-4.5586,-4.5586,-4.5586,-4.5586,-4.5586,-4.5586,-4.5586,-4.5586,-4.5586,-4.5586,-4.5586,-4.5586,-3.9464,-3.9451,-3.9399,-3.9399,-3.9418,-3.9471,-3.9483,-3.9551,-3.9717,-3.987,-3.9996,-4.0098,-4.0196,-4.0326,-4.0398,-4.0452,-4.06,-4.1322,-4.1649,-4.1997,-4.2746,-4.348,-4.4039,-4.4307,-4.4707,-4.5031,-4.5237,-4.5256,-4.5298,-4.5256,-4.5275,-4.5317,-4.5337,-4.5317,-4.5379,-4.5419,-4.5438,-4.5495,-4.555,-4.5586,-4.5586,-4.5586,-4.5586,-4.5586,-4.5586,-4.5586,-4.5586,-4.5586,-4.5586,-4.5586,-4.555,-4.5532,-4.5495,-4.5476,-4.5457,-4.5419,-4.54,-4.538,-4.536,-4.536,-4.536,-4.538,-4.538,-4.54,-4.5457,-4.5495,-4.5513,-4.5586,-4.5586,-4.5605,-4.5605,-4.5605,-4.5605,-4.555,-4.5532,-4.5513,-4.5531,-4.5568,-4.5586,-4.5586,-4.5586,-4.5586,-4.5586,-4.5603,-4.564,-4.564,-4.5673,-4.5654,-4.5651,-4.5671,-4.5673,-4.5657,-4.564,-4.5603,-4.5586,-4.5586,-4.5586,-4.5586,-4.5586,-4.5586,-4.5586,-4.5586,-4.5586,-4.5586,-4.5586,-4.5586,-4.5586,-4.5586,-4.5586,-4.5586,-4.5586,-4.5586,-4.5586,-4.5586,-4.5586]}]]